﻿<?xml version="1.0" encoding="utf-8"?><gpx creator="Garmin Desktop App" version="1.1" xsi:schemaLocation="http://www.topografix.com/GPX/1/1 http://www.topografix.com/GPX/1/1/gpx.xsd http://www.garmin.com/xmlschemas/WaypointExtension/v1 http://www8.garmin.com/xmlschemas/WaypointExtensionv1.xsd http://www.garmin.com/xmlschemas/TrackPointExtension/v1 http://www.garmin.com/xmlschemas/TrackPointExtensionv1.xsd http://www.garmin.com/xmlschemas/GpxExtensions/v3 http://www8.garmin.com/xmlschemas/GpxExtensionsv3.xsd http://www.garmin.com/xmlschemas/ActivityExtension/v1 http://www8.garmin.com/xmlschemas/ActivityExtensionv1.xsd http://www.garmin.com/xmlschemas/AdventuresExtensions/v1 http://www8.garmin.com/xmlschemas/AdventuresExtensionv1.xsd http://www.garmin.com/xmlschemas/PressureExtension/v1 http://www.garmin.com/xmlschemas/PressureExtensionv1.xsd http://www.garmin.com/xmlschemas/TripExtensions/v1 http://www.garmin.com/xmlschemas/TripExtensionsv1.xsd http://www.garmin.com/xmlschemas/TripMetaDataExtensions/v1 http://www.garmin.com/xmlschemas/TripMetaDataExtensionsv1.xsd http://www.garmin.com/xmlschemas/ViaPointTransportationModeExtensions/v1 http://www.garmin.com/xmlschemas/ViaPointTransportationModeExtensionsv1.xsd http://www.garmin.com/xmlschemas/CreationTimeExtensions/v1 http://www.garmin.com/xmlschemas/CreationTimeExtensionsv1.xsd" xmlns="http://www.topografix.com/GPX/1/1" xmlns:xsi="http://www.w3.org/2001/XMLSchema-instance" xmlns:wptx1="http://www.garmin.com/xmlschemas/WaypointExtension/v1" xmlns:gpxtrx="http://www.garmin.com/xmlschemas/GpxExtensions/v3" xmlns:gpxtpx="http://www.garmin.com/xmlschemas/TrackPointExtension/v1" xmlns:gpxx="http://www.garmin.com/xmlschemas/GpxExtensions/v3" xmlns:trp="http://www.garmin.com/xmlschemas/TripExtensions/v1" xmlns:adv="http://www.garmin.com/xmlschemas/AdventuresExtensions/v1" xmlns:prs="http://www.garmin.com/xmlschemas/PressureExtension/v1" xmlns:tmd="http://www.garmin.com/xmlschemas/TripMetaDataExtensions/v1" xmlns:vptm="http://www.garmin.com/xmlschemas/ViaPointTransportationModeExtensions/v1" xmlns:ctx="http://www.garmin.com/xmlschemas/CreationTimeExtension/v1">

  <metadata>
    <link href="http://www.garmin.com">
      <text>Garmin International</text>
    </link>
    <time>2014-02-10T09:54:08Z</time>
    <bounds maxlat="45.893659992143512" maxlon="7.649117382243276" minlat="45.883221589028835" minlon="7.623664978891611" />
  </metadata>

  <trk>
    <name>crepin-funivia-monte2014-02-09</name>
    <extensions>
      <gpxx:TrackExtension>
        <gpxx:DisplayColor>Yellow</gpxx:DisplayColor>
      </gpxx:TrackExtension>
    </extensions>
    <trkseg>
      <trkpt lat="45.887513123452663" lon="7.624533511698246">
        <ele>1578.1400000000001</ele>
        <time>2014-02-09T08:46:38Z</time>
      </trkpt>
      <trkpt lat="45.887406673282385" lon="7.624517250806093">
        <ele>1580.0599999999999</ele>
        <time>2014-02-09T08:46:50Z</time>
      </trkpt>
      <trkpt lat="45.887271054089069" lon="7.624541725963354">
        <ele>1581.51</ele>
        <time>2014-02-09T08:47:03Z</time>
      </trkpt>
      <trkpt lat="45.887102242559195" lon="7.624534433707595">
        <ele>1582.95</ele>
        <time>2014-02-09T08:47:20Z</time>
      </trkpt>
      <trkpt lat="45.886967377737164" lon="7.624526051804423">
        <ele>1584.3900000000001</ele>
        <time>2014-02-09T08:47:34Z</time>
      </trkpt>
      <trkpt lat="45.886842319741845" lon="7.624517166987062">
        <ele>1584.8699999999999</ele>
        <time>2014-02-09T08:47:45Z</time>
      </trkpt>
      <trkpt lat="45.886644925922155" lon="7.624514903873205">
        <ele>1586.3099999999999</ele>
        <time>2014-02-09T08:48:03Z</time>
      </trkpt>
      <trkpt lat="45.886477204039693" lon="7.624511467292905">
        <ele>1587.75</ele>
        <time>2014-02-09T08:48:20Z</time>
      </trkpt>
      <trkpt lat="45.886412831023335" lon="7.624515406787396">
        <ele>1588.24</ele>
        <time>2014-02-09T08:48:26Z</time>
      </trkpt>
      <trkpt lat="45.886254161596298" lon="7.624491434544325">
        <ele>1590.1600000000001</ele>
        <time>2014-02-09T08:48:41Z</time>
      </trkpt>
      <trkpt lat="45.886081662029028" lon="7.624429827556014">
        <ele>1592.0799999999999</ele>
        <time>2014-02-09T08:48:59Z</time>
      </trkpt>
      <trkpt lat="45.885935397818685" lon="7.624344918876886">
        <ele>1594</ele>
        <time>2014-02-09T08:49:14Z</time>
      </trkpt>
      <trkpt lat="45.885804640129209" lon="7.624265709891915">
        <ele>1595.9300000000001</ele>
        <time>2014-02-09T08:49:29Z</time>
      </trkpt>
      <trkpt lat="45.885645719245076" lon="7.624190021306276">
        <ele>1597.3699999999999</ele>
        <time>2014-02-09T08:49:44Z</time>
      </trkpt>
      <trkpt lat="45.885494006797671" lon="7.624114165082574">
        <ele>1598.8099999999999</ele>
        <time>2014-02-09T08:50:00Z</time>
      </trkpt>
      <trkpt lat="45.885428125038743" lon="7.624097066000104">
        <ele>1599.77</ele>
        <time>2014-02-09T08:50:07Z</time>
      </trkpt>
      <trkpt lat="45.885372804477811" lon="7.624082649126649">
        <ele>1600.25</ele>
        <time>2014-02-09T08:50:15Z</time>
      </trkpt>
      <trkpt lat="45.885360231623054" lon="7.624084409326315">
        <ele>1600.25</ele>
        <time>2014-02-09T08:50:17Z</time>
      </trkpt>
      <trkpt lat="45.885206172242761" lon="7.624099915847182">
        <ele>1601.21</ele>
        <time>2014-02-09T08:50:32Z</time>
      </trkpt>
      <trkpt lat="45.885058818385005" lon="7.624118942767382">
        <ele>1602.6600000000001</ele>
        <time>2014-02-09T08:50:47Z</time>
      </trkpt>
      <trkpt lat="45.884916074573994" lon="7.624159259721637">
        <ele>1604.0999999999999</ele>
        <time>2014-02-09T08:51:04Z</time>
      </trkpt>
      <trkpt lat="45.884892018511891" lon="7.624171078205109">
        <ele>1604.0999999999999</ele>
        <time>2014-02-09T08:51:07Z</time>
      </trkpt>
      <trkpt lat="45.884751621633768" lon="7.624237295240164">
        <ele>1605.54</ele>
        <time>2014-02-09T08:51:23Z</time>
      </trkpt>
      <trkpt lat="45.884621869772673" lon="7.624319940805435">
        <ele>1605.54</ele>
        <time>2014-02-09T08:51:38Z</time>
      </trkpt>
      <trkpt lat="45.884584151208401" lon="7.624318683519959">
        <ele>1605.54</ele>
        <time>2014-02-09T08:51:41Z</time>
      </trkpt>
      <trkpt lat="45.88447661139071" lon="7.62439152225852">
        <ele>1605.54</ele>
        <time>2014-02-09T08:51:55Z</time>
      </trkpt>
      <trkpt lat="45.884472420439124" lon="7.624412728473544">
        <ele>1604.0999999999999</ele>
        <time>2014-02-09T08:51:59Z</time>
      </trkpt>
      <trkpt lat="45.884455991908908" lon="7.624426139518619">
        <ele>1605.0599999999999</ele>
        <time>2014-02-09T08:52:01Z</time>
      </trkpt>
      <trkpt lat="45.884321043267846" lon="7.624458912760019">
        <ele>1603.6199999999999</ele>
        <time>2014-02-09T08:52:14Z</time>
      </trkpt>
      <trkpt lat="45.884121218696237" lon="7.624421278014779">
        <ele>1602.1700000000001</ele>
        <time>2014-02-09T08:52:30Z</time>
      </trkpt>
      <trkpt lat="45.884038656949997" lon="7.624384984374046">
        <ele>1601.6900000000001</ele>
        <time>2014-02-09T08:52:37Z</time>
      </trkpt>
      <trkpt lat="45.883939163759351" lon="7.62436805292964">
        <ele>1599.77</ele>
        <time>2014-02-09T08:52:46Z</time>
      </trkpt>
      <trkpt lat="45.883755013346672" lon="7.624342823401094">
        <ele>1598.3299999999999</ele>
        <time>2014-02-09T08:53:01Z</time>
      </trkpt>
      <trkpt lat="45.883604809641838" lon="7.624317845329642">
        <ele>1597.3699999999999</ele>
        <time>2014-02-09T08:53:14Z</time>
      </trkpt>
      <trkpt lat="45.883399704471231" lon="7.624260429292917">
        <ele>1595.45</ele>
        <time>2014-02-09T08:53:31Z</time>
      </trkpt>
      <trkpt lat="45.883237682282925" lon="7.624246096238494">
        <ele>1594</ele>
        <time>2014-02-09T08:53:47Z</time>
      </trkpt>
      <trkpt lat="45.883246818557382" lon="7.624306613579392">
        <ele>1594.48</ele>
        <time>2014-02-09T08:53:58Z</time>
      </trkpt>
      <trkpt lat="45.883248662576079" lon="7.624303596094251">
        <ele>1593.52</ele>
        <time>2014-02-09T08:54:11Z</time>
      </trkpt>
      <trkpt lat="45.88325209915638" lon="7.624295298010111">
        <ele>1593.52</ele>
        <time>2014-02-09T08:54:39Z</time>
      </trkpt>
      <trkpt lat="45.883241035044193" lon="7.624287586659193">
        <ele>1593.04</ele>
        <time>2014-02-09T08:55:12Z</time>
      </trkpt>
      <trkpt lat="45.883231898769736" lon="7.624315246939659">
        <ele>1593.04</ele>
        <time>2014-02-09T08:55:38Z</time>
      </trkpt>
      <trkpt lat="45.8832614030689" lon="7.624298902228475">
        <ele>1593.04</ele>
        <time>2014-02-09T08:56:14Z</time>
      </trkpt>
      <trkpt lat="45.883242795243859" lon="7.624272499233484">
        <ele>1592.5599999999999</ele>
        <time>2014-02-09T08:56:49Z</time>
      </trkpt>
      <trkpt lat="45.883251260966063" lon="7.624253304675221">
        <ele>1592.5599999999999</ele>
        <time>2014-02-09T08:57:23Z</time>
      </trkpt>
      <trkpt lat="45.883221589028835" lon="7.624288843944669">
        <ele>1592.0799999999999</ele>
        <time>2014-02-09T08:58:04Z</time>
      </trkpt>
      <trkpt lat="45.88324480690062" lon="7.624278869479895">
        <ele>1592.5599999999999</ele>
        <time>2014-02-09T08:58:34Z</time>
      </trkpt>
      <trkpt lat="45.883230306208134" lon="7.624273924157023">
        <ele>1592.5599999999999</ele>
        <time>2014-02-09T08:59:05Z</time>
      </trkpt>
      <trkpt lat="45.883251847699285" lon="7.624275935813785">
        <ele>1592.5599999999999</ele>
        <time>2014-02-09T08:59:44Z</time>
      </trkpt>
      <trkpt lat="45.883251344785094" lon="7.624266967177391">
        <ele>1593.04</ele>
        <time>2014-02-09T08:59:53Z</time>
      </trkpt>
      <trkpt lat="45.88325017131865" lon="7.624270990490913">
        <ele>1593.04</ele>
        <time>2014-02-09T09:00:10Z</time>
      </trkpt>
      <trkpt lat="45.883255787193775" lon="7.624277360737324">
        <ele>1593.04</ele>
        <time>2014-02-09T09:00:29Z</time>
      </trkpt>
      <trkpt lat="45.88326039724052" lon="7.624277276918292">
        <ele>1593.52</ele>
        <time>2014-02-09T09:00:33Z</time>
      </trkpt>
      <trkpt lat="45.883308257907629" lon="7.624275432899594">
        <ele>1594</ele>
        <time>2014-02-09T09:00:50Z</time>
      </trkpt>
      <trkpt lat="45.883382353931665" lon="7.624311810359359">
        <ele>1596.4100000000001</ele>
        <time>2014-02-09T09:01:04Z</time>
      </trkpt>
      <trkpt lat="45.883474219590425" lon="7.624370316043496">
        <ele>1598.3299999999999</ele>
        <time>2014-02-09T09:01:19Z</time>
      </trkpt>
      <trkpt lat="45.883518056944013" lon="7.624398060142994">
        <ele>1598.8099999999999</ele>
        <time>2014-02-09T09:01:32Z</time>
      </trkpt>
      <trkpt lat="45.88357656262815" lon="7.624448267742991">
        <ele>1601.6900000000001</ele>
        <time>2014-02-09T09:01:47Z</time>
      </trkpt>
      <trkpt lat="45.883669350296259" lon="7.624439466744661">
        <ele>1604.0999999999999</ele>
        <time>2014-02-09T09:02:02Z</time>
      </trkpt>
      <trkpt lat="45.88376079685986" lon="7.624501157552004">
        <ele>1606.5</ele>
        <time>2014-02-09T09:02:17Z</time>
      </trkpt>
      <trkpt lat="45.883838413283229" lon="7.624560501426458">
        <ele>1608.4200000000001</ele>
        <time>2014-02-09T09:02:32Z</time>
      </trkpt>
      <trkpt lat="45.883868923410773" lon="7.62457131408155">
        <ele>1609.3800000000001</ele>
        <time>2014-02-09T09:02:44Z</time>
      </trkpt>
      <trkpt lat="45.883905803784728" lon="7.624596040695906">
        <ele>1609.8599999999999</ele>
        <time>2014-02-09T09:03:01Z</time>
      </trkpt>
      <trkpt lat="45.883991718292236" lon="7.624698299914599">
        <ele>1612.27</ele>
        <time>2014-02-09T09:03:16Z</time>
      </trkpt>
      <trkpt lat="45.884066484868526" lon="7.624754207208753">
        <ele>1614.6700000000001</ele>
        <time>2014-02-09T09:03:32Z</time>
      </trkpt>
      <trkpt lat="45.884096743538976" lon="7.624814556911588">
        <ele>1617.5599999999999</ele>
        <time>2014-02-09T09:03:47Z</time>
      </trkpt>
      <trkpt lat="45.884068245068192" lon="7.624885551631451">
        <ele>1619</ele>
        <time>2014-02-09T09:04:01Z</time>
      </trkpt>
      <trkpt lat="45.884130774065852" lon="7.62495394796133">
        <ele>1621.4000000000001</ele>
        <time>2014-02-09T09:04:15Z</time>
      </trkpt>
      <trkpt lat="45.8841472864151" lon="7.625040784478188">
        <ele>1622.8399999999999</ele>
        <time>2014-02-09T09:04:28Z</time>
      </trkpt>
      <trkpt lat="45.884164553135633" lon="7.625119574368">
        <ele>1624.28</ele>
        <time>2014-02-09T09:04:42Z</time>
      </trkpt>
      <trkpt lat="45.884183663874865" lon="7.625219654291868">
        <ele>1627.1700000000001</ele>
        <time>2014-02-09T09:04:59Z</time>
      </trkpt>
      <trkpt lat="45.884210988879204" lon="7.625306406989694">
        <ele>1628.6099999999999</ele>
        <time>2014-02-09T09:05:15Z</time>
      </trkpt>
      <trkpt lat="45.884211910888553" lon="7.625403888523579">
        <ele>1629.5699999999999</ele>
        <time>2014-02-09T09:05:30Z</time>
      </trkpt>
      <trkpt lat="45.884230518713593" lon="7.625492149963975">
        <ele>1631.49</ele>
        <time>2014-02-09T09:05:45Z</time>
      </trkpt>
      <trkpt lat="45.884241918101907" lon="7.62561209499836">
        <ele>1633.9000000000001</ele>
        <time>2014-02-09T09:06:00Z</time>
      </trkpt>
      <trkpt lat="45.884238397702575" lon="7.625720305368304">
        <ele>1636.3</ele>
        <time>2014-02-09T09:06:16Z</time>
      </trkpt>
      <trkpt lat="45.884232949465513" lon="7.625793563202024">
        <ele>1637.74</ele>
        <time>2014-02-09T09:06:29Z</time>
      </trkpt>
      <trkpt lat="45.884236469864845" lon="7.625907473266125">
        <ele>1639.6700000000001</ele>
        <time>2014-02-09T09:06:45Z</time>
      </trkpt>
      <trkpt lat="45.884216353297234" lon="7.626009816303849">
        <ele>1641.5899999999999</ele>
        <time>2014-02-09T09:06:58Z</time>
      </trkpt>
      <trkpt lat="45.884187184274197" lon="7.626091707497835">
        <ele>1643.51</ele>
        <time>2014-02-09T09:07:12Z</time>
      </trkpt>
      <trkpt lat="45.884174108505249" lon="7.62618281878531">
        <ele>1643.99</ele>
        <time>2014-02-09T09:07:24Z</time>
      </trkpt>
      <trkpt lat="45.884176455438137" lon="7.626234367489815">
        <ele>1643.51</ele>
        <time>2014-02-09T09:07:36Z</time>
      </trkpt>
      <trkpt lat="45.884176371619105" lon="7.626232691109181">
        <ele>1643.99</ele>
        <time>2014-02-09T09:07:50Z</time>
      </trkpt>
      <trkpt lat="45.884174108505249" lon="7.626337548717856">
        <ele>1644.95</ele>
        <time>2014-02-09T09:08:05Z</time>
      </trkpt>
      <trkpt lat="45.884162038564682" lon="7.626373590901494">
        <ele>1645.9100000000001</ele>
        <time>2014-02-09T09:08:08Z</time>
      </trkpt>
      <trkpt lat="45.884145945310593" lon="7.626549443230033">
        <ele>1646.8800000000001</ele>
        <time>2014-02-09T09:08:22Z</time>
      </trkpt>
      <trkpt lat="45.884165307506919" lon="7.626543324440718">
        <ele>1646.4000000000001</ele>
        <time>2014-02-09T09:08:32Z</time>
      </trkpt>
      <trkpt lat="45.884312829002738" lon="7.626775503158569">
        <ele>1644.95</ele>
        <time>2014-02-09T09:08:49Z</time>
      </trkpt>
      <trkpt lat="45.884337136521935" lon="7.626816825941205">
        <ele>1644.95</ele>
        <time>2014-02-09T09:08:52Z</time>
      </trkpt>
      <trkpt lat="45.884352307766676" lon="7.626985050737858">
        <ele>1645.4300000000001</ele>
        <time>2014-02-09T09:09:02Z</time>
      </trkpt>
      <trkpt lat="45.8844702411443" lon="7.627132153138518">
        <ele>1646.8800000000001</ele>
        <time>2014-02-09T09:09:17Z</time>
      </trkpt>
      <trkpt lat="45.88459488004446" lon="7.627248158678412">
        <ele>1649.28</ele>
        <time>2014-02-09T09:09:31Z</time>
      </trkpt>
      <trkpt lat="45.884680543094873" lon="7.627300042659044">
        <ele>1651.2</ele>
        <time>2014-02-09T09:09:44Z</time>
      </trkpt>
      <trkpt lat="45.884783221408725" lon="7.627364667132497">
        <ele>1652.6400000000001</ele>
        <time>2014-02-09T09:09:55Z</time>
      </trkpt>
      <trkpt lat="45.884879026561975" lon="7.627420071512461">
        <ele>1654.5699999999999</ele>
        <time>2014-02-09T09:10:08Z</time>
      </trkpt>
      <trkpt lat="45.884822281077504" lon="7.62748695909977">
        <ele>1654.5699999999999</ele>
        <time>2014-02-09T09:10:14Z</time>
      </trkpt>
      <trkpt lat="45.884810127317905" lon="7.627660213038325">
        <ele>1656.49</ele>
        <time>2014-02-09T09:10:29Z</time>
      </trkpt>
      <trkpt lat="45.884795458987355" lon="7.627684436738491">
        <ele>1656.97</ele>
        <time>2014-02-09T09:10:32Z</time>
      </trkpt>
      <trkpt lat="45.88466964662075" lon="7.627751491963863">
        <ele>1657.9300000000001</ele>
        <time>2014-02-09T09:10:45Z</time>
      </trkpt>
      <trkpt lat="45.884555652737617" lon="7.627863893285394">
        <ele>1659.3699999999999</ele>
        <time>2014-02-09T09:10:57Z</time>
      </trkpt>
      <trkpt lat="45.884491195902228" lon="7.627948550507426">
        <ele>1660.8099999999999</ele>
        <time>2014-02-09T09:11:09Z</time>
      </trkpt>
      <trkpt lat="45.88450544513762" lon="7.628026669844985">
        <ele>1661.78</ele>
        <time>2014-02-09T09:11:18Z</time>
      </trkpt>
      <trkpt lat="45.884579960256815" lon="7.62816128320992">
        <ele>1663.7</ele>
        <time>2014-02-09T09:11:33Z</time>
      </trkpt>
      <trkpt lat="45.884589347988367" lon="7.628236301243305">
        <ele>1665.6199999999999</ele>
        <time>2014-02-09T09:11:47Z</time>
      </trkpt>
      <trkpt lat="45.884613152593374" lon="7.628293633460999">
        <ele>1667.0599999999999</ele>
        <time>2014-02-09T09:12:00Z</time>
      </trkpt>
      <trkpt lat="45.884550204500556" lon="7.62830494903028">
        <ele>1668.02</ele>
        <time>2014-02-09T09:12:12Z</time>
      </trkpt>
      <trkpt lat="45.884501338005066" lon="7.628319030627608">
        <ele>1669.47</ele>
        <time>2014-02-09T09:12:22Z</time>
      </trkpt>
      <trkpt lat="45.884486082941294" lon="7.628331519663334">
        <ele>1669.95</ele>
        <time>2014-02-09T09:12:36Z</time>
      </trkpt>
      <trkpt lat="45.884473761543632" lon="7.628295058384538">
        <ele>1670.9100000000001</ele>
        <time>2014-02-09T09:12:59Z</time>
      </trkpt>
      <trkpt lat="45.884481808170676" lon="7.628310145810247">
        <ele>1670.4300000000001</ele>
        <time>2014-02-09T09:13:17Z</time>
      </trkpt>
      <trkpt lat="45.884468061849475" lon="7.628312660381198">
        <ele>1670.4300000000001</ele>
        <time>2014-02-09T09:13:19Z</time>
      </trkpt>
      <trkpt lat="45.884443921968341" lon="7.628312828019261">
        <ele>1671.3900000000001</ele>
        <time>2014-02-09T09:13:25Z</time>
      </trkpt>
      <trkpt lat="45.884490860626101" lon="7.628382062539458">
        <ele>1671.8699999999999</ele>
        <time>2014-02-09T09:13:39Z</time>
      </trkpt>
      <trkpt lat="45.884501254186034" lon="7.628494799137116">
        <ele>1674.27</ele>
        <time>2014-02-09T09:13:51Z</time>
      </trkpt>
      <trkpt lat="45.884519694373012" lon="7.628579623997212">
        <ele>1677.1600000000001</ele>
        <time>2014-02-09T09:14:04Z</time>
      </trkpt>
      <trkpt lat="45.884535033255816" lon="7.628657575696707">
        <ele>1679.5599999999999</ele>
        <time>2014-02-09T09:14:17Z</time>
      </trkpt>
      <trkpt lat="45.884539391845465" lon="7.628720104694367">
        <ele>1681.48</ele>
        <time>2014-02-09T09:14:36Z</time>
      </trkpt>
      <trkpt lat="45.884545929729939" lon="7.628800570964813">
        <ele>1684.8499999999999</ele>
        <time>2014-02-09T09:14:47Z</time>
      </trkpt>
      <trkpt lat="45.884565124288201" lon="7.62890106998384">
        <ele>1688.21</ele>
        <time>2014-02-09T09:15:02Z</time>
      </trkpt>
      <trkpt lat="45.884583480656147" lon="7.628984469920397">
        <ele>1691.0999999999999</ele>
        <time>2014-02-09T09:15:15Z</time>
      </trkpt>
      <trkpt lat="45.884590521454811" lon="7.629082454368472">
        <ele>1693.5</ele>
        <time>2014-02-09T09:15:29Z</time>
      </trkpt>
      <trkpt lat="45.884594460949302" lon="7.629151856526732">
        <ele>1696.8599999999999</ele>
        <time>2014-02-09T09:15:42Z</time>
      </trkpt>
      <trkpt lat="45.884606447070837" lon="7.629222683608532">
        <ele>1698.79</ele>
        <time>2014-02-09T09:15:55Z</time>
      </trkpt>
      <trkpt lat="45.884621283039451" lon="7.62930172495544">
        <ele>1700.71</ele>
        <time>2014-02-09T09:16:09Z</time>
      </trkpt>
      <trkpt lat="45.884628910571337" lon="7.629420664161444">
        <ele>1704.0699999999999</ele>
        <time>2014-02-09T09:16:26Z</time>
      </trkpt>
      <trkpt lat="45.884643327444792" lon="7.629529377445579">
        <ele>1707.4400000000001</ele>
        <time>2014-02-09T09:16:41Z</time>
      </trkpt>
      <trkpt lat="45.884654894471169" lon="7.629635324701667">
        <ele>1710.8</ele>
        <time>2014-02-09T09:16:57Z</time>
      </trkpt>
      <trkpt lat="45.884667299687862" lon="7.629729621112347">
        <ele>1713.21</ele>
        <time>2014-02-09T09:17:09Z</time>
      </trkpt>
      <trkpt lat="45.884676016867161" lon="7.629829365760088">
        <ele>1715.1300000000001</ele>
        <time>2014-02-09T09:17:22Z</time>
      </trkpt>
      <trkpt lat="45.884724799543619" lon="7.629967331886292">
        <ele>1717.05</ele>
        <time>2014-02-09T09:17:38Z</time>
      </trkpt>
      <trkpt lat="45.884723458439112" lon="7.629987029358745">
        <ele>1717.05</ele>
        <time>2014-02-09T09:17:50Z</time>
      </trkpt>
      <trkpt lat="45.884706359356642" lon="7.629997674375773">
        <ele>1717.05</ele>
        <time>2014-02-09T09:17:56Z</time>
      </trkpt>
      <trkpt lat="45.884737456217408" lon="7.629964733496308">
        <ele>1717.53</ele>
        <time>2014-02-09T09:18:10Z</time>
      </trkpt>
      <trkpt lat="45.884723458439112" lon="7.629955597221851">
        <ele>1717.05</ele>
        <time>2014-02-09T09:18:33Z</time>
      </trkpt>
      <trkpt lat="45.88472974486649" lon="7.629923578351736">
        <ele>1716.5699999999999</ele>
        <time>2014-02-09T09:18:49Z</time>
      </trkpt>
      <trkpt lat="45.884713986888528" lon="7.629956351593137">
        <ele>1717.05</ele>
        <time>2014-02-09T09:19:05Z</time>
      </trkpt>
      <trkpt lat="45.884711723774672" lon="7.629963392391801">
        <ele>1716.5699999999999</ele>
        <time>2014-02-09T09:19:25Z</time>
      </trkpt>
      <trkpt lat="45.884703425690532" lon="7.6299755461514">
        <ele>1716.5699999999999</ele>
        <time>2014-02-09T09:19:47Z</time>
      </trkpt>
      <trkpt lat="45.884703090414405" lon="7.629974707961083">
        <ele>1716.0899999999999</ele>
        <time>2014-02-09T09:20:06Z</time>
      </trkpt>
      <trkpt lat="45.884699570015073" lon="7.629978144541383">
        <ele>1716.5699999999999</ele>
        <time>2014-02-09T09:20:13Z</time>
      </trkpt>
      <trkpt lat="45.884627485647798" lon="7.630036314949393">
        <ele>1717.53</ele>
        <time>2014-02-09T09:20:19Z</time>
      </trkpt>
      <trkpt lat="45.884525058791041" lon="7.630189368501306">
        <ele>1718.97</ele>
        <time>2014-02-09T09:20:31Z</time>
      </trkpt>
      <trkpt lat="45.884488262236118" lon="7.63027997687459">
        <ele>1720.9000000000001</ele>
        <time>2014-02-09T09:20:43Z</time>
      </trkpt>
      <trkpt lat="45.884465463459492" lon="7.630310403183103">
        <ele>1721.8599999999999</ele>
        <time>2014-02-09T09:20:55Z</time>
      </trkpt>
      <trkpt lat="45.884460350498557" lon="7.630402017384768">
        <ele>1722.8199999999999</ele>
        <time>2014-02-09T09:21:09Z</time>
      </trkpt>
      <trkpt lat="45.884451465681195" lon="7.630419451743364">
        <ele>1723.3</ele>
        <time>2014-02-09T09:21:22Z</time>
      </trkpt>
      <trkpt lat="45.884451549500227" lon="7.630412327125669">
        <ele>1723.3</ele>
        <time>2014-02-09T09:21:44Z</time>
      </trkpt>
      <trkpt lat="45.884437132626772" lon="7.630425905808806">
        <ele>1723.78</ele>
        <time>2014-02-09T09:22:07Z</time>
      </trkpt>
      <trkpt lat="45.884426655247808" lon="7.630513831973076">
        <ele>1725.22</ele>
        <time>2014-02-09T09:22:22Z</time>
      </trkpt>
      <trkpt lat="45.884425649419427" lon="7.630532355979085">
        <ele>1725.7</ele>
        <time>2014-02-09T09:22:24Z</time>
      </trkpt>
      <trkpt lat="45.88441651314497" lon="7.630654228851199">
        <ele>1726.6700000000001</ele>
        <time>2014-02-09T09:22:38Z</time>
      </trkpt>
      <trkpt lat="45.884399497881532" lon="7.630751961842179">
        <ele>1729.55</ele>
        <time>2014-02-09T09:22:53Z</time>
      </trkpt>
      <trkpt lat="45.884401174262166" lon="7.630857573822141">
        <ele>1732.4300000000001</ele>
        <time>2014-02-09T09:23:10Z</time>
      </trkpt>
      <trkpt lat="45.884404443204403" lon="7.630986990407109">
        <ele>1734.8399999999999</ele>
        <time>2014-02-09T09:23:28Z</time>
      </trkpt>
      <trkpt lat="45.88437644764781" lon="7.631106432527304">
        <ele>1736.76</ele>
        <time>2014-02-09T09:23:42Z</time>
      </trkpt>
      <trkpt lat="45.884327245876193" lon="7.631231155246496">
        <ele>1739.1600000000001</ele>
        <time>2014-02-09T09:24:02Z</time>
      </trkpt>
      <trkpt lat="45.884243091568351" lon="7.631280021741986">
        <ele>1742.05</ele>
        <time>2014-02-09T09:24:18Z</time>
      </trkpt>
      <trkpt lat="45.884197158738971" lon="7.631358895450831">
        <ele>1744.9300000000001</ele>
        <time>2014-02-09T09:24:38Z</time>
      </trkpt>
      <trkpt lat="45.88415508158505" lon="7.631488647311926">
        <ele>1747.3299999999999</ele>
        <time>2014-02-09T09:24:57Z</time>
      </trkpt>
      <trkpt lat="45.884161200374365" lon="7.631516391411424">
        <ele>1747.8099999999999</ele>
        <time>2014-02-09T09:25:10Z</time>
      </trkpt>
      <trkpt lat="45.884151225909591" lon="7.631544135510922">
        <ele>1747.8099999999999</ele>
        <time>2014-02-09T09:25:22Z</time>
      </trkpt>
      <trkpt lat="45.884140664711595" lon="7.631671037524939">
        <ele>1748.78</ele>
        <time>2014-02-09T09:25:37Z</time>
      </trkpt>
      <trkpt lat="45.884113926440477" lon="7.631820235401392">
        <ele>1750.7</ele>
        <time>2014-02-09T09:25:52Z</time>
      </trkpt>
      <trkpt lat="45.884110825136304" lon="7.631928361952305">
        <ele>1752.1400000000001</ele>
        <time>2014-02-09T09:26:05Z</time>
      </trkpt>
      <trkpt lat="45.884136306121945" lon="7.632052414119244">
        <ele>1753.0999999999999</ele>
        <time>2014-02-09T09:26:20Z</time>
      </trkpt>
      <trkpt lat="45.884146448224783" lon="7.632151236757636">
        <ele>1755.02</ele>
        <time>2014-02-09T09:26:34Z</time>
      </trkpt>
      <trkpt lat="45.884149884805083" lon="7.632249556481838">
        <ele>1756.47</ele>
        <time>2014-02-09T09:26:51Z</time>
      </trkpt>
      <trkpt lat="45.884151058271527" lon="7.63227604329586">
        <ele>1756.95</ele>
        <time>2014-02-09T09:27:04Z</time>
      </trkpt>
      <trkpt lat="45.884184502065182" lon="7.632325161248446">
        <ele>1757.4300000000001</ele>
        <time>2014-02-09T09:27:20Z</time>
      </trkpt>
      <trkpt lat="45.884206797927618" lon="7.632437814027071">
        <ele>1759.3499999999999</ele>
        <time>2014-02-09T09:27:35Z</time>
      </trkpt>
      <trkpt lat="45.884145442396402" lon="7.632468407973647">
        <ele>1761.27</ele>
        <time>2014-02-09T09:27:48Z</time>
      </trkpt>
      <trkpt lat="45.884103868156672" lon="7.632502689957619">
        <ele>1762.71</ele>
        <time>2014-02-09T09:28:00Z</time>
      </trkpt>
      <trkpt lat="45.884072352200747" lon="7.632493805140257">
        <ele>1763.6800000000001</ele>
        <time>2014-02-09T09:28:11Z</time>
      </trkpt>
      <trkpt lat="45.88402315042913" lon="7.632492128759623">
        <ele>1764.6400000000001</ele>
        <time>2014-02-09T09:28:30Z</time>
      </trkpt>
      <trkpt lat="45.884031280875206" lon="7.632551221176982">
        <ele>1766.0799999999999</ele>
        <time>2014-02-09T09:28:43Z</time>
      </trkpt>
      <trkpt lat="45.884074196219444" lon="7.632551724091172">
        <ele>1765.5999999999999</ele>
        <time>2014-02-09T09:28:56Z</time>
      </trkpt>
      <trkpt lat="45.884199924767017" lon="7.632605535909534">
        <ele>1765.1199999999999</ele>
        <time>2014-02-09T09:29:09Z</time>
      </trkpt>
      <trkpt lat="45.884202942252159" lon="7.632666639983654">
        <ele>1765.1199999999999</ele>
        <time>2014-02-09T09:29:22Z</time>
      </trkpt>
      <trkpt lat="45.884180394932628" lon="7.632660688832402">
        <ele>1765.1199999999999</ele>
        <time>2014-02-09T09:29:24Z</time>
      </trkpt>
      <trkpt lat="45.884090289473534" lon="7.632631100714207">
        <ele>1765.5999999999999</ele>
        <time>2014-02-09T09:29:38Z</time>
      </trkpt>
      <trkpt lat="45.884036226198077" lon="7.632644008845091">
        <ele>1765.5999999999999</ele>
        <time>2014-02-09T09:29:46Z</time>
      </trkpt>
      <trkpt lat="45.883948132395744" lon="7.632577959448099">
        <ele>1766.0799999999999</ele>
        <time>2014-02-09T09:30:01Z</time>
      </trkpt>
      <trkpt lat="45.883846376091242" lon="7.632481399923563">
        <ele>1766.0799999999999</ele>
        <time>2014-02-09T09:30:12Z</time>
      </trkpt>
      <trkpt lat="45.883805975317955" lon="7.632451225072146">
        <ele>1768</ele>
        <time>2014-02-09T09:30:27Z</time>
      </trkpt>
      <trkpt lat="45.883845454081893" lon="7.632486093789339">
        <ele>1768</ele>
        <time>2014-02-09T09:30:40Z</time>
      </trkpt>
      <trkpt lat="45.883843526244164" lon="7.632493637502194">
        <ele>1768</ele>
        <time>2014-02-09T09:30:52Z</time>
      </trkpt>
      <trkpt lat="45.883921394124627" lon="7.6326107326895">
        <ele>1766.5599999999999</ele>
        <time>2014-02-09T09:31:06Z</time>
      </trkpt>
      <trkpt lat="45.883977385237813" lon="7.632669741287828">
        <ele>1766.0799999999999</ele>
        <time>2014-02-09T09:31:20Z</time>
      </trkpt>
      <trkpt lat="45.88402658700943" lon="7.632686672732234">
        <ele>1765.5999999999999</ele>
        <time>2014-02-09T09:31:25Z</time>
      </trkpt>
      <trkpt lat="45.884087020531297" lon="7.632792787626386">
        <ele>1766.0799999999999</ele>
        <time>2014-02-09T09:31:38Z</time>
      </trkpt>
      <trkpt lat="45.884071011096239" lon="7.632737467065454">
        <ele>1765.5999999999999</ele>
        <time>2014-02-09T09:31:50Z</time>
      </trkpt>
      <trkpt lat="45.884066484868526" lon="7.6326366327703">
        <ele>1765.1199999999999</ele>
        <time>2014-02-09T09:32:05Z</time>
      </trkpt>
      <trkpt lat="45.884056342765689" lon="7.632695306092501">
        <ele>1765.1199999999999</ele>
        <time>2014-02-09T09:32:20Z</time>
      </trkpt>
      <trkpt lat="45.884086349979043" lon="7.63276856392622">
        <ele>1764.6400000000001</ele>
        <time>2014-02-09T09:32:39Z</time>
      </trkpt>
      <trkpt lat="45.88410722091794" lon="7.632796810939908">
        <ele>1764.6400000000001</ele>
        <time>2014-02-09T09:32:58Z</time>
      </trkpt>
      <trkpt lat="45.884122308343649" lon="7.632812233641744">
        <ele>1764.6400000000001</ele>
        <time>2014-02-09T09:33:07Z</time>
      </trkpt>
      <trkpt lat="45.884197996929288" lon="7.63297475874424">
        <ele>1764.1600000000001</ele>
        <time>2014-02-09T09:33:22Z</time>
      </trkpt>
      <trkpt lat="45.884253736585379" lon="7.633132170885801">
        <ele>1765.5999999999999</ele>
        <time>2014-02-09T09:33:36Z</time>
      </trkpt>
      <trkpt lat="45.884233620017767" lon="7.633247170597315">
        <ele>1766.5599999999999</ele>
        <time>2014-02-09T09:33:52Z</time>
      </trkpt>
      <trkpt lat="45.884249797090888" lon="7.633284805342555">
        <ele>1766.5599999999999</ele>
        <time>2014-02-09T09:34:05Z</time>
      </trkpt>
      <trkpt lat="45.884372508153319" lon="7.633475577458739">
        <ele>1766.5599999999999</ele>
        <time>2014-02-09T09:34:21Z</time>
      </trkpt>
      <trkpt lat="45.884466469287872" lon="7.633565263822675">
        <ele>1765.5999999999999</ele>
        <time>2014-02-09T09:34:34Z</time>
      </trkpt>
      <trkpt lat="45.884479209780693" lon="7.633610107004643">
        <ele>1766.0799999999999</ele>
        <time>2014-02-09T09:34:41Z</time>
      </trkpt>
      <trkpt lat="45.884499996900558" lon="7.633681353181601">
        <ele>1766.0799999999999</ele>
        <time>2014-02-09T09:34:47Z</time>
      </trkpt>
      <trkpt lat="45.884528746828437" lon="7.633819319307804">
        <ele>1764.6400000000001</ele>
        <time>2014-02-09T09:34:59Z</time>
      </trkpt>
      <trkpt lat="45.884534195065498" lon="7.633963488042355">
        <ele>1763.6800000000001</ele>
        <time>2014-02-09T09:35:14Z</time>
      </trkpt>
      <trkpt lat="45.884556826204062" lon="7.634091731160879">
        <ele>1763.2</ele>
        <time>2014-02-09T09:35:27Z</time>
      </trkpt>
      <trkpt lat="45.884578870609403" lon="7.634224584326148">
        <ele>1763.6800000000001</ele>
        <time>2014-02-09T09:35:45Z</time>
      </trkpt>
      <trkpt lat="45.884599993005395" lon="7.634309828281403">
        <ele>1764.1600000000001</ele>
        <time>2014-02-09T09:36:01Z</time>
      </trkpt>
      <trkpt lat="45.884606782346964" lon="7.634387779980898">
        <ele>1765.1199999999999</ele>
        <time>2014-02-09T09:36:12Z</time>
      </trkpt>
      <trkpt lat="45.884619187563658" lon="7.634467072784901">
        <ele>1766.0799999999999</ele>
        <time>2014-02-09T09:36:23Z</time>
      </trkpt>
      <trkpt lat="45.884649278596044" lon="7.634521303698421">
        <ele>1766.0799999999999</ele>
        <time>2014-02-09T09:36:35Z</time>
      </trkpt>
      <trkpt lat="45.884667886421084" lon="7.634639656171203">
        <ele>1767.52</ele>
        <time>2014-02-09T09:36:47Z</time>
      </trkpt>
      <trkpt lat="45.884668892249465" lon="7.634750967845321">
        <ele>1769.4400000000001</ele>
        <time>2014-02-09T09:37:03Z</time>
      </trkpt>
      <trkpt lat="45.884687835350633" lon="7.634895723313093">
        <ele>1770.4100000000001</ele>
        <time>2014-02-09T09:37:22Z</time>
      </trkpt>
      <trkpt lat="45.884691942483187" lon="7.635007034987211">
        <ele>1771.3699999999999</ele>
        <time>2014-02-09T09:37:36Z</time>
      </trkpt>
      <trkpt lat="45.884704934433103" lon="7.635075096040964">
        <ele>1773.29</ele>
        <time>2014-02-09T09:37:55Z</time>
      </trkpt>
      <trkpt lat="45.884654810652137" lon="7.635123124346137">
        <ele>1774.73</ele>
        <time>2014-02-09T09:38:08Z</time>
      </trkpt>
      <trkpt lat="45.884655816480517" lon="7.635130248963833">
        <ele>1774.73</ele>
        <time>2014-02-09T09:38:25Z</time>
      </trkpt>
      <trkpt lat="45.884668221697211" lon="7.635238040238619">
        <ele>1776.1700000000001</ele>
        <time>2014-02-09T09:38:39Z</time>
      </trkpt>
      <trkpt lat="45.88469797745347" lon="7.635325966402888">
        <ele>1778.0999999999999</ele>
        <time>2014-02-09T09:38:52Z</time>
      </trkpt>
      <trkpt lat="45.884724967181683" lon="7.635402828454971">
        <ele>1779.54</ele>
        <time>2014-02-09T09:39:08Z</time>
      </trkpt>
      <trkpt lat="45.884731505066156" lon="7.635422945022583">
        <ele>1780.98</ele>
        <time>2014-02-09T09:39:23Z</time>
      </trkpt>
      <trkpt lat="45.884749945253134" lon="7.635447336360812">
        <ele>1781.46</ele>
        <time>2014-02-09T09:39:39Z</time>
      </trkpt>
      <trkpt lat="45.884781964123249" lon="7.635470051318407">
        <ele>1783.3800000000001</ele>
        <time>2014-02-09T09:39:55Z</time>
      </trkpt>
      <trkpt lat="45.884824376553297" lon="7.635491844266653">
        <ele>1784.3399999999999</ele>
        <time>2014-02-09T09:40:08Z</time>
      </trkpt>
      <trkpt lat="45.884871315211058" lon="7.635519420728087">
        <ele>1786.75</ele>
        <time>2014-02-09T09:40:22Z</time>
      </trkpt>
      <trkpt lat="45.884887659922242" lon="7.635562671348453">
        <ele>1788.6700000000001</ele>
        <time>2014-02-09T09:40:30Z</time>
      </trkpt>
      <trkpt lat="45.884860502555966" lon="7.635634336620569">
        <ele>1790.5899999999999</ele>
        <time>2014-02-09T09:40:46Z</time>
      </trkpt>
      <trkpt lat="45.88490417227149" lon="7.635666690766811">
        <ele>1792.03</ele>
        <time>2014-02-09T09:40:58Z</time>
      </trkpt>
      <trkpt lat="45.884931497275829" lon="7.635696949437261">
        <ele>1793</ele>
        <time>2014-02-09T09:41:11Z</time>
      </trkpt>
      <trkpt lat="45.884926719591022" lon="7.635764675214887">
        <ele>1795.4000000000001</ele>
        <time>2014-02-09T09:41:23Z</time>
      </trkpt>
      <trkpt lat="45.884879948571324" lon="7.635799124836922">
        <ele>1796.8399999999999</ele>
        <time>2014-02-09T09:41:38Z</time>
      </trkpt>
      <trkpt lat="45.884886402636766" lon="7.635800298303366">
        <ele>1797.8</ele>
        <time>2014-02-09T09:41:53Z</time>
      </trkpt>
      <trkpt lat="45.884939124807715" lon="7.635851176455617">
        <ele>1798.28</ele>
        <time>2014-02-09T09:42:05Z</time>
      </trkpt>
      <trkpt lat="45.884981201961637" lon="7.635923093184829">
        <ele>1798.76</ele>
        <time>2014-02-09T09:42:16Z</time>
      </trkpt>
      <trkpt lat="45.884969886392355" lon="7.636068435385823">
        <ele>1797.8</ele>
        <time>2014-02-09T09:42:30Z</time>
      </trkpt>
      <trkpt lat="45.88493200019002" lon="7.636141693219543">
        <ele>1798.76</ele>
        <time>2014-02-09T09:42:44Z</time>
      </trkpt>
      <trkpt lat="45.884915571659803" lon="7.636194247752428">
        <ele>1799.73</ele>
        <time>2014-02-09T09:42:57Z</time>
      </trkpt>
      <trkpt lat="45.884873829782009" lon="7.636222997680306">
        <ele>1799.73</ele>
        <time>2014-02-09T09:43:15Z</time>
      </trkpt>
      <trkpt lat="45.88482990860939" lon="7.636237666010857">
        <ele>1798.28</ele>
        <time>2014-02-09T09:43:26Z</time>
      </trkpt>
      <trkpt lat="45.884751873090863" lon="7.636366076767445">
        <ele>1799.24</ele>
        <time>2014-02-09T09:43:42Z</time>
      </trkpt>
      <trkpt lat="45.8846999052912" lon="7.63650462962687">
        <ele>1800.21</ele>
        <time>2014-02-09T09:43:59Z</time>
      </trkpt>
      <trkpt lat="45.884707700461149" lon="7.636522147804499">
        <ele>1800.21</ele>
        <time>2014-02-09T09:44:12Z</time>
      </trkpt>
      <trkpt lat="45.884704682976007" lon="7.636524243280292">
        <ele>1801.1700000000001</ele>
        <time>2014-02-09T09:44:13Z</time>
      </trkpt>
      <trkpt lat="45.884703928604722" lon="7.6364875305444">
        <ele>1800.6900000000001</ele>
        <time>2014-02-09T09:44:30Z</time>
      </trkpt>
      <trkpt lat="45.884705185890198" lon="7.63649046421051">
        <ele>1801.1700000000001</ele>
        <time>2014-02-09T09:44:45Z</time>
      </trkpt>
      <trkpt lat="45.884742317721248" lon="7.636506976559758">
        <ele>1801.1700000000001</ele>
        <time>2014-02-09T09:44:53Z</time>
      </trkpt>
      <trkpt lat="45.884811468422413" lon="7.636479819193482">
        <ele>1802.6099999999999</ele>
        <time>2014-02-09T09:45:01Z</time>
      </trkpt>
      <trkpt lat="45.884890761226416" lon="7.636457104235888">
        <ele>1805.01</ele>
        <time>2014-02-09T09:45:15Z</time>
      </trkpt>
      <trkpt lat="45.884973322972655" lon="7.636483339592814">
        <ele>1807.4200000000001</ele>
        <time>2014-02-09T09:45:30Z</time>
      </trkpt>
      <trkpt lat="45.884987320750952" lon="7.636504210531712">
        <ele>1806.9400000000001</ele>
        <time>2014-02-09T09:45:45Z</time>
      </trkpt>
      <trkpt lat="45.884989248588681" lon="7.636513011530042">
        <ele>1807.9000000000001</ele>
        <time>2014-02-09T09:46:04Z</time>
      </trkpt>
      <trkpt lat="45.884947590529919" lon="7.636486692354083">
        <ele>1807.4200000000001</ele>
        <time>2014-02-09T09:46:17Z</time>
      </trkpt>
      <trkpt lat="45.884962175041437" lon="7.636473197489977">
        <ele>1807.4200000000001</ele>
        <time>2014-02-09T09:46:33Z</time>
      </trkpt>
      <trkpt lat="45.884951697662473" lon="7.636468084529042">
        <ele>1807.9000000000001</ele>
        <time>2014-02-09T09:46:49Z</time>
      </trkpt>
      <trkpt lat="45.884971478953958" lon="7.636498175561428">
        <ele>1806.9400000000001</ele>
        <time>2014-02-09T09:47:05Z</time>
      </trkpt>
      <trkpt lat="45.88498380035162" lon="7.636513011530042">
        <ele>1807.4200000000001</ele>
        <time>2014-02-09T09:47:20Z</time>
      </trkpt>
      <trkpt lat="45.884980196133256" lon="7.636534972116351">
        <ele>1806.9400000000001</ele>
        <time>2014-02-09T09:47:41Z</time>
      </trkpt>
      <trkpt lat="45.884977346286178" lon="7.636514604091644">
        <ele>1807.4200000000001</ele>
        <time>2014-02-09T09:48:07Z</time>
      </trkpt>
      <trkpt lat="45.884984051808715" lon="7.636507479473949">
        <ele>1806.9400000000001</ele>
        <time>2014-02-09T09:48:29Z</time>
      </trkpt>
      <trkpt lat="45.885158814489841" lon="7.636561878025532">
        <ele>1808.3800000000001</ele>
        <time>2014-02-09T09:48:44Z</time>
      </trkpt>
      <trkpt lat="45.885270796716213" lon="7.636606888845563">
        <ele>1809.8199999999999</ele>
        <time>2014-02-09T09:48:59Z</time>
      </trkpt>
      <trkpt lat="45.8852628339082" lon="7.636647038161755">
        <ele>1810.78</ele>
        <time>2014-02-09T09:49:13Z</time>
      </trkpt>
      <trkpt lat="45.885335505008698" lon="7.636665143072605">
        <ele>1811.74</ele>
        <time>2014-02-09T09:49:30Z</time>
      </trkpt>
      <trkpt lat="45.885449415072799" lon="7.636689366772771">
        <ele>1813.6600000000001</ele>
        <time>2014-02-09T09:49:46Z</time>
      </trkpt>
      <trkpt lat="45.885520242154598" lon="7.636800175532699">
        <ele>1815.1099999999999</ele>
        <time>2014-02-09T09:49:59Z</time>
      </trkpt>
      <trkpt lat="45.885583274066448" lon="7.636912744492292">
        <ele>1817.51</ele>
        <time>2014-02-09T09:50:14Z</time>
      </trkpt>
      <trkpt lat="45.885657453909516" lon="7.637039562687278">
        <ele>1820.3900000000001</ele>
        <time>2014-02-09T09:50:29Z</time>
      </trkpt>
      <trkpt lat="45.885650748386979" lon="7.637211224064231">
        <ele>1823.28</ele>
        <time>2014-02-09T09:50:45Z</time>
      </trkpt>
      <trkpt lat="45.885634822770953" lon="7.637355644255877">
        <ele>1825.6800000000001</ele>
        <time>2014-02-09T09:51:04Z</time>
      </trkpt>
      <trkpt lat="45.885642534121871" lon="7.637499393895268">
        <ele>1828.5599999999999</ele>
        <time>2014-02-09T09:51:19Z</time>
      </trkpt>
      <trkpt lat="45.88565519079566" lon="7.637675078585744">
        <ele>1830.97</ele>
        <time>2014-02-09T09:51:38Z</time>
      </trkpt>
      <trkpt lat="45.885610431432724" lon="7.637860653921962">
        <ele>1833.8499999999999</ele>
        <time>2014-02-09T09:51:56Z</time>
      </trkpt>
      <trkpt lat="45.885533234104514" lon="7.638030303642154">
        <ele>1835.77</ele>
        <time>2014-02-09T09:52:15Z</time>
      </trkpt>
      <trkpt lat="45.885534659028053" lon="7.638041283935309">
        <ele>1836.26</ele>
        <time>2014-02-09T09:52:16Z</time>
      </trkpt>
      <trkpt lat="45.88554966263473" lon="7.638203138485551">
        <ele>1837.22</ele>
        <time>2014-02-09T09:52:33Z</time>
      </trkpt>
      <trkpt lat="45.885530048981309" lon="7.638280000537634">
        <ele>1838.1800000000001</ele>
        <time>2014-02-09T09:52:47Z</time>
      </trkpt>
      <trkpt lat="45.885542035102844" lon="7.638231553137302">
        <ele>1838.1800000000001</ele>
        <time>2014-02-09T09:53:06Z</time>
      </trkpt>
      <trkpt lat="45.885563660413027" lon="7.63842836022377">
        <ele>1839.6199999999999</ele>
        <time>2014-02-09T09:53:19Z</time>
      </trkpt>
      <trkpt lat="45.88558042421937" lon="7.638609493151307">
        <ele>1840.5799999999999</ele>
        <time>2014-02-09T09:53:34Z</time>
      </trkpt>
      <trkpt lat="45.885612443089485" lon="7.63878408819437">
        <ele>1842.5</ele>
        <time>2014-02-09T09:53:50Z</time>
      </trkpt>
      <trkpt lat="45.88569181971252" lon="7.638875618577004">
        <ele>1844.4300000000001</ele>
        <time>2014-02-09T09:54:04Z</time>
      </trkpt>
      <trkpt lat="45.885814866051078" lon="7.638929765671492">
        <ele>1845.8699999999999</ele>
        <time>2014-02-09T09:54:20Z</time>
      </trkpt>
      <trkpt lat="45.885936990380287" lon="7.638957845047116">
        <ele>1846.8299999999999</ele>
        <time>2014-02-09T09:54:36Z</time>
      </trkpt>
      <trkpt lat="45.886039584875107" lon="7.638939740136266">
        <ele>1848.27</ele>
        <time>2014-02-09T09:54:52Z</time>
      </trkpt>
      <trkpt lat="45.88610814884305" lon="7.638881485909224">
        <ele>1849.71</ele>
        <time>2014-02-09T09:55:05Z</time>
      </trkpt>
      <trkpt lat="45.886172018945217" lon="7.638765145093203">
        <ele>1851.6400000000001</ele>
        <time>2014-02-09T09:55:19Z</time>
      </trkpt>
      <trkpt lat="45.886269500479102" lon="7.638750644400716">
        <ele>1853.5599999999999</ele>
        <time>2014-02-09T09:55:35Z</time>
      </trkpt>
      <trkpt lat="45.886333622038364" lon="7.638882743194699">
        <ele>1856.9200000000001</ele>
        <time>2014-02-09T09:55:49Z</time>
      </trkpt>
      <trkpt lat="45.886403443291783" lon="7.638978296890855">
        <ele>1859.3299999999999</ele>
        <time>2014-02-09T09:56:05Z</time>
      </trkpt>
      <trkpt lat="45.886497907340527" lon="7.638966729864478">
        <ele>1860.77</ele>
        <time>2014-02-09T09:56:21Z</time>
      </trkpt>
      <trkpt lat="45.886601256206632" lon="7.638916186988354">
        <ele>1862.6900000000001</ele>
        <time>2014-02-09T09:56:35Z</time>
      </trkpt>
      <trkpt lat="45.886717010289431" lon="7.638931274414063">
        <ele>1863.6500000000001</ele>
        <time>2014-02-09T09:56:49Z</time>
      </trkpt>
      <trkpt lat="45.886832848191261" lon="7.638938566669822">
        <ele>1865.0899999999999</ele>
        <time>2014-02-09T09:57:04Z</time>
      </trkpt>
      <trkpt lat="45.886946674436331" lon="7.638912247493863">
        <ele>1867.02</ele>
        <time>2014-02-09T09:57:20Z</time>
      </trkpt>
      <trkpt lat="45.88697450235486" lon="7.638893136754632">
        <ele>1866.54</ele>
        <time>2014-02-09T09:57:37Z</time>
      </trkpt>
      <trkpt lat="45.887022782117128" lon="7.638883329927921">
        <ele>1867.02</ele>
        <time>2014-02-09T09:57:56Z</time>
      </trkpt>
      <trkpt lat="45.886997636407614" lon="7.639015931636095">
        <ele>1868.46</ele>
        <time>2014-02-09T09:58:08Z</time>
      </trkpt>
      <trkpt lat="45.886954972520471" lon="7.639081394299865">
        <ele>1868.9400000000001</ele>
        <time>2014-02-09T09:58:26Z</time>
      </trkpt>
      <trkpt lat="45.886889174580574" lon="7.639176780357957">
        <ele>1871.3399999999999</ele>
        <time>2014-02-09T09:58:41Z</time>
      </trkpt>
      <trkpt lat="45.886893114075065" lon="7.639228412881494">
        <ele>1872.79</ele>
        <time>2014-02-09T09:59:01Z</time>
      </trkpt>
      <trkpt lat="45.886845672503114" lon="7.639323463663459">
        <ele>1874.71</ele>
        <time>2014-02-09T09:59:14Z</time>
      </trkpt>
      <trkpt lat="45.886814994737506" lon="7.639374677091837">
        <ele>1876.1500000000001</ele>
        <time>2014-02-09T09:59:28Z</time>
      </trkpt>
      <trkpt lat="45.886769061908126" lon="7.63942806981504">
        <ele>1878.0699999999999</ele>
        <time>2014-02-09T09:59:43Z</time>
      </trkpt>
      <trkpt lat="45.886734696105123" lon="7.639533430337906">
        <ele>1880</ele>
        <time>2014-02-09T10:00:01Z</time>
      </trkpt>
      <trkpt lat="45.886689685285091" lon="7.639618339017034">
        <ele>1882.4000000000001</ele>
        <time>2014-02-09T10:00:17Z</time>
      </trkpt>
      <trkpt lat="45.886631179600954" lon="7.639734009280801">
        <ele>1885.28</ele>
        <time>2014-02-09T10:00:35Z</time>
      </trkpt>
      <trkpt lat="45.886692954227328" lon="7.639769548550248">
        <ele>1887.21</ele>
        <time>2014-02-09T10:00:50Z</time>
      </trkpt>
      <trkpt lat="45.886750873178244" lon="7.639711294323206">
        <ele>1889.1300000000001</ele>
        <time>2014-02-09T10:01:05Z</time>
      </trkpt>
      <trkpt lat="45.886840224266052" lon="7.63968656770885">
        <ele>1891.05</ele>
        <time>2014-02-09T10:01:20Z</time>
      </trkpt>
      <trkpt lat="45.886855060234666" lon="7.639760412275791">
        <ele>1892.97</ele>
        <time>2014-02-09T10:01:35Z</time>
      </trkpt>
      <trkpt lat="45.886837374418974" lon="7.639788826927543">
        <ele>1893.9300000000001</ele>
        <time>2014-02-09T10:01:52Z</time>
      </trkpt>
      <trkpt lat="45.886777695268393" lon="7.639898965135217">
        <ele>1895.8599999999999</ele>
        <time>2014-02-09T10:02:07Z</time>
      </trkpt>
      <trkpt lat="45.886758165434003" lon="7.639918914064765">
        <ele>1896.8199999999999</ele>
        <time>2014-02-09T10:02:11Z</time>
      </trkpt>
      <trkpt lat="45.886679794639349" lon="7.640007510781288">
        <ele>1898.74</ele>
        <time>2014-02-09T10:02:26Z</time>
      </trkpt>
      <trkpt lat="45.886622294783592" lon="7.64010482467711">
        <ele>1901.6300000000001</ele>
        <time>2014-02-09T10:02:43Z</time>
      </trkpt>
      <trkpt lat="45.886547695845366" lon="7.640149667859078">
        <ele>1904.03</ele>
        <time>2014-02-09T10:02:58Z</time>
      </trkpt>
      <trkpt lat="45.886532021686435" lon="7.64022359624505">
        <ele>1906.4300000000001</ele>
        <time>2014-02-09T10:03:15Z</time>
      </trkpt>
      <trkpt lat="45.886554485186934" lon="7.640321245416999">
        <ele>1907.8699999999999</ele>
        <time>2014-02-09T10:03:35Z</time>
      </trkpt>
      <trkpt lat="45.886552641168237" lon="7.640420151874423">
        <ele>1909.8</ele>
        <time>2014-02-09T10:03:50Z</time>
      </trkpt>
      <trkpt lat="45.886559681966901" lon="7.640392743051052">
        <ele>1908.8299999999999</ele>
        <time>2014-02-09T10:04:02Z</time>
      </trkpt>
      <trkpt lat="45.886549791321158" lon="7.640346307307482">
        <ele>1909.8</ele>
        <time>2014-02-09T10:04:31Z</time>
      </trkpt>
      <trkpt lat="45.886548785492778" lon="7.640395676717162">
        <ele>1909.8</ele>
        <time>2014-02-09T10:04:47Z</time>
      </trkpt>
      <trkpt lat="45.886543421074748" lon="7.640412859618664">
        <ele>1910.28</ele>
        <time>2014-02-09T10:05:05Z</time>
      </trkpt>
      <trkpt lat="45.886551300063729" lon="7.640413530170918">
        <ele>1910.76</ele>
        <time>2014-02-09T10:05:30Z</time>
      </trkpt>
      <trkpt lat="45.886557502672076" lon="7.640419313684106">
        <ele>1910.28</ele>
        <time>2014-02-09T10:05:53Z</time>
      </trkpt>
      <trkpt lat="45.886560017243028" lon="7.640434484928846">
        <ele>1911.24</ele>
        <time>2014-02-09T10:06:08Z</time>
      </trkpt>
      <trkpt lat="45.886568147689104" lon="7.640447476878762">
        <ele>1910.76</ele>
        <time>2014-02-09T10:06:33Z</time>
      </trkpt>
      <trkpt lat="45.88656404055655" lon="7.640462312847376">
        <ele>1910.76</ele>
        <time>2014-02-09T10:06:52Z</time>
      </trkpt>
      <trkpt lat="45.886578792706132" lon="7.640596842393279">
        <ele>1913.1600000000001</ele>
        <time>2014-02-09T10:07:08Z</time>
      </trkpt>
      <trkpt lat="45.886614164337516" lon="7.640536325052381">
        <ele>1915.0799999999999</ele>
        <time>2014-02-09T10:07:18Z</time>
      </trkpt>
      <trkpt lat="45.886680549010634" lon="7.640480920672417">
        <ele>1916.53</ele>
        <time>2014-02-09T10:07:30Z</time>
      </trkpt>
      <trkpt lat="45.886741066351533" lon="7.640444627031684">
        <ele>1918.45</ele>
        <time>2014-02-09T10:07:43Z</time>
      </trkpt>
      <trkpt lat="45.886719189584255" lon="7.640582006424666">
        <ele>1919.8900000000001</ele>
        <time>2014-02-09T10:07:56Z</time>
      </trkpt>
      <trkpt lat="45.886702509596944" lon="7.640701616182923">
        <ele>1922.29</ele>
        <time>2014-02-09T10:08:11Z</time>
      </trkpt>
      <trkpt lat="45.886647189036012" lon="7.640814352780581">
        <ele>1924.22</ele>
        <time>2014-02-09T10:08:25Z</time>
      </trkpt>
      <trkpt lat="45.886671245098114" lon="7.64091057702899">
        <ele>1926.6199999999999</ele>
        <time>2014-02-09T10:08:38Z</time>
      </trkpt>
      <trkpt lat="45.886716842651367" lon="7.640957348048687">
        <ele>1926.6199999999999</ele>
        <time>2014-02-09T10:08:54Z</time>
      </trkpt>
      <trkpt lat="45.886760344728827" lon="7.641063295304775">
        <ele>1929.02</ele>
        <time>2014-02-09T10:09:09Z</time>
      </trkpt>
      <trkpt lat="45.886801835149527" lon="7.641188018023968">
        <ele>1931.4300000000001</ele>
        <time>2014-02-09T10:09:27Z</time>
      </trkpt>
      <trkpt lat="45.886814156547189" lon="7.641318021342158">
        <ele>1934.3099999999999</ele>
        <time>2014-02-09T10:09:42Z</time>
      </trkpt>
      <trkpt lat="45.886800158768892" lon="7.641433607786894">
        <ele>1936.71</ele>
        <time>2014-02-09T10:10:00Z</time>
      </trkpt>
      <trkpt lat="45.886812815442681" lon="7.641544500365853">
        <ele>1939.5999999999999</ele>
        <time>2014-02-09T10:10:15Z</time>
      </trkpt>
      <trkpt lat="45.886839050799608" lon="7.641641311347485">
        <ele>1941.52</ele>
        <time>2014-02-09T10:10:30Z</time>
      </trkpt>
      <trkpt lat="45.886859335005283" lon="7.641756311058998">
        <ele>1943.4400000000001</ele>
        <time>2014-02-09T10:10:44Z</time>
      </trkpt>
      <trkpt lat="45.886892359703779" lon="7.641822025179863">
        <ele>1945.3599999999999</ele>
        <time>2014-02-09T10:11:00Z</time>
      </trkpt>
      <trkpt lat="45.886922450736165" lon="7.641882291063666">
        <ele>1945.8499999999999</ele>
        <time>2014-02-09T10:11:13Z</time>
      </trkpt>
      <trkpt lat="45.886947680264711" lon="7.641960242763162">
        <ele>1946.3299999999999</ele>
        <time>2014-02-09T10:11:30Z</time>
      </trkpt>
      <trkpt lat="45.886949608102441" lon="7.641995027661324">
        <ele>1946.8099999999999</ele>
        <time>2014-02-09T10:11:33Z</time>
      </trkpt>
      <trkpt lat="45.886983470991254" lon="7.642154535278678">
        <ele>1947.77</ele>
        <time>2014-02-09T10:11:50Z</time>
      </trkpt>
      <trkpt lat="45.886994451284409" lon="7.642161743715406">
        <ele>1950.1700000000001</ele>
        <time>2014-02-09T10:12:04Z</time>
      </trkpt>
      <trkpt lat="45.886973831802607" lon="7.642149087041616">
        <ele>1949.6900000000001</ele>
        <time>2014-02-09T10:12:25Z</time>
      </trkpt>
      <trkpt lat="45.887008784338832" lon="7.642131065949798">
        <ele>1949.6900000000001</ele>
        <time>2014-02-09T10:12:42Z</time>
      </trkpt>
      <trkpt lat="45.887010125443339" lon="7.642113212496042">
        <ele>1950.1700000000001</ele>
        <time>2014-02-09T10:12:56Z</time>
      </trkpt>
      <trkpt lat="45.887031499296427" lon="7.642116481438279">
        <ele>1950.6500000000001</ele>
        <time>2014-02-09T10:13:14Z</time>
      </trkpt>
      <trkpt lat="45.887013729661703" lon="7.642124947160482">
        <ele>1950.6500000000001</ele>
        <time>2014-02-09T10:13:36Z</time>
      </trkpt>
      <trkpt lat="45.887012556195259" lon="7.64202956110239">
        <ele>1951.6099999999999</ele>
        <time>2014-02-09T10:13:47Z</time>
      </trkpt>
      <trkpt lat="45.887027475982904" lon="7.641905089840293">
        <ele>1953.54</ele>
        <time>2014-02-09T10:14:00Z</time>
      </trkpt>
      <trkpt lat="45.887022698298097" lon="7.641812302172184">
        <ele>1955.9400000000001</ele>
        <time>2014-02-09T10:14:10Z</time>
      </trkpt>
      <trkpt lat="45.887012220919132" lon="7.641753796488047">
        <ele>1955.9400000000001</ele>
        <time>2014-02-09T10:14:15Z</time>
      </trkpt>
      <trkpt lat="45.887055555358529" lon="7.641609963029623">
        <ele>1957.3800000000001</ele>
        <time>2014-02-09T10:14:29Z</time>
      </trkpt>
      <trkpt lat="45.887086233124137" lon="7.641546595841646">
        <ele>1958.3399999999999</ele>
        <time>2014-02-09T10:14:42Z</time>
      </trkpt>
      <trkpt lat="45.887138368561864" lon="7.641411144286394">
        <ele>1960.27</ele>
        <time>2014-02-09T10:14:58Z</time>
      </trkpt>
      <trkpt lat="45.887166615575552" lon="7.641253313049674">
        <ele>1961.71</ele>
        <time>2014-02-09T10:15:14Z</time>
      </trkpt>
      <trkpt lat="45.887194778770208" lon="7.641117610037327">
        <ele>1963.1500000000001</ele>
        <time>2014-02-09T10:15:28Z</time>
      </trkpt>
      <trkpt lat="45.88723786175251" lon="7.641121214255691">
        <ele>1964.1099999999999</ele>
        <time>2014-02-09T10:15:41Z</time>
      </trkpt>
      <trkpt lat="45.887246746569872" lon="7.641195980831981">
        <ele>1964.5899999999999</ele>
        <time>2014-02-09T10:16:08Z</time>
      </trkpt>
      <trkpt lat="45.887288823723793" lon="7.641314249485731">
        <ele>1967.48</ele>
        <time>2014-02-09T10:16:22Z</time>
      </trkpt>
      <trkpt lat="45.887310449033976" lon="7.641458082944155">
        <ele>1970.3599999999999</ele>
        <time>2014-02-09T10:16:38Z</time>
      </trkpt>
      <trkpt lat="45.887334086000919" lon="7.641538213938475">
        <ele>1971.3199999999999</ele>
        <time>2014-02-09T10:16:51Z</time>
      </trkpt>
      <trkpt lat="45.887375827878714" lon="7.641637371852994">
        <ele>1973.24</ele>
        <time>2014-02-09T10:17:04Z</time>
      </trkpt>
      <trkpt lat="45.887418491765857" lon="7.641747426241636">
        <ele>1976.1300000000001</ele>
        <time>2014-02-09T10:17:19Z</time>
      </trkpt>
      <trkpt lat="45.887444978579879" lon="7.641876172274351">
        <ele>1978.05</ele>
        <time>2014-02-09T10:17:35Z</time>
      </trkpt>
      <trkpt lat="45.887490157037973" lon="7.64198605902493">
        <ele>1979.97</ele>
        <time>2014-02-09T10:17:49Z</time>
      </trkpt>
      <trkpt lat="45.887526953592896" lon="7.642112039029598">
        <ele>1982.8599999999999</ele>
        <time>2014-02-09T10:18:07Z</time>
      </trkpt>
      <trkpt lat="45.887570288032293" lon="7.642233744263649">
        <ele>1985.74</ele>
        <time>2014-02-09T10:18:24Z</time>
      </trkpt>
      <trkpt lat="45.887593924999237" lon="7.642219243571162">
        <ele>1986.7</ele>
        <time>2014-02-09T10:18:38Z</time>
      </trkpt>
      <trkpt lat="45.887604570016265" lon="7.642123606055975">
        <ele>1988.6199999999999</ele>
        <time>2014-02-09T10:18:54Z</time>
      </trkpt>
      <trkpt lat="45.887607671320438" lon="7.642013970762491">
        <ele>1989.5899999999999</ele>
        <time>2014-02-09T10:19:10Z</time>
      </trkpt>
      <trkpt lat="45.887634074315429" lon="7.642020508646965">
        <ele>1990.0699999999999</ele>
        <time>2014-02-09T10:19:30Z</time>
      </trkpt>
      <trkpt lat="45.887633990496397" lon="7.641975665464997">
        <ele>1991.03</ele>
        <time>2014-02-09T10:19:42Z</time>
      </trkpt>
      <trkpt lat="45.887657292187214" lon="7.641851026564837">
        <ele>1993.9100000000001</ele>
        <time>2014-02-09T10:19:56Z</time>
      </trkpt>
      <trkpt lat="45.887691238895059" lon="7.641737703233957">
        <ele>1996.3199999999999</ele>
        <time>2014-02-09T10:20:11Z</time>
      </trkpt>
      <trkpt lat="45.887715965509415" lon="7.641748934984207">
        <ele>1996.3199999999999</ele>
        <time>2014-02-09T10:20:27Z</time>
      </trkpt>
      <trkpt lat="45.887712277472019" lon="7.641723789274693">
        <ele>1996.3199999999999</ele>
        <time>2014-02-09T10:20:43Z</time>
      </trkpt>
      <trkpt lat="45.887708505615592" lon="7.641749521717429">
        <ele>1996.3199999999999</ele>
        <time>2014-02-09T10:21:00Z</time>
      </trkpt>
      <trkpt lat="45.887706326320767" lon="7.641757987439632">
        <ele>1996.3199999999999</ele>
        <time>2014-02-09T10:21:19Z</time>
      </trkpt>
      <trkpt lat="45.887711187824607" lon="7.64177449978888">
        <ele>1995.8299999999999</ele>
        <time>2014-02-09T10:21:41Z</time>
      </trkpt>
      <trkpt lat="45.88772552087903" lon="7.641790676862001">
        <ele>1995.8299999999999</ele>
        <time>2014-02-09T10:21:56Z</time>
      </trkpt>
      <trkpt lat="45.887718982994556" lon="7.641763519495726">
        <ele>1995.8299999999999</ele>
        <time>2014-02-09T10:22:21Z</time>
      </trkpt>
      <trkpt lat="45.887724850326777" lon="7.641751617193222">
        <ele>1994.8699999999999</ele>
        <time>2014-02-09T10:22:34Z</time>
      </trkpt>
      <trkpt lat="45.887699034065008" lon="7.641752203926444">
        <ele>1995.3499999999999</ele>
        <time>2014-02-09T10:23:05Z</time>
      </trkpt>
      <trkpt lat="45.887735495343804" lon="7.641739714890719">
        <ele>1995.8299999999999</ele>
        <time>2014-02-09T10:23:16Z</time>
      </trkpt>
      <trkpt lat="45.887710601091385" lon="7.641773410141468">
        <ele>1995.3499999999999</ele>
        <time>2014-02-09T10:23:35Z</time>
      </trkpt>
      <trkpt lat="45.887713534757495" lon="7.641751114279032">
        <ele>1995.3499999999999</ele>
        <time>2014-02-09T10:23:50Z</time>
      </trkpt>
      <trkpt lat="45.887726191431284" lon="7.641748264431953">
        <ele>1995.3499999999999</ele>
        <time>2014-02-09T10:24:16Z</time>
      </trkpt>
      <trkpt lat="45.887735160067677" lon="7.6417544670403">
        <ele>1995.3499999999999</ele>
        <time>2014-02-09T10:24:41Z</time>
      </trkpt>
      <trkpt lat="45.887732813134789" lon="7.641783636063337">
        <ele>1995.8299999999999</ele>
        <time>2014-02-09T10:25:01Z</time>
      </trkpt>
      <trkpt lat="45.887779165059328" lon="7.641864353790879">
        <ele>1998.24</ele>
        <time>2014-02-09T10:25:14Z</time>
      </trkpt>
      <trkpt lat="45.887808250263333" lon="7.641906263306737">
        <ele>2000.1600000000001</ele>
        <time>2014-02-09T10:25:26Z</time>
      </trkpt>
      <trkpt lat="45.887789474800229" lon="7.641887990757823">
        <ele>2000.6400000000001</ele>
        <time>2014-02-09T10:25:45Z</time>
      </trkpt>
      <trkpt lat="45.887777069583535" lon="7.64188639819622">
        <ele>2000.1600000000001</ele>
        <time>2014-02-09T10:26:02Z</time>
      </trkpt>
      <trkpt lat="45.887801377102733" lon="7.641870807856321">
        <ele>2000.1600000000001</ele>
        <time>2014-02-09T10:26:33Z</time>
      </trkpt>
      <trkpt lat="45.887791989371181" lon="7.641855888068676">
        <ele>2000.1600000000001</ele>
        <time>2014-02-09T10:26:52Z</time>
      </trkpt>
      <trkpt lat="45.887782769277692" lon="7.641849434003234">
        <ele>2000.6400000000001</ele>
        <time>2014-02-09T10:27:16Z</time>
      </trkpt>
      <trkpt lat="45.887784780934453" lon="7.641846081241965">
        <ele>2000.6400000000001</ele>
        <time>2014-02-09T10:27:38Z</time>
      </trkpt>
      <trkpt lat="45.887771034613252" lon="7.641837364062667">
        <ele>2000.6400000000001</ele>
        <time>2014-02-09T10:28:00Z</time>
      </trkpt>
      <trkpt lat="45.887784529477358" lon="7.64186636544764">
        <ele>2001.1199999999999</ele>
        <time>2014-02-09T10:28:26Z</time>
      </trkpt>
      <trkpt lat="45.88778855279088" lon="7.641861587762833">
        <ele>2001.1199999999999</ele>
        <time>2014-02-09T10:28:46Z</time>
      </trkpt>
      <trkpt lat="45.887780673801899" lon="7.64185999520123">
        <ele>2000.1600000000001</ele>
        <time>2014-02-09T10:29:03Z</time>
      </trkpt>
      <trkpt lat="45.887781931087375" lon="7.641852702945471">
        <ele>2000.6400000000001</ele>
        <time>2014-02-09T10:29:30Z</time>
      </trkpt>
      <trkpt lat="45.887801460921764" lon="7.641831496730447">
        <ele>2001.1199999999999</ele>
        <time>2014-02-09T10:29:49Z</time>
      </trkpt>
      <trkpt lat="45.887864492833614" lon="7.641867287456989">
        <ele>2003.04</ele>
        <time>2014-02-09T10:30:02Z</time>
      </trkpt>
      <trkpt lat="45.887949485331774" lon="7.641825210303068">
        <ele>2005.9300000000001</ele>
        <time>2014-02-09T10:30:16Z</time>
      </trkpt>
      <trkpt lat="45.887960968539119" lon="7.641817247495055">
        <ele>2006.4100000000001</ele>
        <time>2014-02-09T10:30:18Z</time>
      </trkpt>
      <trkpt lat="45.888020731508732" lon="7.641776259988546">
        <ele>2006.8900000000001</ele>
        <time>2014-02-09T10:30:26Z</time>
      </trkpt>
      <trkpt lat="45.888138245791197" lon="7.641757233068347">
        <ele>2009.77</ele>
        <time>2014-02-09T10:30:41Z</time>
      </trkpt>
      <trkpt lat="45.88822977617383" lon="7.641798555850983">
        <ele>2012.1800000000001</ele>
        <time>2014-02-09T10:30:56Z</time>
      </trkpt>
      <trkpt lat="45.888163475319743" lon="7.641940712928772">
        <ele>2015.0599999999999</ele>
        <time>2014-02-09T10:31:09Z</time>
      </trkpt>
      <trkpt lat="45.88814134709537" lon="7.642060574144125">
        <ele>2016.98</ele>
        <time>2014-02-09T10:31:25Z</time>
      </trkpt>
      <trkpt lat="45.888143191114068" lon="7.642224943265319">
        <ele>2018.4300000000001</ele>
        <time>2014-02-09T10:31:40Z</time>
      </trkpt>
      <trkpt lat="45.888195997104049" lon="7.642363244667649">
        <ele>2019.8699999999999</ele>
        <time>2014-02-09T10:31:55Z</time>
      </trkpt>
      <trkpt lat="45.888240588828921" lon="7.642465839162469">
        <ele>2022.27</ele>
        <time>2014-02-09T10:32:09Z</time>
      </trkpt>
      <trkpt lat="45.888279732316732" lon="7.642574636265636">
        <ele>2023.23</ele>
        <time>2014-02-09T10:32:21Z</time>
      </trkpt>
      <trkpt lat="45.888323988765478" lon="7.6426818408072">
        <ele>2024.6700000000001</ele>
        <time>2014-02-09T10:32:34Z</time>
      </trkpt>
      <trkpt lat="45.888341255486012" lon="7.642733557149768">
        <ele>2025.1500000000001</ele>
        <time>2014-02-09T10:32:40Z</time>
      </trkpt>
      <trkpt lat="45.888354582712054" lon="7.642771443352103">
        <ele>2026.1199999999999</ele>
        <time>2014-02-09T10:32:44Z</time>
      </trkpt>
      <trkpt lat="45.888397162780166" lon="7.642890131101012">
        <ele>2027.5599999999999</ele>
        <time>2014-02-09T10:32:57Z</time>
      </trkpt>
      <trkpt lat="45.888447370380163" lon="7.643038155511022">
        <ele>2029.48</ele>
        <time>2014-02-09T10:33:14Z</time>
      </trkpt>
      <trkpt lat="45.888498751446605" lon="7.643194729462266">
        <ele>2031.8800000000001</ele>
        <time>2014-02-09T10:33:31Z</time>
      </trkpt>
      <trkpt lat="45.888541582971811" lon="7.643340826034546">
        <ele>2033.8099999999999</ele>
        <time>2014-02-09T10:33:45Z</time>
      </trkpt>
      <trkpt lat="45.888592628762126" lon="7.643502010032535">
        <ele>2035.25</ele>
        <time>2014-02-09T10:34:00Z</time>
      </trkpt>
      <trkpt lat="45.888624228537083" lon="7.643597479909658">
        <ele>2037.1700000000001</ele>
        <time>2014-02-09T10:34:12Z</time>
      </trkpt>
      <trkpt lat="45.888623390346766" lon="7.643701583147049">
        <ele>2039.0899999999999</ele>
        <time>2014-02-09T10:34:26Z</time>
      </trkpt>
      <trkpt lat="45.88862456381321" lon="7.643839297816157">
        <ele>2041.98</ele>
        <time>2014-02-09T10:34:43Z</time>
      </trkpt>
      <trkpt lat="45.888644009828568" lon="7.64378129504621">
        <ele>2042.9400000000001</ele>
        <time>2014-02-09T10:35:00Z</time>
      </trkpt>
      <trkpt lat="45.888626910746098" lon="7.643838711082935">
        <ele>2042.46</ele>
        <time>2014-02-09T10:35:09Z</time>
      </trkpt>
      <trkpt lat="45.888616014271975" lon="7.643880536779761">
        <ele>2042.46</ele>
        <time>2014-02-09T10:35:24Z</time>
      </trkpt>
      <trkpt lat="45.888632526621222" lon="7.643817504867911">
        <ele>2042.9400000000001</ele>
        <time>2014-02-09T10:35:45Z</time>
      </trkpt>
      <trkpt lat="45.888644345104694" lon="7.643788922578096">
        <ele>2043.4200000000001</ele>
        <time>2014-02-09T10:35:59Z</time>
      </trkpt>
      <trkpt lat="45.888652978464961" lon="7.643777104094625">
        <ele>2042.46</ele>
        <time>2014-02-09T10:36:12Z</time>
      </trkpt>
      <trkpt lat="45.888655660673976" lon="7.643790934234858">
        <ele>2042.46</ele>
        <time>2014-02-09T10:36:35Z</time>
      </trkpt>
      <trkpt lat="45.88864023797214" lon="7.643791772425175">
        <ele>2042.9400000000001</ele>
        <time>2014-02-09T10:36:49Z</time>
      </trkpt>
      <trkpt lat="45.888643674552441" lon="7.643785569816828">
        <ele>2042.9400000000001</ele>
        <time>2014-02-09T10:37:06Z</time>
      </trkpt>
      <trkpt lat="45.888650044798851" lon="7.643765285611153">
        <ele>2043.4200000000001</ele>
        <time>2014-02-09T10:37:25Z</time>
      </trkpt>
      <trkpt lat="45.888641579076648" lon="7.643735529854894">
        <ele>2042.9400000000001</ele>
        <time>2014-02-09T10:37:46Z</time>
      </trkpt>
      <trkpt lat="45.888654990121722" lon="7.643733769655228">
        <ele>2042.9400000000001</ele>
        <time>2014-02-09T10:37:59Z</time>
      </trkpt>
      <trkpt lat="45.888649793341756" lon="7.643738798797131">
        <ele>2042.9400000000001</ele>
        <time>2014-02-09T10:38:17Z</time>
      </trkpt>
      <trkpt lat="45.888664713129401" lon="7.64370602555573">
        <ele>2043.4200000000001</ele>
        <time>2014-02-09T10:38:34Z</time>
      </trkpt>
      <trkpt lat="45.888690194115043" lon="7.643618350848556">
        <ele>2043.4200000000001</ele>
        <time>2014-02-09T10:38:42Z</time>
      </trkpt>
      <trkpt lat="45.888709304854274" lon="7.643438642844558">
        <ele>2044.8599999999999</ele>
        <time>2014-02-09T10:38:58Z</time>
      </trkpt>
      <trkpt lat="45.888745514675975" lon="7.64325943775475">
        <ele>2047.75</ele>
        <time>2014-02-09T10:39:15Z</time>
      </trkpt>
      <trkpt lat="45.888796979561448" lon="7.643077215179801">
        <ele>2050.6300000000001</ele>
        <time>2014-02-09T10:39:31Z</time>
      </trkpt>
      <trkpt lat="45.888865124434233" lon="7.642923658713698">
        <ele>2053.9899999999998</ele>
        <time>2014-02-09T10:39:47Z</time>
      </trkpt>
      <trkpt lat="45.888937376439571" lon="7.642891723662615">
        <ele>2056.4000000000001</ele>
        <time>2014-02-09T10:40:01Z</time>
      </trkpt>
      <trkpt lat="45.889005437493324" lon="7.642898932099342">
        <ele>2057.8400000000001</ele>
        <time>2014-02-09T10:40:12Z</time>
      </trkpt>
      <trkpt lat="45.889065368101001" lon="7.642979566007853">
        <ele>2060.7199999999998</ele>
        <time>2014-02-09T10:40:26Z</time>
      </trkpt>
      <trkpt lat="45.889061512425542" lon="7.643163381144404">
        <ele>2063.6100000000001</ele>
        <time>2014-02-09T10:40:44Z</time>
      </trkpt>
      <trkpt lat="45.889096045866609" lon="7.64326823875308">
        <ele>2066.4899999999998</ele>
        <time>2014-02-09T10:40:59Z</time>
      </trkpt>
      <trkpt lat="45.889166202396154" lon="7.643416430801153">
        <ele>2068.4099999999999</ele>
        <time>2014-02-09T10:41:14Z</time>
      </trkpt>
      <trkpt lat="45.889189168810844" lon="7.643460184335709">
        <ele>2069.3800000000001</ele>
        <time>2014-02-09T10:41:19Z</time>
      </trkpt>
      <trkpt lat="45.889226635918021" lon="7.643642658367753">
        <ele>2072.2600000000002</ele>
        <time>2014-02-09T10:41:35Z</time>
      </trkpt>
      <trkpt lat="45.889213727787137" lon="7.643894199281931">
        <ele>2074.6599999999999</ele>
        <time>2014-02-09T10:41:54Z</time>
      </trkpt>
      <trkpt lat="45.889159496873617" lon="7.644072063267231">
        <ele>2076.0999999999999</ele>
        <time>2014-02-09T10:42:08Z</time>
      </trkpt>
      <trkpt lat="45.889081796631217" lon="7.644269205629826">
        <ele>2078.5100000000002</ele>
        <time>2014-02-09T10:42:26Z</time>
      </trkpt>
      <trkpt lat="45.889070564880967" lon="7.644328968599439">
        <ele>2078.9899999999998</ele>
        <time>2014-02-09T10:42:31Z</time>
      </trkpt>
      <trkpt lat="45.889015579596162" lon="7.644522590562701">
        <ele>2079.9499999999998</ele>
        <time>2014-02-09T10:42:46Z</time>
      </trkpt>
      <trkpt lat="45.889002420008183" lon="7.644545054063201">
        <ele>2080.4299999999998</ele>
        <time>2014-02-09T10:42:59Z</time>
      </trkpt>
      <trkpt lat="45.889008119702339" lon="7.644540276378393">
        <ele>2079.9499999999998</ele>
        <time>2014-02-09T10:43:24Z</time>
      </trkpt>
      <trkpt lat="45.889006443321705" lon="7.644532984122634">
        <ele>2079.9499999999998</ele>
        <time>2014-02-09T10:43:47Z</time>
      </trkpt>
      <trkpt lat="45.888995043933392" lon="7.644544802606106">
        <ele>2079.4699999999998</ele>
        <time>2014-02-09T10:44:06Z</time>
      </trkpt>
      <trkpt lat="45.888994792476296" lon="7.644520746544004">
        <ele>2079.4699999999998</ele>
        <time>2014-02-09T10:44:34Z</time>
      </trkpt>
      <trkpt lat="45.889002000913024" lon="7.644515717402101">
        <ele>2079.4699999999998</ele>
        <time>2014-02-09T10:44:57Z</time>
      </trkpt>
      <trkpt lat="45.888994373381138" lon="7.644521417096257">
        <ele>2078.9899999999998</ele>
        <time>2014-02-09T10:45:18Z</time>
      </trkpt>
      <trkpt lat="45.888998061418533" lon="7.644530804827809">
        <ele>2078.9899999999998</ele>
        <time>2014-02-09T10:45:46Z</time>
      </trkpt>
      <trkpt lat="45.888997139409184" lon="7.644526530057192">
        <ele>2078.9899999999998</ele>
        <time>2014-02-09T10:46:08Z</time>
      </trkpt>
      <trkpt lat="45.888978028669953" lon="7.644587382674217">
        <ele>2079.4699999999998</ele>
        <time>2014-02-09T10:46:23Z</time>
      </trkpt>
      <trkpt lat="45.888903765007854" lon="7.64473264105618">
        <ele>2080.4299999999998</ele>
        <time>2014-02-09T10:46:39Z</time>
      </trkpt>
      <trkpt lat="45.88887132704258" lon="7.644767090678215">
        <ele>2080.4299999999998</ele>
        <time>2014-02-09T10:46:52Z</time>
      </trkpt>
      <trkpt lat="45.888787843286991" lon="7.644893238320947">
        <ele>2082.8299999999999</ele>
        <time>2014-02-09T10:47:08Z</time>
      </trkpt>
      <trkpt lat="45.888708801940084" lon="7.645026007667184">
        <ele>2084.7600000000002</ele>
        <time>2014-02-09T10:47:25Z</time>
      </trkpt>
      <trkpt lat="45.888629760593176" lon="7.645159615203738">
        <ele>2087.1599999999999</ele>
        <time>2014-02-09T10:47:41Z</time>
      </trkpt>
      <trkpt lat="45.888560526072979" lon="7.645287523046136">
        <ele>2089.0799999999999</ele>
        <time>2014-02-09T10:47:56Z</time>
      </trkpt>
      <trkpt lat="45.888481987640262" lon="7.645407468080521">
        <ele>2091</ele>
        <time>2014-02-09T10:48:09Z</time>
      </trkpt>
      <trkpt lat="45.888406466692686" lon="7.64552615582943">
        <ele>2093.4099999999999</ele>
        <time>2014-02-09T10:48:25Z</time>
      </trkpt>
      <trkpt lat="45.888334214687347" lon="7.645672000944614">
        <ele>2096.29</ele>
        <time>2014-02-09T10:48:42Z</time>
      </trkpt>
      <trkpt lat="45.888362042605877" lon="7.645838297903538">
        <ele>2098.6999999999998</ele>
        <time>2014-02-09T10:48:57Z</time>
      </trkpt>
      <trkpt lat="45.88843253441155" lon="7.645896216854453">
        <ele>2099.6599999999999</ele>
        <time>2014-02-09T10:49:08Z</time>
      </trkpt>
      <trkpt lat="45.888486513867974" lon="7.645895546302199">
        <ele>2100.6199999999999</ele>
        <time>2014-02-09T10:49:15Z</time>
      </trkpt>
      <trkpt lat="45.888594053685665" lon="7.645841399207711">
        <ele>2102.54</ele>
        <time>2014-02-09T10:49:30Z</time>
      </trkpt>
      <trkpt lat="45.888639483600855" lon="7.645808542147279">
        <ele>2103.98</ele>
        <time>2014-02-09T10:49:37Z</time>
      </trkpt>
      <trkpt lat="45.888742664828897" lon="7.645733440294862">
        <ele>2105.9099999999999</ele>
        <time>2014-02-09T10:49:53Z</time>
      </trkpt>
      <trkpt lat="45.888848025351763" lon="7.645656578242779">
        <ele>2107.8299999999999</ele>
        <time>2014-02-09T10:50:09Z</time>
      </trkpt>
      <trkpt lat="45.888904603198171" lon="7.645620619878173">
        <ele>2109.27</ele>
        <time>2014-02-09T10:50:17Z</time>
      </trkpt>
      <trkpt lat="45.889019602909684" lon="7.645539818331599">
        <ele>2111.1900000000001</ele>
        <time>2014-02-09T10:50:32Z</time>
      </trkpt>
      <trkpt lat="45.889126975089312" lon="7.645459352061153">
        <ele>2112.6300000000001</ele>
        <time>2014-02-09T10:50:47Z</time>
      </trkpt>
      <trkpt lat="45.889235017821193" lon="7.64536103233695">
        <ele>2114.0799999999999</ele>
        <time>2014-02-09T10:51:03Z</time>
      </trkpt>
      <trkpt lat="45.889326548203826" lon="7.645270172506571">
        <ele>2116.96</ele>
        <time>2014-02-09T10:51:17Z</time>
      </trkpt>
      <trkpt lat="45.889421682804823" lon="7.645185515284538">
        <ele>2118.4000000000001</ele>
        <time>2014-02-09T10:51:33Z</time>
      </trkpt>
      <trkpt lat="45.889428723603487" lon="7.645175457000732">
        <ele>2118.4000000000001</ele>
        <time>2014-02-09T10:51:51Z</time>
      </trkpt>
      <trkpt lat="45.889515057206154" lon="7.645094236359">
        <ele>2119.8400000000001</ele>
        <time>2014-02-09T10:52:05Z</time>
      </trkpt>
      <trkpt lat="45.889626536518335" lon="7.64497353695333">
        <ele>2121.77</ele>
        <time>2014-02-09T10:52:20Z</time>
      </trkpt>
      <trkpt lat="45.889674564823508" lon="7.644957108423114">
        <ele>2122.25</ele>
        <time>2014-02-09T10:52:26Z</time>
      </trkpt>
      <trkpt lat="45.889789564535022" lon="7.644896591082215">
        <ele>2123.6900000000001</ele>
        <time>2014-02-09T10:52:40Z</time>
      </trkpt>
      <trkpt lat="45.889931889250875" lon="7.644839845597744">
        <ele>2124.6500000000001</ele>
        <time>2014-02-09T10:52:56Z</time>
      </trkpt>
      <trkpt lat="45.890055019408464" lon="7.644753009080887">
        <ele>2125.6100000000001</ele>
        <time>2014-02-09T10:53:11Z</time>
      </trkpt>
      <trkpt lat="45.890160882845521" lon="7.64465007930994">
        <ele>2127.5300000000002</ele>
        <time>2014-02-09T10:53:26Z</time>
      </trkpt>
      <trkpt lat="45.890257023274899" lon="7.644586293026805">
        <ele>2129.46</ele>
        <time>2014-02-09T10:53:41Z</time>
      </trkpt>
      <trkpt lat="45.890327179804444" lon="7.64458411373198">
        <ele>2131.3800000000001</ele>
        <time>2014-02-09T10:53:58Z</time>
      </trkpt>
      <trkpt lat="45.890348553657532" lon="7.644559806212783">
        <ele>2131.8600000000001</ele>
        <time>2014-02-09T10:54:17Z</time>
      </trkpt>
      <trkpt lat="45.890417955815792" lon="7.644517477601767">
        <ele>2133.3000000000002</ele>
        <time>2014-02-09T10:54:33Z</time>
      </trkpt>
      <trkpt lat="45.890411920845509" lon="7.644526194781065">
        <ele>2132.8200000000002</ele>
        <time>2014-02-09T10:54:52Z</time>
      </trkpt>
      <trkpt lat="45.890490710735321" lon="7.644455954432488">
        <ele>2135.23</ele>
        <time>2014-02-09T10:55:04Z</time>
      </trkpt>
      <trkpt lat="45.890587270259857" lon="7.644399544224143">
        <ele>2138.1100000000001</ele>
        <time>2014-02-09T10:55:17Z</time>
      </trkpt>
      <trkpt lat="45.890677543357015" lon="7.64429971575737">
        <ele>2140.5100000000002</ele>
        <time>2014-02-09T10:55:32Z</time>
      </trkpt>
      <trkpt lat="45.890697240829468" lon="7.644247580319643">
        <ele>2141.9499999999998</ele>
        <time>2014-02-09T10:55:38Z</time>
      </trkpt>
      <trkpt lat="45.890776449814439" lon="7.644180944189429">
        <ele>2144.8400000000001</ele>
        <time>2014-02-09T10:55:53Z</time>
      </trkpt>
      <trkpt lat="45.890891700983047" lon="7.644205838441849">
        <ele>2146.7600000000002</ele>
        <time>2014-02-09T10:56:07Z</time>
      </trkpt>
      <trkpt lat="45.890971915796399" lon="7.644333243370056">
        <ele>2148.1999999999998</ele>
        <time>2014-02-09T10:56:21Z</time>
      </trkpt>
      <trkpt lat="45.890997564420104" lon="7.644471544772387">
        <ele>2150.1300000000001</ele>
        <time>2014-02-09T10:56:34Z</time>
      </trkpt>
      <trkpt lat="45.891017429530621" lon="7.644675560295582">
        <ele>2152.0500000000002</ele>
        <time>2014-02-09T10:56:52Z</time>
      </trkpt>
      <trkpt lat="45.891049448400736" lon="7.644848898053169">
        <ele>2153.9699999999998</ele>
        <time>2014-02-09T10:57:08Z</time>
      </trkpt>
      <trkpt lat="45.891090519726276" lon="7.644999520853162">
        <ele>2155.8899999999999</ele>
        <time>2014-02-09T10:57:24Z</time>
      </trkpt>
      <trkpt lat="45.891128992661834" lon="7.645164309069514">
        <ele>2159.2600000000002</ele>
        <time>2014-02-09T10:57:43Z</time>
      </trkpt>
      <trkpt lat="45.891108624637127" lon="7.645335299894214">
        <ele>2161.6599999999999</ele>
        <time>2014-02-09T10:58:00Z</time>
      </trkpt>
      <trkpt lat="45.891086664050817" lon="7.645433871075511">
        <ele>2164.5500000000002</ele>
        <time>2014-02-09T10:58:12Z</time>
      </trkpt>
      <trkpt lat="45.891060009598732" lon="7.645531184971333">
        <ele>2167.9099999999999</ele>
        <time>2014-02-09T10:58:26Z</time>
      </trkpt>
      <trkpt lat="45.891024135053158" lon="7.64566202647984">
        <ele>2170.79</ele>
        <time>2014-02-09T10:58:39Z</time>
      </trkpt>
      <trkpt lat="45.890995133668184" lon="7.645781971514225">
        <ele>2173.1999999999998</ele>
        <time>2014-02-09T10:58:54Z</time>
      </trkpt>
      <trkpt lat="45.890954229980707" lon="7.64591708779335">
        <ele>2175.1199999999999</ele>
        <time>2014-02-09T10:59:09Z</time>
      </trkpt>
      <trkpt lat="45.890917517244816" lon="7.646053293719888">
        <ele>2177.52</ele>
        <time>2014-02-09T10:59:24Z</time>
      </trkpt>
      <trkpt lat="45.89091818779707" lon="7.646059663966298">
        <ele>2178</ele>
        <time>2014-02-09T10:59:39Z</time>
      </trkpt>
      <trkpt lat="45.890919864177704" lon="7.646074332296848">
        <ele>2178</ele>
        <time>2014-02-09T10:59:56Z</time>
      </trkpt>
      <trkpt lat="45.890907039865851" lon="7.646064693108201">
        <ele>2177.52</ele>
        <time>2014-02-09T11:00:16Z</time>
      </trkpt>
      <trkpt lat="45.890918942168355" lon="7.646075421944261">
        <ele>2177.52</ele>
        <time>2014-02-09T11:00:38Z</time>
      </trkpt>
      <trkpt lat="45.890922378748655" lon="7.646075254306197">
        <ele>2177.04</ele>
        <time>2014-02-09T11:00:54Z</time>
      </trkpt>
      <trkpt lat="45.890913074836135" lon="7.6460837200284">
        <ele>2177.52</ele>
        <time>2014-02-09T11:01:13Z</time>
      </trkpt>
      <trkpt lat="45.890930509194732" lon="7.646079612895846">
        <ele>2177.52</ele>
        <time>2014-02-09T11:01:26Z</time>
      </trkpt>
      <trkpt lat="45.890918523073196" lon="7.646079109981656">
        <ele>2177.04</ele>
        <time>2014-02-09T11:01:45Z</time>
      </trkpt>
      <trkpt lat="45.890912655740976" lon="7.646090677008033">
        <ele>2177.52</ele>
        <time>2014-02-09T11:02:00Z</time>
      </trkpt>
      <trkpt lat="45.890904441475868" lon="7.646138286218047">
        <ele>2178</ele>
        <time>2014-02-09T11:02:15Z</time>
      </trkpt>
      <trkpt lat="45.890857586637139" lon="7.646238030865789">
        <ele>2179.9299999999998</ele>
        <time>2014-02-09T11:02:30Z</time>
      </trkpt>
      <trkpt lat="45.890806876122952" lon="7.646330818533897">
        <ele>2182.8099999999999</ele>
        <time>2014-02-09T11:02:44Z</time>
      </trkpt>
      <trkpt lat="45.890791201964021" lon="7.646355796605349">
        <ele>2183.77</ele>
        <time>2014-02-09T11:02:47Z</time>
      </trkpt>
      <trkpt lat="45.890721715986729" lon="7.646437101066113">
        <ele>2187.1399999999999</ele>
        <time>2014-02-09T11:03:01Z</time>
      </trkpt>
      <trkpt lat="45.890684751793742" lon="7.646558722481132">
        <ele>2189.54</ele>
        <time>2014-02-09T11:03:17Z</time>
      </trkpt>
      <trkpt lat="45.890634041279554" lon="7.646662155166268">
        <ele>2191.46</ele>
        <time>2014-02-09T11:03:31Z</time>
      </trkpt>
      <trkpt lat="45.890580648556352" lon="7.64677170664072">
        <ele>2193.3899999999999</ele>
        <time>2014-02-09T11:03:45Z</time>
      </trkpt>
      <trkpt lat="45.890540583059192" lon="7.646851083263755">
        <ele>2194.8299999999999</ele>
        <time>2014-02-09T11:03:54Z</time>
      </trkpt>
      <trkpt lat="45.890484172850847" lon="7.647000448778272">
        <ele>2197.23</ele>
        <time>2014-02-09T11:04:10Z</time>
      </trkpt>
      <trkpt lat="45.890446538105607" lon="7.647165236994624">
        <ele>2198.6700000000001</ele>
        <time>2014-02-09T11:04:25Z</time>
      </trkpt>
      <trkpt lat="45.890449555590749" lon="7.647325079888105">
        <ele>2201.0799999999999</ele>
        <time>2014-02-09T11:04:41Z</time>
      </trkpt>
      <trkpt lat="45.890473360195756" lon="7.647461201995611">
        <ele>2203.96</ele>
        <time>2014-02-09T11:04:56Z</time>
      </trkpt>
      <trkpt lat="45.89051803573966" lon="7.647558515891433">
        <ele>2206.3600000000001</ele>
        <time>2014-02-09T11:05:09Z</time>
      </trkpt>
      <trkpt lat="45.890572853386402" lon="7.647692542523146">
        <ele>2209.73</ele>
        <time>2014-02-09T11:05:26Z</time>
      </trkpt>
      <trkpt lat="45.890614343807101" lon="7.647791029885411">
        <ele>2213.0900000000001</ele>
        <time>2014-02-09T11:05:41Z</time>
      </trkpt>
      <trkpt lat="45.890639070421457" lon="7.647861354053021">
        <ele>2215.98</ele>
        <time>2014-02-09T11:05:54Z</time>
      </trkpt>
      <trkpt lat="45.89071199297905" lon="7.647895636036992">
        <ele>2217.4200000000001</ele>
        <time>2014-02-09T11:06:09Z</time>
      </trkpt>
      <trkpt lat="45.890732193365693" lon="7.647858504205942">
        <ele>2216.9400000000001</ele>
        <time>2014-02-09T11:06:12Z</time>
      </trkpt>
      <trkpt lat="45.890816347673535" lon="7.647721376270056">
        <ele>2216.9400000000001</ele>
        <time>2014-02-09T11:06:25Z</time>
      </trkpt>
      <trkpt lat="45.890816431492567" lon="7.647747611626983">
        <ele>2216.9400000000001</ele>
        <time>2014-02-09T11:06:48Z</time>
      </trkpt>
      <trkpt lat="45.890803355723619" lon="7.647774601355195">
        <ele>2216.9400000000001</ele>
        <time>2014-02-09T11:07:02Z</time>
      </trkpt>
      <trkpt lat="45.890797907486558" lon="7.647767141461372">
        <ele>2216.9400000000001</ele>
        <time>2014-02-09T11:07:18Z</time>
      </trkpt>
      <trkpt lat="45.890722386538982" lon="7.647840231657028">
        <ele>2216.9400000000001</ele>
        <time>2014-02-09T11:07:26Z</time>
      </trkpt>
      <trkpt lat="45.890698079019785" lon="7.648031255230308">
        <ele>2217.4200000000001</ele>
        <time>2014-02-09T11:07:40Z</time>
      </trkpt>
      <trkpt lat="45.89071199297905" lon="7.648125886917114">
        <ele>2218.3800000000001</ele>
        <time>2014-02-09T11:07:55Z</time>
      </trkpt>
      <trkpt lat="45.89071542955935" lon="7.648136280477047">
        <ele>2218.3800000000001</ele>
        <time>2014-02-09T11:08:09Z</time>
      </trkpt>
      <trkpt lat="45.890725990757346" lon="7.64830157160759">
        <ele>2218.3800000000001</ele>
        <time>2014-02-09T11:08:24Z</time>
      </trkpt>
      <trkpt lat="45.890746274963021" lon="7.64831330627203">
        <ele>2218.3800000000001</ele>
        <time>2014-02-09T11:08:36Z</time>
      </trkpt>
      <trkpt lat="45.890726242214441" lon="7.648246418684721">
        <ele>2218.8600000000001</ele>
        <time>2014-02-09T11:08:45Z</time>
      </trkpt>
      <trkpt lat="45.890710903331637" lon="7.648197216913104">
        <ele>2218.3800000000001</ele>
        <time>2014-02-09T11:08:49Z</time>
      </trkpt>
      <trkpt lat="45.890722554177046" lon="7.647967552766204">
        <ele>2218.3800000000001</ele>
        <time>2014-02-09T11:09:04Z</time>
      </trkpt>
      <trkpt lat="45.890802768990397" lon="7.648028237745166">
        <ele>2220.3000000000002</ele>
        <time>2014-02-09T11:09:16Z</time>
      </trkpt>
      <trkpt lat="45.890869991853833" lon="7.64804458245635">
        <ele>2221.7399999999998</ele>
        <time>2014-02-09T11:09:30Z</time>
      </trkpt>
      <trkpt lat="45.890946183353662" lon="7.648038044571877">
        <ele>2222.71</ele>
        <time>2014-02-09T11:09:44Z</time>
      </trkpt>
      <trkpt lat="45.890999240800738" lon="7.648060424253345">
        <ele>2223.6700000000001</ele>
        <time>2014-02-09T11:09:57Z</time>
      </trkpt>
      <trkpt lat="45.891050538048148" lon="7.648100405931473">
        <ele>2225.1100000000001</ele>
        <time>2014-02-09T11:10:10Z</time>
      </trkpt>
      <trkpt lat="45.891114324331284" lon="7.648151870816946">
        <ele>2225.5900000000001</ele>
        <time>2014-02-09T11:10:23Z</time>
      </trkpt>
      <trkpt lat="45.891128489747643" lon="7.648201659321785">
        <ele>2226.5500000000002</ele>
        <time>2014-02-09T11:10:37Z</time>
      </trkpt>
      <trkpt lat="45.891183810308576" lon="7.648298805579543">
        <ele>2227.9899999999998</ele>
        <time>2014-02-09T11:10:50Z</time>
      </trkpt>
      <trkpt lat="45.891257571056485" lon="7.648374661803246">
        <ele>2228.9499999999998</ele>
        <time>2014-02-09T11:11:03Z</time>
      </trkpt>
      <trkpt lat="45.891350274905562" lon="7.648497205227613">
        <ele>2230.8800000000001</ele>
        <time>2014-02-09T11:11:22Z</time>
      </trkpt>
      <trkpt lat="45.891367290169001" lon="7.648520674556494">
        <ele>2230.4000000000001</ele>
        <time>2014-02-09T11:11:25Z</time>
      </trkpt>
      <trkpt lat="45.891385227441788" lon="7.648537270724773">
        <ele>2230.8800000000001</ele>
        <time>2014-02-09T11:11:27Z</time>
      </trkpt>
      <trkpt lat="45.891455551609397" lon="7.648625196889043">
        <ele>2232.3200000000002</ele>
        <time>2014-02-09T11:11:42Z</time>
      </trkpt>
      <trkpt lat="45.891505423933268" lon="7.648692587390542">
        <ele>2232.8000000000002</ele>
        <time>2014-02-09T11:11:57Z</time>
      </trkpt>
      <trkpt lat="45.891556721180677" lon="7.648756625130773">
        <ele>2232.8000000000002</ele>
        <time>2014-02-09T11:12:11Z</time>
      </trkpt>
      <trkpt lat="45.89160474948585" lon="7.648836253210902">
        <ele>2234.2399999999998</ele>
        <time>2014-02-09T11:12:24Z</time>
      </trkpt>
      <trkpt lat="45.891656801104546" lon="7.6489123608917">
        <ele>2235.6799999999998</ele>
        <time>2014-02-09T11:12:39Z</time>
      </trkpt>
      <trkpt lat="45.891694771125913" lon="7.648990815505385">
        <ele>2236.6399999999999</ele>
        <time>2014-02-09T11:12:52Z</time>
      </trkpt>
      <trkpt lat="45.891758305951953" lon="7.649023337289691">
        <ele>2237.1300000000001</ele>
        <time>2014-02-09T11:13:07Z</time>
      </trkpt>
      <trkpt lat="45.891819326207042" lon="7.64905309304595">
        <ele>2238.0900000000001</ele>
        <time>2014-02-09T11:13:22Z</time>
      </trkpt>
      <trkpt lat="45.891885375604033" lon="7.649071114137769">
        <ele>2240.0100000000002</ele>
        <time>2014-02-09T11:13:35Z</time>
      </trkpt>
      <trkpt lat="45.891933487728238" lon="7.649065665900707">
        <ele>2241.4499999999998</ele>
        <time>2014-02-09T11:13:49Z</time>
      </trkpt>
      <trkpt lat="45.891958465799689" lon="7.649057283997536">
        <ele>2242.4099999999999</ele>
        <time>2014-02-09T11:14:03Z</time>
      </trkpt>
      <trkpt lat="45.891977995634079" lon="7.649040520191193">
        <ele>2243.8499999999999</ele>
        <time>2014-02-09T11:14:16Z</time>
      </trkpt>
      <trkpt lat="45.891988221555948" lon="7.649040771648288">
        <ele>2244.8200000000002</ele>
        <time>2014-02-09T11:14:28Z</time>
      </trkpt>
      <trkpt lat="45.891969865188003" lon="7.649077400565147">
        <ele>2244.3299999999999</ele>
        <time>2014-02-09T11:14:42Z</time>
      </trkpt>
      <trkpt lat="45.891984030604362" lon="7.649083938449621">
        <ele>2244.3299999999999</ele>
        <time>2014-02-09T11:15:00Z</time>
      </trkpt>
      <trkpt lat="45.892000710591674" lon="7.64903255738318">
        <ele>2243.8499999999999</ele>
        <time>2014-02-09T11:15:15Z</time>
      </trkpt>
      <trkpt lat="45.892004398629069" lon="7.649035742506385">
        <ele>2244.8200000000002</ele>
        <time>2014-02-09T11:15:35Z</time>
      </trkpt>
      <trkpt lat="45.892001464962959" lon="7.649052422493696">
        <ele>2244.8200000000002</ele>
        <time>2014-02-09T11:15:56Z</time>
      </trkpt>
      <trkpt lat="45.892029795795679" lon="7.649021157994866">
        <ele>2245.3000000000002</ele>
        <time>2014-02-09T11:16:11Z</time>
      </trkpt>
      <trkpt lat="45.892089055851102" lon="7.648938093334436">
        <ele>2248.1799999999998</ele>
        <time>2014-02-09T11:16:25Z</time>
      </trkpt>
      <trkpt lat="45.89210020378232" lon="7.648947397246957">
        <ele>2248.6599999999999</ele>
        <time>2014-02-09T11:16:38Z</time>
      </trkpt>
      <trkpt lat="45.892145130783319" lon="7.64886936172843">
        <ele>2251.0599999999999</ele>
        <time>2014-02-09T11:16:51Z</time>
      </trkpt>
      <trkpt lat="45.89218569919467" lon="7.648812448605895">
        <ele>2253.4699999999998</ele>
        <time>2014-02-09T11:17:04Z</time>
      </trkpt>
      <trkpt lat="45.892223166301847" lon="7.648769868537784">
        <ele>2255.8699999999999</ele>
        <time>2014-02-09T11:17:15Z</time>
      </trkpt>
      <trkpt lat="45.892274798825383" lon="7.648707255721092">
        <ele>2258.75</ele>
        <time>2014-02-09T11:17:29Z</time>
      </trkpt>
      <trkpt lat="45.892341183498502" lon="7.648643553256989">
        <ele>2262.1199999999999</ele>
        <time>2014-02-09T11:17:46Z</time>
      </trkpt>
      <trkpt lat="45.892383931204677" lon="7.648633914068341">
        <ele>2263.5599999999999</ele>
        <time>2014-02-09T11:18:03Z</time>
      </trkpt>
      <trkpt lat="45.892423409968615" lon="7.648589070886374">
        <ele>2264.52</ele>
        <time>2014-02-09T11:18:21Z</time>
      </trkpt>
      <trkpt lat="45.892483089119196" lon="7.64851463958621">
        <ele>2266.4499999999998</ele>
        <time>2014-02-09T11:18:35Z</time>
      </trkpt>
      <trkpt lat="45.892556263133883" lon="7.648424366489053">
        <ele>2269.8099999999999</ele>
        <time>2014-02-09T11:18:51Z</time>
      </trkpt>
      <trkpt lat="45.892591131851077" lon="7.648364771157503">
        <ele>2272.6900000000001</ele>
        <time>2014-02-09T11:19:05Z</time>
      </trkpt>
      <trkpt lat="45.892643183469772" lon="7.648294111713767">
        <ele>2275.5799999999999</ele>
        <time>2014-02-09T11:19:19Z</time>
      </trkpt>
      <trkpt lat="45.892700180411339" lon="7.648216998204589">
        <ele>2277.98</ele>
        <time>2014-02-09T11:19:34Z</time>
      </trkpt>
      <trkpt lat="45.892737982794642" lon="7.648151200264692">
        <ele>2281.3499999999999</ele>
        <time>2014-02-09T11:19:46Z</time>
      </trkpt>
      <trkpt lat="45.892796656116843" lon="7.648067213594914">
        <ele>2284.23</ele>
        <time>2014-02-09T11:20:03Z</time>
      </trkpt>
      <trkpt lat="45.892833452671766" lon="7.648023627698422">
        <ele>2286.1500000000001</ele>
        <time>2014-02-09T11:20:16Z</time>
      </trkpt>
      <trkpt lat="45.892881732434034" lon="7.647930588573217">
        <ele>2289.04</ele>
        <time>2014-02-09T11:20:32Z</time>
      </trkpt>
      <trkpt lat="45.892944261431694" lon="7.647839393466711">
        <ele>2291.9200000000001</ele>
        <time>2014-02-09T11:20:48Z</time>
      </trkpt>
      <trkpt lat="45.893005281686783" lon="7.647780636325479">
        <ele>2294.8000000000002</ele>
        <time>2014-02-09T11:21:01Z</time>
      </trkpt>
      <trkpt lat="45.893100751563907" lon="7.647710228338838">
        <ele>2296.73</ele>
        <time>2014-02-09T11:21:15Z</time>
      </trkpt>
      <trkpt lat="45.893116174265742" lon="7.647688603028655">
        <ele>2296.25</ele>
        <time>2014-02-09T11:21:18Z</time>
      </trkpt>
      <trkpt lat="45.893172835931182" lon="7.647607969120145">
        <ele>2296.25</ele>
        <time>2014-02-09T11:21:27Z</time>
      </trkpt>
      <trkpt lat="45.893271323293447" lon="7.647560024634004">
        <ele>2297.21</ele>
        <time>2014-02-09T11:21:41Z</time>
      </trkpt>
      <trkpt lat="45.893277190625668" lon="7.647549379616976">
        <ele>2297.6900000000001</ele>
        <time>2014-02-09T11:21:52Z</time>
      </trkpt>
      <trkpt lat="45.893257493153214" lon="7.647396745160222">
        <ele>2297.21</ele>
        <time>2014-02-09T11:22:05Z</time>
      </trkpt>
      <trkpt lat="45.893248105421662" lon="7.647391213104129">
        <ele>2297.21</ele>
        <time>2014-02-09T11:22:17Z</time>
      </trkpt>
      <trkpt lat="45.893233437091112" lon="7.647419795393944">
        <ele>2297.21</ele>
        <time>2014-02-09T11:22:31Z</time>
      </trkpt>
      <trkpt lat="45.893223378807306" lon="7.647439492866397">
        <ele>2297.21</ele>
        <time>2014-02-09T11:22:48Z</time>
      </trkpt>
      <trkpt lat="45.893262103199959" lon="7.647400433197618">
        <ele>2296.73</ele>
        <time>2014-02-09T11:23:08Z</time>
      </trkpt>
      <trkpt lat="45.893279537558556" lon="7.647414011880755">
        <ele>2296.73</ele>
        <time>2014-02-09T11:23:25Z</time>
      </trkpt>
      <trkpt lat="45.89327584952116" lon="7.647404037415981">
        <ele>2296.73</ele>
        <time>2014-02-09T11:23:37Z</time>
      </trkpt>
      <trkpt lat="45.893261265009642" lon="7.647421136498451">
        <ele>2295.77</ele>
        <time>2014-02-09T11:23:52Z</time>
      </trkpt>
      <trkpt lat="45.893251709640026" lon="7.647406132891774">
        <ele>2295.77</ele>
        <time>2014-02-09T11:24:06Z</time>
      </trkpt>
      <trkpt lat="45.893266126513481" lon="7.647425411269069">
        <ele>2295.77</ele>
        <time>2014-02-09T11:24:18Z</time>
      </trkpt>
      <trkpt lat="45.893236035481095" lon="7.647431530058384">
        <ele>2295.77</ele>
        <time>2014-02-09T11:24:37Z</time>
      </trkpt>
      <trkpt lat="45.893259169533849" lon="7.647387525066733">
        <ele>2295.77</ele>
        <time>2014-02-09T11:24:52Z</time>
      </trkpt>
      <trkpt lat="45.893254978582263" lon="7.647400768473744">
        <ele>2295.77</ele>
        <time>2014-02-09T11:25:05Z</time>
      </trkpt>
      <trkpt lat="45.893244668841362" lon="7.647394482046366">
        <ele>2295.2800000000002</ele>
        <time>2014-02-09T11:25:20Z</time>
      </trkpt>
      <trkpt lat="45.893195383250713" lon="7.647421807050705">
        <ele>2295.77</ele>
        <time>2014-02-09T11:25:35Z</time>
      </trkpt>
      <trkpt lat="45.893170237541199" lon="7.64743815176189">
        <ele>2295.77</ele>
        <time>2014-02-09T11:25:41Z</time>
      </trkpt>
      <trkpt lat="45.893115671351552" lon="7.647453406825662">
        <ele>2295.77</ele>
        <time>2014-02-09T11:25:54Z</time>
      </trkpt>
      <trkpt lat="45.893110390752554" lon="7.647473607212305">
        <ele>2295.77</ele>
        <time>2014-02-09T11:26:12Z</time>
      </trkpt>
      <trkpt lat="45.89310435578227" lon="7.647475618869066">
        <ele>2295.2800000000002</ele>
        <time>2014-02-09T11:26:26Z</time>
      </trkpt>
      <trkpt lat="45.893100751563907" lon="7.647506380453706">
        <ele>2295.77</ele>
        <time>2014-02-09T11:26:46Z</time>
      </trkpt>
      <trkpt lat="45.89310385286808" lon="7.64747922308743">
        <ele>2295.77</ele>
        <time>2014-02-09T11:27:00Z</time>
      </trkpt>
      <trkpt lat="45.893084239214659" lon="7.647469080984592">
        <ele>2295.77</ele>
        <time>2014-02-09T11:27:14Z</time>
      </trkpt>
      <trkpt lat="45.89309211820364" lon="7.647473942488432">
        <ele>2295.77</ele>
        <time>2014-02-09T11:27:25Z</time>
      </trkpt>
      <trkpt lat="45.893100081011653" lon="7.6474963221699">
        <ele>2296.25</ele>
        <time>2014-02-09T11:27:28Z</time>
      </trkpt>
      <trkpt lat="45.893064374104142" lon="7.647671923041344">
        <ele>2295.2800000000002</ele>
        <time>2014-02-09T11:27:43Z</time>
      </trkpt>
      <trkpt lat="45.893081221729517" lon="7.64765608124435">
        <ele>2294.3200000000002</ele>
        <time>2014-02-09T11:27:57Z</time>
      </trkpt>
      <trkpt lat="45.893097901716828" lon="7.647621799260378">
        <ele>2294.3200000000002</ele>
        <time>2014-02-09T11:28:00Z</time>
      </trkpt>
      <trkpt lat="45.893137715756893" lon="7.6474254950881">
        <ele>2296.73</ele>
        <time>2014-02-09T11:28:16Z</time>
      </trkpt>
      <trkpt lat="45.893113994970918" lon="7.647422980517149">
        <ele>2296.25</ele>
        <time>2014-02-09T11:28:31Z</time>
      </trkpt>
      <trkpt lat="45.89312388561666" lon="7.647466147318482">
        <ele>2296.73</ele>
        <time>2014-02-09T11:28:47Z</time>
      </trkpt>
      <trkpt lat="45.893156658858061" lon="7.647450305521488">
        <ele>2296.25</ele>
        <time>2014-02-09T11:28:59Z</time>
      </trkpt>
      <trkpt lat="45.893106618896127" lon="7.647420885041356">
        <ele>2296.73</ele>
        <time>2014-02-09T11:29:11Z</time>
      </trkpt>
      <trkpt lat="45.893109468743205" lon="7.647299012169242">
        <ele>2296.25</ele>
        <time>2014-02-09T11:29:33Z</time>
      </trkpt>
      <trkpt lat="45.893108882009983" lon="7.647432116791606">
        <ele>2294.8000000000002</ele>
        <time>2014-02-09T11:29:55Z</time>
      </trkpt>
      <trkpt lat="45.893135955557227" lon="7.647500764578581">
        <ele>2294.3200000000002</ele>
        <time>2014-02-09T11:30:26Z</time>
      </trkpt>
      <trkpt lat="45.893089855089784" lon="7.647530101239681">
        <ele>2293.3600000000001</ele>
        <time>2014-02-09T11:30:56Z</time>
      </trkpt>
      <trkpt lat="45.893144337460399" lon="7.647440750151873">
        <ele>2293.3600000000001</ele>
        <time>2014-02-09T11:31:28Z</time>
      </trkpt>
      <trkpt lat="45.8931615203619" lon="7.647432954981923">
        <ele>2292.8800000000001</ele>
        <time>2014-02-09T11:31:58Z</time>
      </trkpt>
      <trkpt lat="45.893115755170584" lon="7.647525072097778">
        <ele>2292.4000000000001</ele>
        <time>2014-02-09T11:32:29Z</time>
      </trkpt>
      <trkpt lat="45.893105613067746" lon="7.647543512284756">
        <ele>2291.4400000000001</ele>
        <time>2014-02-09T11:32:58Z</time>
      </trkpt>
      <trkpt lat="45.893116090446711" lon="7.647510403767228">
        <ele>2290.96</ele>
        <time>2014-02-09T11:33:27Z</time>
      </trkpt>
      <trkpt lat="45.893113827332854" lon="7.647522306069732">
        <ele>2290</ele>
        <time>2014-02-09T11:33:56Z</time>
      </trkpt>
      <trkpt lat="45.893137631937861" lon="7.647543596103787">
        <ele>2289.52</ele>
        <time>2014-02-09T11:34:25Z</time>
      </trkpt>
      <trkpt lat="45.89312975294888" lon="7.647550217807293">
        <ele>2289.04</ele>
        <time>2014-02-09T11:35:03Z</time>
      </trkpt>
      <trkpt lat="45.893137045204639" lon="7.647545272484422">
        <ele>2288.0799999999999</ele>
        <time>2014-02-09T11:35:38Z</time>
      </trkpt>
      <trkpt lat="45.893261767923832" lon="7.647530855610967">
        <ele>2287.5900000000001</ele>
        <time>2014-02-09T11:36:08Z</time>
      </trkpt>
      <trkpt lat="45.893182894214988" lon="7.647486180067062">
        <ele>2286.6300000000001</ele>
        <time>2014-02-09T11:36:33Z</time>
      </trkpt>
      <trkpt lat="45.893142241984606" lon="7.647470086812973">
        <ele>2286.6300000000001</ele>
        <time>2014-02-09T11:36:59Z</time>
      </trkpt>
      <trkpt lat="45.893198233097792" lon="7.647458352148533">
        <ele>2286.1500000000001</ele>
        <time>2014-02-09T11:37:24Z</time>
      </trkpt>
      <trkpt lat="45.893179792910814" lon="7.647455334663391">
        <ele>2285.1900000000001</ele>
        <time>2014-02-09T11:37:51Z</time>
      </trkpt>
      <trkpt lat="45.893192533403635" lon="7.647476624697447">
        <ele>2285.6700000000001</ele>
        <time>2014-02-09T11:38:20Z</time>
      </trkpt>
      <trkpt lat="45.893167303875089" lon="7.647462207823992">
        <ele>2285.6700000000001</ele>
        <time>2014-02-09T11:38:50Z</time>
      </trkpt>
      <trkpt lat="45.893115671351552" lon="7.647474780678749">
        <ele>2286.1500000000001</ele>
        <time>2014-02-09T11:39:23Z</time>
      </trkpt>
      <trkpt lat="45.893147941678762" lon="7.647483414039016">
        <ele>2285.6700000000001</ele>
        <time>2014-02-09T11:39:54Z</time>
      </trkpt>
      <trkpt lat="45.893243495374918" lon="7.647484922781587">
        <ele>2285.6700000000001</ele>
        <time>2014-02-09T11:40:29Z</time>
      </trkpt>
      <trkpt lat="45.893203178420663" lon="7.647463381290436">
        <ele>2284.71</ele>
        <time>2014-02-09T11:40:57Z</time>
      </trkpt>
      <trkpt lat="45.893210889771581" lon="7.647422896698117">
        <ele>2283.75</ele>
        <time>2014-02-09T11:41:26Z</time>
      </trkpt>
      <trkpt lat="45.893154144287109" lon="7.647471595555544">
        <ele>2284.71</ele>
        <time>2014-02-09T11:41:53Z</time>
      </trkpt>
      <trkpt lat="45.893199825659394" lon="7.647480899468064">
        <ele>2284.71</ele>
        <time>2014-02-09T11:42:26Z</time>
      </trkpt>
      <trkpt lat="45.893055992200971" lon="7.647510152310133">
        <ele>2285.1900000000001</ele>
        <time>2014-02-09T11:42:51Z</time>
      </trkpt>
      <trkpt lat="45.89292355813086" lon="7.647497747093439">
        <ele>2283.27</ele>
        <time>2014-02-09T11:43:17Z</time>
      </trkpt>
      <trkpt lat="45.893146600574255" lon="7.647469667717814">
        <ele>2283.75</ele>
        <time>2014-02-09T11:43:52Z</time>
      </trkpt>
      <trkpt lat="45.893049035221338" lon="7.647470254451037">
        <ele>2281.8299999999999</ele>
        <time>2014-02-09T11:44:18Z</time>
      </trkpt>
      <trkpt lat="45.89314098469913" lon="7.647424237802625">
        <ele>2282.79</ele>
        <time>2014-02-09T11:44:49Z</time>
      </trkpt>
      <trkpt lat="45.893073678016663" lon="7.64746111817658">
        <ele>2281.8299999999999</ele>
        <time>2014-02-09T11:45:16Z</time>
      </trkpt>
      <trkpt lat="45.893085664138198" lon="7.647458184510469">
        <ele>2280.8699999999999</ele>
        <time>2014-02-09T11:45:43Z</time>
      </trkpt>
      <trkpt lat="45.893147857859731" lon="7.647492047399283">
        <ele>2280.3800000000001</ele>
        <time>2014-02-09T11:46:15Z</time>
      </trkpt>
      <trkpt lat="45.893179289996624" lon="7.647514175623655">
        <ele>2279.9000000000001</ele>
        <time>2014-02-09T11:46:44Z</time>
      </trkpt>
      <trkpt lat="45.893201502040029" lon="7.64753001742065">
        <ele>2279.9000000000001</ele>
        <time>2014-02-09T11:47:14Z</time>
      </trkpt>
      <trkpt lat="45.893267719075084" lon="7.647539069876075">
        <ele>2280.8699999999999</ele>
        <time>2014-02-09T11:47:46Z</time>
      </trkpt>
      <trkpt lat="45.893272245302796" lon="7.647576201707125">
        <ele>2279.9000000000001</ele>
        <time>2014-02-09T11:48:10Z</time>
      </trkpt>
      <trkpt lat="45.893320022150874" lon="7.647444689646363">
        <ele>2280.8699999999999</ele>
        <time>2014-02-09T11:48:42Z</time>
      </trkpt>
      <trkpt lat="45.89330418035388" lon="7.647417783737183">
        <ele>2281.3499999999999</ele>
        <time>2014-02-09T11:49:15Z</time>
      </trkpt>
      <trkpt lat="45.89330468326807" lon="7.647443683817983">
        <ele>2282.3099999999999</ele>
        <time>2014-02-09T11:49:22Z</time>
      </trkpt>
      <trkpt lat="45.893263947218657" lon="7.64745868742466">
        <ele>2281.3499999999999</ele>
        <time>2014-02-09T11:49:31Z</time>
      </trkpt>
      <trkpt lat="45.89321625418961" lon="7.647487856447697">
        <ele>2281.3499999999999</ele>
        <time>2014-02-09T11:49:54Z</time>
      </trkpt>
      <trkpt lat="45.89320351369679" lon="7.647522389888763">
        <ele>2281.8299999999999</ele>
        <time>2014-02-09T11:50:25Z</time>
      </trkpt>
      <trkpt lat="45.893193790689111" lon="7.647524485364556">
        <ele>2284.23</ele>
        <time>2014-02-09T11:50:53Z</time>
      </trkpt>
      <trkpt lat="45.893193539232016" lon="7.647520964965224">
        <ele>2284.23</ele>
        <time>2014-02-09T11:50:54Z</time>
      </trkpt>
      <trkpt lat="45.89319177903235" lon="7.647523144260049">
        <ele>2283.27</ele>
        <time>2014-02-09T11:51:03Z</time>
      </trkpt>
      <trkpt lat="45.893190940842032" lon="7.647465812042356">
        <ele>2284.71</ele>
        <time>2014-02-09T11:51:36Z</time>
      </trkpt>
      <trkpt lat="45.893179960548878" lon="7.647497830912471">
        <ele>2282.79</ele>
        <time>2014-02-09T11:52:09Z</time>
      </trkpt>
      <trkpt lat="45.893178367987275" lon="7.647498082369566">
        <ele>2282.79</ele>
        <time>2014-02-09T11:52:10Z</time>
      </trkpt>
      <trkpt lat="45.893133357167244" lon="7.647480899468064">
        <ele>2282.3099999999999</ele>
        <time>2014-02-09T11:52:44Z</time>
      </trkpt>
      <trkpt lat="45.893159676343203" lon="7.647459609434009">
        <ele>2281.8299999999999</ele>
        <time>2014-02-09T11:53:09Z</time>
      </trkpt>
      <trkpt lat="45.893152551725507" lon="7.647473942488432">
        <ele>2283.27</ele>
        <time>2014-02-09T11:53:16Z</time>
      </trkpt>
      <trkpt lat="45.893153641372919" lon="7.6474928855896">
        <ele>2282.79</ele>
        <time>2014-02-09T11:53:45Z</time>
      </trkpt>
      <trkpt lat="45.893121957778931" lon="7.647537142038345">
        <ele>2282.79</ele>
        <time>2014-02-09T11:54:13Z</time>
      </trkpt>
      <trkpt lat="45.893090190365911" lon="7.647560024634004">
        <ele>2283.75</ele>
        <time>2014-02-09T11:54:40Z</time>
      </trkpt>
      <trkpt lat="45.893105110153556" lon="7.647529765963554">
        <ele>2283.75</ele>
        <time>2014-02-09T11:55:09Z</time>
      </trkpt>
      <trkpt lat="45.893117347732186" lon="7.64756765216589">
        <ele>2284.23</ele>
        <time>2014-02-09T11:55:43Z</time>
      </trkpt>
      <trkpt lat="45.893098907545209" lon="7.647571843117476">
        <ele>2283.27</ele>
        <time>2014-02-09T11:56:13Z</time>
      </trkpt>
      <trkpt lat="45.89312581345439" lon="7.647583410143852">
        <ele>2281.8299999999999</ele>
        <time>2014-02-09T11:56:41Z</time>
      </trkpt>
      <trkpt lat="45.893149618059397" lon="7.647529682144523">
        <ele>2282.79</ele>
        <time>2014-02-09T11:57:08Z</time>
      </trkpt>
      <trkpt lat="45.893093375489116" lon="7.647483581677079">
        <ele>2284.23</ele>
        <time>2014-02-09T11:57:33Z</time>
      </trkpt>
      <trkpt lat="45.893074767664075" lon="7.647432619705796">
        <ele>2284.71</ele>
        <time>2014-02-09T11:58:03Z</time>
      </trkpt>
      <trkpt lat="45.893090022727847" lon="7.647485258057714">
        <ele>2283.27</ele>
        <time>2014-02-09T11:58:25Z</time>
      </trkpt>
      <trkpt lat="45.893087089061737" lon="7.647450556978583">
        <ele>2282.79</ele>
        <time>2014-02-09T11:58:49Z</time>
      </trkpt>
      <trkpt lat="45.893110809847713" lon="7.647488862276077">
        <ele>2282.3099999999999</ele>
        <time>2014-02-09T11:59:14Z</time>
      </trkpt>
      <trkpt lat="45.893148863688111" lon="7.647428764030337">
        <ele>2282.3099999999999</ele>
        <time>2014-02-09T11:59:39Z</time>
      </trkpt>
      <trkpt lat="45.893168393522501" lon="7.64742155559361">
        <ele>2282.3099999999999</ele>
        <time>2014-02-09T12:00:07Z</time>
      </trkpt>
      <trkpt lat="45.893120784312487" lon="7.647469332441688">
        <ele>2282.79</ele>
        <time>2014-02-09T12:00:35Z</time>
      </trkpt>
      <trkpt lat="45.893154144287109" lon="7.647521048784256">
        <ele>2283.27</ele>
        <time>2014-02-09T12:01:01Z</time>
      </trkpt>
      <trkpt lat="45.893172165378928" lon="7.647341256961227">
        <ele>2283.27</ele>
        <time>2014-02-09T12:01:24Z</time>
      </trkpt>
      <trkpt lat="45.893129417672753" lon="7.647483749315143">
        <ele>2284.23</ele>
        <time>2014-02-09T12:01:49Z</time>
      </trkpt>
      <trkpt lat="45.893116174265742" lon="7.647398924455047">
        <ele>2285.1900000000001</ele>
        <time>2014-02-09T12:02:11Z</time>
      </trkpt>
      <trkpt lat="45.893123717978597" lon="7.647292390465736">
        <ele>2286.1500000000001</ele>
        <time>2014-02-09T12:02:37Z</time>
      </trkpt>
      <trkpt lat="45.893092788755894" lon="7.647392805665731">
        <ele>2285.6700000000001</ele>
        <time>2014-02-09T12:02:58Z</time>
      </trkpt>
      <trkpt lat="45.89310142211616" lon="7.647303957492113">
        <ele>2286.1500000000001</ele>
        <time>2014-02-09T12:03:22Z</time>
      </trkpt>
      <trkpt lat="45.893144253641367" lon="7.647357434034348">
        <ele>2286.1500000000001</ele>
        <time>2014-02-09T12:03:47Z</time>
      </trkpt>
      <trkpt lat="45.893125310540199" lon="7.647360786795616">
        <ele>2285.6700000000001</ele>
        <time>2014-02-09T12:04:13Z</time>
      </trkpt>
      <trkpt lat="45.893139475956559" lon="7.64739079400897">
        <ele>2285.6700000000001</ele>
        <time>2014-02-09T12:04:41Z</time>
      </trkpt>
      <trkpt lat="45.893141319975257" lon="7.647472601383925">
        <ele>2285.1900000000001</ele>
        <time>2014-02-09T12:05:08Z</time>
      </trkpt>
      <trkpt lat="45.893107960000634" lon="7.647516690194607">
        <ele>2285.6700000000001</ele>
        <time>2014-02-09T12:05:33Z</time>
      </trkpt>
      <trkpt lat="45.893110390752554" lon="7.647490622475743">
        <ele>2285.1900000000001</ele>
        <time>2014-02-09T12:05:58Z</time>
      </trkpt>
      <trkpt lat="45.893126986920834" lon="7.647504536435008">
        <ele>2285.1900000000001</ele>
        <time>2014-02-09T12:06:18Z</time>
      </trkpt>
      <trkpt lat="45.893121371045709" lon="7.647572346031666">
        <ele>2285.6700000000001</ele>
        <time>2014-02-09T12:06:34Z</time>
      </trkpt>
      <trkpt lat="45.89314685203135" lon="7.647483916953206">
        <ele>2285.1900000000001</ele>
        <time>2014-02-09T12:06:49Z</time>
      </trkpt>
      <trkpt lat="45.893168393522501" lon="7.647482575848699">
        <ele>2285.1900000000001</ele>
        <time>2014-02-09T12:07:04Z</time>
      </trkpt>
      <trkpt lat="45.893176104873419" lon="7.647467069327831">
        <ele>2285.1900000000001</ele>
        <time>2014-02-09T12:07:06Z</time>
      </trkpt>
      <trkpt lat="45.893203848972917" lon="7.647471847012639">
        <ele>2285.1900000000001</ele>
        <time>2014-02-09T12:07:09Z</time>
      </trkpt>
      <trkpt lat="45.893272329121828" lon="7.647369084879756">
        <ele>2285.1900000000001</ele>
        <time>2014-02-09T12:07:18Z</time>
      </trkpt>
      <trkpt lat="45.893279369920492" lon="7.647336395457387">
        <ele>2285.1900000000001</ele>
        <time>2014-02-09T12:07:21Z</time>
      </trkpt>
      <trkpt lat="45.893295463174582" lon="7.647272692993283">
        <ele>2285.1900000000001</ele>
        <time>2014-02-09T12:07:25Z</time>
      </trkpt>
      <trkpt lat="45.893383305519819" lon="7.647112933918834">
        <ele>2284.71</ele>
        <time>2014-02-09T12:07:39Z</time>
      </trkpt>
      <trkpt lat="45.893451701849699" lon="7.647038754075766">
        <ele>2284.23</ele>
        <time>2014-02-09T12:07:49Z</time>
      </trkpt>
      <trkpt lat="45.893461173400283" lon="7.647007992491126">
        <ele>2283.75</ele>
        <time>2014-02-09T12:07:51Z</time>
      </trkpt>
      <trkpt lat="45.893492437899113" lon="7.64691730029881">
        <ele>2283.75</ele>
        <time>2014-02-09T12:07:59Z</time>
      </trkpt>
      <trkpt lat="45.893558235839009" lon="7.646894250065088">
        <ele>2283.75</ele>
        <time>2014-02-09T12:08:12Z</time>
      </trkpt>
      <trkpt lat="45.893562259152532" lon="7.64691922813654">
        <ele>2283.75</ele>
        <time>2014-02-09T12:08:25Z</time>
      </trkpt>
      <trkpt lat="45.893550608307123" lon="7.646920150145888">
        <ele>2283.75</ele>
        <time>2014-02-09T12:08:40Z</time>
      </trkpt>
      <trkpt lat="45.893558571115136" lon="7.646847562864423">
        <ele>2284.71</ele>
        <time>2014-02-09T12:08:57Z</time>
      </trkpt>
      <trkpt lat="45.893659992143512" lon="7.646686295047402">
        <ele>2284.23</ele>
        <time>2014-02-09T12:09:16Z</time>
      </trkpt>
      <trkpt lat="45.893586650490761" lon="7.646732479333878">
        <ele>2283.75</ele>
        <time>2014-02-09T12:09:38Z</time>
      </trkpt>
      <trkpt lat="45.893587237223983" lon="7.646890478208661">
        <ele>2284.23</ele>
        <time>2014-02-09T12:09:56Z</time>
      </trkpt>
      <trkpt lat="45.893571143969893" lon="7.64692216180265">
        <ele>2283.75</ele>
        <time>2014-02-09T12:10:10Z</time>
      </trkpt>
      <trkpt lat="45.893557230010629" lon="7.646936997771263">
        <ele>2283.75</ele>
        <time>2014-02-09T12:10:31Z</time>
      </trkpt>
      <trkpt lat="45.893541136756539" lon="7.646943954750896">
        <ele>2283.27</ele>
        <time>2014-02-09T12:10:50Z</time>
      </trkpt>
      <trkpt lat="45.893484055995941" lon="7.646973542869091">
        <ele>2282.79</ele>
        <time>2014-02-09T12:11:01Z</time>
      </trkpt>
      <trkpt lat="45.893478943035007" lon="7.647059457376599">
        <ele>2282.79</ele>
        <time>2014-02-09T12:11:09Z</time>
      </trkpt>
      <trkpt lat="45.893441643565893" lon="7.647092901170254">
        <ele>2282.79</ele>
        <time>2014-02-09T12:11:13Z</time>
      </trkpt>
      <trkpt lat="45.893338713794947" lon="7.647246792912483">
        <ele>2283.75</ele>
        <time>2014-02-09T12:11:28Z</time>
      </trkpt>
      <trkpt lat="45.893287500366569" lon="7.647324493154883">
        <ele>2284.23</ele>
        <time>2014-02-09T12:11:38Z</time>
      </trkpt>
      <trkpt lat="45.893198316916823" lon="7.64746162109077">
        <ele>2283.75</ele>
        <time>2014-02-09T12:11:52Z</time>
      </trkpt>
      <trkpt lat="45.893122544512153" lon="7.647450305521488">
        <ele>2283.75</ele>
        <time>2014-02-09T12:12:05Z</time>
      </trkpt>
      <trkpt lat="45.893118353560567" lon="7.647452233359218">
        <ele>2284.23</ele>
        <time>2014-02-09T12:12:16Z</time>
      </trkpt>
      <trkpt lat="45.893132351338863" lon="7.647478384897113">
        <ele>2283.75</ele>
        <time>2014-02-09T12:12:30Z</time>
      </trkpt>
      <trkpt lat="45.893135368824005" lon="7.647467572242022">
        <ele>2284.23</ele>
        <time>2014-02-09T12:12:49Z</time>
      </trkpt>
      <trkpt lat="45.893139392137527" lon="7.647480061277747">
        <ele>2283.75</ele>
        <time>2014-02-09T12:13:06Z</time>
      </trkpt>
      <trkpt lat="45.893125310540199" lon="7.647475283592939">
        <ele>2284.71</ele>
        <time>2014-02-09T12:13:26Z</time>
      </trkpt>
      <trkpt lat="45.8931356202811" lon="7.647487102076411">
        <ele>2283.75</ele>
        <time>2014-02-09T12:13:42Z</time>
      </trkpt>
      <trkpt lat="45.893131596967578" lon="7.647479893639684">
        <ele>2283.75</ele>
        <time>2014-02-09T12:14:03Z</time>
      </trkpt>
      <trkpt lat="45.89312681928277" lon="7.647474780678749">
        <ele>2283.75</ele>
        <time>2014-02-09T12:14:19Z</time>
      </trkpt>
      <trkpt lat="45.893141403794289" lon="7.647469500079751">
        <ele>2284.23</ele>
        <time>2014-02-09T12:14:32Z</time>
      </trkpt>
      <trkpt lat="45.893118688836694" lon="7.647464890033007">
        <ele>2283.27</ele>
        <time>2014-02-09T12:14:48Z</time>
      </trkpt>
      <trkpt lat="45.893102595582604" lon="7.647467069327831">
        <ele>2282.79</ele>
        <time>2014-02-09T12:15:05Z</time>
      </trkpt>
      <trkpt lat="45.89309991337359" lon="7.647457094863057">
        <ele>2284.23</ele>
        <time>2014-02-09T12:15:28Z</time>
      </trkpt>
      <trkpt lat="45.893113743513823" lon="7.647479893639684">
        <ele>2283.75</ele>
        <time>2014-02-09T12:15:43Z</time>
      </trkpt>
      <trkpt lat="45.893124304711819" lon="7.647489365190268">
        <ele>2283.75</ele>
        <time>2014-02-09T12:16:02Z</time>
      </trkpt>
      <trkpt lat="45.893100332468748" lon="7.647454831749201">
        <ele>2282.3099999999999</ele>
        <time>2014-02-09T12:16:19Z</time>
      </trkpt>
      <trkpt lat="45.893102679401636" lon="7.647418538108468">
        <ele>2282.3099999999999</ele>
        <time>2014-02-09T12:16:47Z</time>
      </trkpt>
      <trkpt lat="45.893120113760233" lon="7.647466063499451">
        <ele>2283.75</ele>
        <time>2014-02-09T12:16:59Z</time>
      </trkpt>
      <trkpt lat="45.893115000799298" lon="7.647478133440018">
        <ele>2283.75</ele>
        <time>2014-02-09T12:17:14Z</time>
      </trkpt>
      <trkpt lat="45.893117683008313" lon="7.647479977458715">
        <ele>2284.23</ele>
        <time>2014-02-09T12:17:39Z</time>
      </trkpt>
      <trkpt lat="45.89310435578227" lon="7.647495903074741">
        <ele>2284.71</ele>
        <time>2014-02-09T12:18:04Z</time>
      </trkpt>
      <trkpt lat="45.893105613067746" lon="7.647495400160551">
        <ele>2285.6700000000001</ele>
        <time>2014-02-09T12:18:25Z</time>
      </trkpt>
      <trkpt lat="45.893114665523171" lon="7.647490873932838">
        <ele>2286.6300000000001</ele>
        <time>2014-02-09T12:18:43Z</time>
      </trkpt>
      <trkpt lat="45.893102344125509" lon="7.647500764578581">
        <ele>2288.0799999999999</ele>
        <time>2014-02-09T12:19:09Z</time>
      </trkpt>
      <trkpt lat="45.893091196194291" lon="7.647555582225323">
        <ele>2288.5599999999999</ele>
        <time>2014-02-09T12:19:13Z</time>
      </trkpt>
      <trkpt lat="45.893088430166245" lon="7.647600844502449">
        <ele>2287.5900000000001</ele>
        <time>2014-02-09T12:19:16Z</time>
      </trkpt>
      <trkpt lat="45.89299832470715" lon="7.647834029048681">
        <ele>2285.6700000000001</ele>
        <time>2014-02-09T12:19:34Z</time>
      </trkpt>
      <trkpt lat="45.892940573394299" lon="7.6479263138026">
        <ele>2281.8299999999999</ele>
        <time>2014-02-09T12:19:42Z</time>
      </trkpt>
      <trkpt lat="45.892929760739207" lon="7.647938802838326">
        <ele>2281.3499999999999</ele>
        <time>2014-02-09T12:19:43Z</time>
      </trkpt>
      <trkpt lat="45.892879301682115" lon="7.648008372634649">
        <ele>2280.3800000000001</ele>
        <time>2014-02-09T12:19:50Z</time>
      </trkpt>
      <trkpt lat="45.892863627523184" lon="7.648071488365531">
        <ele>2277.98</ele>
        <time>2014-02-09T12:19:54Z</time>
      </trkpt>
      <trkpt lat="45.892818532884121" lon="7.648139214143157">
        <ele>2274.1399999999999</ele>
        <time>2014-02-09T12:19:59Z</time>
      </trkpt>
      <trkpt lat="45.892755333334208" lon="7.648233594372869">
        <ele>2270.77</ele>
        <time>2014-02-09T12:20:08Z</time>
      </trkpt>
      <trkpt lat="45.89273882098496" lon="7.648244658485055">
        <ele>2269.3299999999999</ele>
        <time>2014-02-09T12:20:17Z</time>
      </trkpt>
      <trkpt lat="45.892704455181956" lon="7.648280281573534">
        <ele>2267.8899999999999</ele>
        <time>2014-02-09T12:20:20Z</time>
      </trkpt>
      <trkpt lat="45.892663802951574" lon="7.648331914097071">
        <ele>2266.4499999999998</ele>
        <time>2014-02-09T12:20:23Z</time>
      </trkpt>
      <trkpt lat="45.892611583694816" lon="7.648406429216266">
        <ele>2263.0799999999999</ele>
        <time>2014-02-09T12:20:27Z</time>
      </trkpt>
      <trkpt lat="45.892570512369275" lon="7.648461917415261">
        <ele>2260.1999999999998</ele>
        <time>2014-02-09T12:20:30Z</time>
      </trkpt>
      <trkpt lat="45.892565315589309" lon="7.648464851081371">
        <ele>2259.7199999999998</ele>
        <time>2014-02-09T12:20:31Z</time>
      </trkpt>
      <trkpt lat="45.892565483227372" lon="7.6484633423388">
        <ele>2259.2399999999998</ele>
        <time>2014-02-09T12:20:32Z</time>
      </trkpt>
      <trkpt lat="45.892516700550914" lon="7.648534923791885">
        <ele>2257.3099999999999</ele>
        <time>2014-02-09T12:20:37Z</time>
      </trkpt>
      <trkpt lat="45.892489040270448" lon="7.648578593507409">
        <ele>2255.8699999999999</ele>
        <time>2014-02-09T12:20:40Z</time>
      </trkpt>
      <trkpt lat="45.892467582598329" lon="7.648596027866006">
        <ele>2254.9099999999999</ele>
        <time>2014-02-09T12:20:42Z</time>
      </trkpt>
      <trkpt lat="45.892431288957596" lon="7.648632992058992">
        <ele>2254.4299999999998</ele>
        <time>2014-02-09T12:20:46Z</time>
      </trkpt>
      <trkpt lat="45.892412262037396" lon="7.648667693138123">
        <ele>2252.9899999999998</ele>
        <time>2014-02-09T12:20:49Z</time>
      </trkpt>
      <trkpt lat="45.892321234568954" lon="7.648759726434946">
        <ele>2249.6199999999999</ele>
        <time>2014-02-09T12:21:00Z</time>
      </trkpt>
      <trkpt lat="45.892314277589321" lon="7.648767018690705">
        <ele>2249.6199999999999</ele>
        <time>2014-02-09T12:21:01Z</time>
      </trkpt>
      <trkpt lat="45.89230103418231" lon="7.648774813860655">
        <ele>2248.6599999999999</ele>
        <time>2014-02-09T12:21:03Z</time>
      </trkpt>
      <trkpt lat="45.892290975898504" lon="7.64879266731441">
        <ele>2248.1799999999998</ele>
        <time>2014-02-09T12:21:05Z</time>
      </trkpt>
      <trkpt lat="45.892276726663113" lon="7.64881756156683">
        <ele>2247.2199999999998</ele>
        <time>2014-02-09T12:21:07Z</time>
      </trkpt>
      <trkpt lat="45.892218556255102" lon="7.648856705054641">
        <ele>2244.8200000000002</ele>
        <time>2014-02-09T12:21:19Z</time>
      </trkpt>
      <trkpt lat="45.892175054177642" lon="7.648911522701383">
        <ele>2243.8499999999999</ele>
        <time>2014-02-09T12:21:28Z</time>
      </trkpt>
      <trkpt lat="45.892143538221717" lon="7.648942787200213">
        <ele>2240.9699999999998</ele>
        <time>2014-02-09T12:21:31Z</time>
      </trkpt>
      <trkpt lat="45.892131803557277" lon="7.648952342569828">
        <ele>2240.9699999999998</ele>
        <time>2014-02-09T12:21:32Z</time>
      </trkpt>
      <trkpt lat="45.892063239589334" lon="7.649012440815568">
        <ele>2238.0900000000001</ele>
        <time>2014-02-09T12:21:40Z</time>
      </trkpt>
      <trkpt lat="45.892020324245095" lon="7.649069270119071">
        <ele>2235.1999999999998</ele>
        <time>2014-02-09T12:21:46Z</time>
      </trkpt>
      <trkpt lat="45.8919976092875" lon="7.649098606780171">
        <ele>2234.2399999999998</ele>
        <time>2014-02-09T12:21:49Z</time>
      </trkpt>
      <trkpt lat="45.89191747829318" lon="7.649117298424244">
        <ele>2230.8800000000001</ele>
        <time>2014-02-09T12:22:00Z</time>
      </trkpt>
      <trkpt lat="45.891811111941934" lon="7.649117382243276">
        <ele>2227.9899999999998</ele>
        <time>2014-02-09T12:22:12Z</time>
      </trkpt>
      <trkpt lat="45.891732573509216" lon="7.649073461070657">
        <ele>2226.5500000000002</ele>
        <time>2014-02-09T12:22:22Z</time>
      </trkpt>
      <trkpt lat="45.891692508012056" lon="7.64905309304595">
        <ele>2225.5900000000001</ele>
        <time>2014-02-09T12:22:27Z</time>
      </trkpt>
      <trkpt lat="45.891665350645781" lon="7.64900766313076">
        <ele>2222.71</ele>
        <time>2014-02-09T12:22:31Z</time>
      </trkpt>
      <trkpt lat="45.891649508848786" lon="7.648951169103384">
        <ele>2223.1900000000001</ele>
        <time>2014-02-09T12:22:44Z</time>
      </trkpt>
      <trkpt lat="45.89161790907383" lon="7.648904481902719">
        <ele>2223.1900000000001</ele>
        <time>2014-02-09T12:22:58Z</time>
      </trkpt>
      <trkpt lat="45.891590164974332" lon="7.648869445547462">
        <ele>2221.7399999999998</ele>
        <time>2014-02-09T12:23:04Z</time>
      </trkpt>
      <trkpt lat="45.891479356214404" lon="7.648709770292044">
        <ele>2220.3000000000002</ele>
        <time>2014-02-09T12:23:20Z</time>
      </trkpt>
      <trkpt lat="45.891358740627766" lon="7.648584125563502">
        <ele>2218.8600000000001</ele>
        <time>2014-02-09T12:23:34Z</time>
      </trkpt>
      <trkpt lat="45.891253799200058" lon="7.648429144173861">
        <ele>2217.4200000000001</ele>
        <time>2014-02-09T12:23:49Z</time>
      </trkpt>
      <trkpt lat="45.891130669042468" lon="7.648266702890396">
        <ele>2214.5300000000002</ele>
        <time>2014-02-09T12:24:04Z</time>
      </trkpt>
      <trkpt lat="45.891082976013422" lon="7.648185817524791">
        <ele>2212.6100000000001</ele>
        <time>2014-02-09T12:24:11Z</time>
      </trkpt>
      <trkpt lat="45.890936879441142" lon="7.648082720115781">
        <ele>2210.21</ele>
        <time>2014-02-09T12:24:26Z</time>
      </trkpt>
      <trkpt lat="45.890782820060849" lon="7.64807534404099">
        <ele>2207.3200000000002</ele>
        <time>2014-02-09T12:24:41Z</time>
      </trkpt>
      <trkpt lat="45.890706209465861" lon="7.648013485595584">
        <ele>2206.3600000000001</ele>
        <time>2014-02-09T12:24:49Z</time>
      </trkpt>
      <trkpt lat="45.890680309385061" lon="7.647957745939493">
        <ele>2206.3600000000001</ele>
        <time>2014-02-09T12:24:56Z</time>
      </trkpt>
      <trkpt lat="45.890708388760686" lon="7.64795757830143">
        <ele>2205.4000000000001</ele>
        <time>2014-02-09T12:25:08Z</time>
      </trkpt>
      <trkpt lat="45.890699755400419" lon="7.647945340722799">
        <ele>2205.8800000000001</ele>
        <time>2014-02-09T12:25:17Z</time>
      </trkpt>
      <trkpt lat="45.890665138140321" lon="7.647873172536492">
        <ele>2203.96</ele>
        <time>2014-02-09T12:25:24Z</time>
      </trkpt>
      <trkpt lat="45.890621719881892" lon="7.647791029885411">
        <ele>2200.5900000000001</ele>
        <time>2014-02-09T12:25:32Z</time>
      </trkpt>
      <trkpt lat="45.890553239732981" lon="7.647664966061711">
        <ele>2197.23</ele>
        <time>2014-02-09T12:25:43Z</time>
      </trkpt>
      <trkpt lat="45.890524825081229" lon="7.647602437064052">
        <ele>2194.8299999999999</ele>
        <time>2014-02-09T12:25:48Z</time>
      </trkpt>
      <trkpt lat="45.890507055446506" lon="7.647581985220313">
        <ele>2194.3499999999999</ele>
        <time>2014-02-09T12:25:50Z</time>
      </trkpt>
      <trkpt lat="45.890478389337659" lon="7.647494142875075">
        <ele>2192.4200000000001</ele>
        <time>2014-02-09T12:25:56Z</time>
      </trkpt>
      <trkpt lat="45.890460703521967" lon="7.647422309964895">
        <ele>2191.46</ele>
        <time>2014-02-09T12:26:00Z</time>
      </trkpt>
      <trkpt lat="45.890438575297594" lon="7.647225586697459">
        <ele>2187.6199999999999</ele>
        <time>2014-02-09T12:26:11Z</time>
      </trkpt>
      <trkpt lat="45.890452237799764" lon="7.647040095180273">
        <ele>2184.25</ele>
        <time>2014-02-09T12:26:23Z</time>
      </trkpt>
      <trkpt lat="45.890521556138992" lon="7.646850245073438">
        <ele>2181.8499999999999</ele>
        <time>2014-02-09T12:26:37Z</time>
      </trkpt>
      <trkpt lat="45.890552652999759" lon="7.646781513467431">
        <ele>2180.4099999999999</ele>
        <time>2014-02-09T12:26:43Z</time>
      </trkpt>
      <trkpt lat="45.89059573598206" lon="7.64672284014523">
        <ele>2178.48</ele>
        <time>2014-02-09T12:26:48Z</time>
      </trkpt>
      <trkpt lat="45.890683745965362" lon="7.646565763279796">
        <ele>2175.1199999999999</ele>
        <time>2014-02-09T12:27:01Z</time>
      </trkpt>
      <trkpt lat="45.890694223344326" lon="7.646539527922869">
        <ele>2176.0799999999999</ele>
        <time>2014-02-09T12:27:03Z</time>
      </trkpt>
      <trkpt lat="45.890761446207762" lon="7.646416733041406">
        <ele>2172.7199999999998</ele>
        <time>2014-02-09T12:27:15Z</time>
      </trkpt>
      <trkpt lat="45.890808720141649" lon="7.64634414575994">
        <ele>2169.3499999999999</ele>
        <time>2014-02-09T12:27:24Z</time>
      </trkpt>
      <trkpt lat="45.89086445979774" lon="7.646220177412033">
        <ele>2165.9899999999998</ele>
        <time>2014-02-09T12:27:35Z</time>
      </trkpt>
      <trkpt lat="45.890928246080875" lon="7.6460284832865">
        <ele>2163.5799999999999</ele>
        <time>2014-02-09T12:27:51Z</time>
      </trkpt>
      <trkpt lat="45.890971999615431" lon="7.64582765288651">
        <ele>2161.6599999999999</ele>
        <time>2014-02-09T12:28:06Z</time>
      </trkpt>
      <trkpt lat="45.890988847240806" lon="7.645777026191354">
        <ele>2160.2199999999998</ele>
        <time>2014-02-09T12:28:10Z</time>
      </trkpt>
      <trkpt lat="45.891008209437132" lon="7.645708881318569">
        <ele>2158.7800000000002</ele>
        <time>2014-02-09T12:28:15Z</time>
      </trkpt>
      <trkpt lat="45.891018938273191" lon="7.645678287371993">
        <ele>2158.3000000000002</ele>
        <time>2014-02-09T12:28:17Z</time>
      </trkpt>
      <trkpt lat="45.891036288812757" lon="7.645574854686856">
        <ele>2155.8899999999999</ele>
        <time>2014-02-09T12:28:24Z</time>
      </trkpt>
      <trkpt lat="45.891066463664174" lon="7.645470667630434">
        <ele>2152.5300000000002</ele>
        <time>2014-02-09T12:28:34Z</time>
      </trkpt>
      <trkpt lat="45.891100661829114" lon="7.645362624898553">
        <ele>2150.1300000000001</ele>
        <time>2014-02-09T12:28:42Z</time>
      </trkpt>
      <trkpt lat="45.891110133379698" lon="7.645317781716585">
        <ele>2149.1599999999999</ele>
        <time>2014-02-09T12:28:46Z</time>
      </trkpt>
      <trkpt lat="45.891107870265841" lon="7.645270926877856">
        <ele>2148.1999999999998</ele>
        <time>2014-02-09T12:28:49Z</time>
      </trkpt>
      <trkpt lat="45.891092196106911" lon="7.645086357370019">
        <ele>2144.3600000000001</ele>
        <time>2014-02-09T12:29:02Z</time>
      </trkpt>
      <trkpt lat="45.891049867495894" lon="7.644939254969358">
        <ele>2141.4699999999998</ele>
        <time>2014-02-09T12:29:13Z</time>
      </trkpt>
      <trkpt lat="45.891042994335294" lon="7.644901955500245">
        <ele>2141.4699999999998</ele>
        <time>2014-02-09T12:29:16Z</time>
      </trkpt>
      <trkpt lat="45.891003012657166" lon="7.64467304572463">
        <ele>2138.1100000000001</ele>
        <time>2014-02-09T12:29:32Z</time>
      </trkpt>
      <trkpt lat="45.890976693481207" lon="7.644439106807113">
        <ele>2135.71</ele>
        <time>2014-02-09T12:29:46Z</time>
      </trkpt>
      <trkpt lat="45.890889437869191" lon="7.64426208101213">
        <ele>2132.8200000000002</ele>
        <time>2014-02-09T12:30:00Z</time>
      </trkpt>
      <trkpt lat="45.890749040991068" lon="7.644239449873567">
        <ele>2129.9400000000001</ele>
        <time>2014-02-09T12:30:13Z</time>
      </trkpt>
      <trkpt lat="45.890699923038483" lon="7.644284293055534">
        <ele>2128.98</ele>
        <time>2014-02-09T12:30:19Z</time>
      </trkpt>
      <trkpt lat="45.890613505616784" lon="7.644398622214794">
        <ele>2125.6100000000001</ele>
        <time>2014-02-09T12:30:31Z</time>
      </trkpt>
      <trkpt lat="45.890607135370374" lon="7.644407423213124">
        <ele>2125.1300000000001</ele>
        <time>2014-02-09T12:30:32Z</time>
      </trkpt>
      <trkpt lat="45.890518454834819" lon="7.644484285265207">
        <ele>2123.21</ele>
        <time>2014-02-09T12:30:43Z</time>
      </trkpt>
      <trkpt lat="45.890451148152351" lon="7.644516723230481">
        <ele>2120.8099999999999</ele>
        <time>2014-02-09T12:30:50Z</time>
      </trkpt>
      <trkpt lat="45.89043103158474" lon="7.644524266943336">
        <ele>2120.3200000000002</ele>
        <time>2014-02-09T12:30:52Z</time>
      </trkpt>
      <trkpt lat="45.890306476503611" lon="7.644565589725971">
        <ele>2117.9200000000001</ele>
        <time>2014-02-09T12:31:05Z</time>
      </trkpt>
      <trkpt lat="45.890286611393094" lon="7.644578497856855">
        <ele>2117.4400000000001</ele>
        <time>2014-02-09T12:31:07Z</time>
      </trkpt>
      <trkpt lat="45.890237996354699" lon="7.644598782062531">
        <ele>2116</ele>
        <time>2014-02-09T12:31:12Z</time>
      </trkpt>
      <trkpt lat="45.890124421566725" lon="7.644678074866533">
        <ele>2112.6300000000001</ele>
        <time>2014-02-09T12:31:24Z</time>
      </trkpt>
      <trkpt lat="45.890070023015141" lon="7.64472040347755">
        <ele>2112.1500000000001</ele>
        <time>2014-02-09T12:31:31Z</time>
      </trkpt>
      <trkpt lat="45.890023922547698" lon="7.644740017130971">
        <ele>2112.1500000000001</ele>
        <time>2014-02-09T12:31:44Z</time>
      </trkpt>
      <trkpt lat="45.890009170398116" lon="7.644759463146329">
        <ele>2112.1500000000001</ele>
        <time>2014-02-09T12:31:47Z</time>
      </trkpt>
      <trkpt lat="45.88989551179111" lon="7.644840097054839">
        <ele>2111.1900000000001</ele>
        <time>2014-02-09T12:31:58Z</time>
      </trkpt>
      <trkpt lat="45.889799874275923" lon="7.644885443150997">
        <ele>2111.1900000000001</ele>
        <time>2014-02-09T12:32:06Z</time>
      </trkpt>
      <trkpt lat="45.889783194288611" lon="7.644895501434803">
        <ele>2110.23</ele>
        <time>2014-02-09T12:32:08Z</time>
      </trkpt>
      <trkpt lat="45.88972644880414" lon="7.644919138401747">
        <ele>2110.23</ele>
        <time>2014-02-09T12:32:13Z</time>
      </trkpt>
      <trkpt lat="45.889650257304311" lon="7.644946295768023">
        <ele>2109.27</ele>
        <time>2014-02-09T12:32:26Z</time>
      </trkpt>
      <trkpt lat="45.889645647257566" lon="7.644946547225118">
        <ele>2109.27</ele>
        <time>2014-02-09T12:32:31Z</time>
      </trkpt>
      <trkpt lat="45.889579094946384" lon="7.644991977140307">
        <ele>2108.3099999999999</ele>
        <time>2014-02-09T12:32:37Z</time>
      </trkpt>
      <trkpt lat="45.889422269538045" lon="7.645163303241134">
        <ele>2105.9099999999999</ele>
        <time>2014-02-09T12:32:54Z</time>
      </trkpt>
      <trkpt lat="45.889265444129705" lon="7.645320380106568">
        <ele>2103.5</ele>
        <time>2014-02-09T12:33:10Z</time>
      </trkpt>
      <trkpt lat="45.889174919575453" lon="7.645396739244461">
        <ele>2101.5799999999999</ele>
        <time>2014-02-09T12:33:19Z</time>
      </trkpt>
      <trkpt lat="45.889129238203168" lon="7.645439654588699">
        <ele>2101.0999999999999</ele>
        <time>2014-02-09T12:33:24Z</time>
      </trkpt>
      <trkpt lat="45.88897299952805" lon="7.645587930455804">
        <ele>2097.73</ele>
        <time>2014-02-09T12:33:41Z</time>
      </trkpt>
      <trkpt lat="45.88883126154542" lon="7.64569379389286">
        <ele>2095.8099999999999</ele>
        <time>2014-02-09T12:33:55Z</time>
      </trkpt>
      <trkpt lat="45.888806702569127" lon="7.645718436688185">
        <ele>2095.3299999999999</ele>
        <time>2014-02-09T12:33:58Z</time>
      </trkpt>
      <trkpt lat="45.888750292360783" lon="7.645737295970321">
        <ele>2092.9299999999998</ele>
        <time>2014-02-09T12:34:12Z</time>
      </trkpt>
      <trkpt lat="45.888745849952102" lon="7.645740397274494">
        <ele>2092.4499999999998</ele>
        <time>2014-02-09T12:34:37Z</time>
      </trkpt>
      <trkpt lat="45.888740820810199" lon="7.645749030634761">
        <ele>2093.4099999999999</ele>
        <time>2014-02-09T12:34:49Z</time>
      </trkpt>
      <trkpt lat="45.888712909072638" lon="7.645765626803041">
        <ele>2093.4099999999999</ele>
        <time>2014-02-09T12:35:00Z</time>
      </trkpt>
      <trkpt lat="45.888572176918387" lon="7.645855732262135">
        <ele>2091</ele>
        <time>2014-02-09T12:35:12Z</time>
      </trkpt>
      <trkpt lat="45.888537894934416" lon="7.64587601646781">
        <ele>2089.0799999999999</ele>
        <time>2014-02-09T12:35:15Z</time>
      </trkpt>
      <trkpt lat="45.888406215235591" lon="7.645902587100864">
        <ele>2086.6799999999998</ele>
        <time>2014-02-09T12:35:25Z</time>
      </trkpt>
      <trkpt lat="45.88834653608501" lon="7.64583645388484">
        <ele>2085.7199999999998</ele>
        <time>2014-02-09T12:35:31Z</time>
      </trkpt>
      <trkpt lat="45.888339662924409" lon="7.645654734224081">
        <ele>2083.3099999999999</ele>
        <time>2014-02-09T12:35:44Z</time>
      </trkpt>
      <trkpt lat="45.888361539691687" lon="7.64561609365046">
        <ele>2081.8699999999999</ele>
        <time>2014-02-09T12:35:59Z</time>
      </trkpt>
      <trkpt lat="45.888431193307042" lon="7.645492376759648">
        <ele>2078.9899999999998</ele>
        <time>2014-02-09T12:36:09Z</time>
      </trkpt>
      <trkpt lat="45.888521550223231" lon="7.645359188318253">
        <ele>2075.6199999999999</ele>
        <time>2014-02-09T12:36:19Z</time>
      </trkpt>
      <trkpt lat="45.888583827763796" lon="7.645260617136955">
        <ele>2074.1799999999998</ele>
        <time>2014-02-09T12:36:26Z</time>
      </trkpt>
      <trkpt lat="45.888691116124392" lon="7.645065486431122">
        <ele>2071.7800000000002</ele>
        <time>2014-02-09T12:36:38Z</time>
      </trkpt>
      <trkpt lat="45.88876923546195" lon="7.644915031269193">
        <ele>2070.3400000000001</ele>
        <time>2014-02-09T12:36:49Z</time>
      </trkpt>
      <trkpt lat="45.888909297063947" lon="7.644738424569368">
        <ele>2066.9699999999998</ele>
        <time>2014-02-09T12:37:02Z</time>
      </trkpt>
      <trkpt lat="45.888959001749754" lon="7.644668351858854">
        <ele>2066.4899999999998</ele>
        <time>2014-02-09T12:37:07Z</time>
      </trkpt>
      <trkpt lat="45.889022285118699" lon="7.644446901977062">
        <ele>2066.4899999999998</ele>
        <time>2014-02-09T12:37:20Z</time>
      </trkpt>
      <trkpt lat="45.889026559889317" lon="7.644432066008449">
        <ele>2066.4899999999998</ele>
        <time>2014-02-09T12:37:21Z</time>
      </trkpt>
      <trkpt lat="45.889079365879297" lon="7.644188487902284">
        <ele>2063.6100000000001</ele>
        <time>2014-02-09T12:37:36Z</time>
      </trkpt>
      <trkpt lat="45.88916989043355" lon="7.643953794613481">
        <ele>2061.6799999999998</ele>
        <time>2014-02-09T12:37:49Z</time>
      </trkpt>
      <trkpt lat="45.88921339251101" lon="7.643698146566749">
        <ele>2059.7600000000002</ele>
        <time>2014-02-09T12:38:03Z</time>
      </trkpt>
      <trkpt lat="45.889191431924701" lon="7.643656991422176">
        <ele>2058.3200000000002</ele>
        <time>2014-02-09T12:38:15Z</time>
      </trkpt>
      <trkpt lat="45.889127310365438" lon="7.643428836017847">
        <ele>2055.4400000000001</ele>
        <time>2014-02-09T12:38:28Z</time>
      </trkpt>
      <trkpt lat="45.889102667570114" lon="7.643379215151072">
        <ele>2054.96</ele>
        <time>2014-02-09T12:38:31Z</time>
      </trkpt>
      <trkpt lat="45.889071905985475" lon="7.643292210996151">
        <ele>2053.0300000000002</ele>
        <time>2014-02-09T12:38:36Z</time>
      </trkpt>
      <trkpt lat="45.88906335644424" lon="7.643245859071612">
        <ele>2052.5500000000002</ele>
        <time>2014-02-09T12:38:43Z</time>
      </trkpt>
      <trkpt lat="45.889029577374458" lon="7.64302046969533">
        <ele>2048.71</ele>
        <time>2014-02-09T12:38:55Z</time>
      </trkpt>
      <trkpt lat="45.889023374766111" lon="7.643001526594162">
        <ele>2047.75</ele>
        <time>2014-02-09T12:38:56Z</time>
      </trkpt>
      <trkpt lat="45.888958247378469" lon="7.642932627350092">
        <ele>2045.3399999999999</ele>
        <time>2014-02-09T12:39:03Z</time>
      </trkpt>
      <trkpt lat="45.888923462480307" lon="7.64292910695076">
        <ele>2044.8599999999999</ele>
        <time>2014-02-09T12:39:06Z</time>
      </trkpt>
      <trkpt lat="45.888904184103012" lon="7.642927514389157">
        <ele>2043.9000000000001</ele>
        <time>2014-02-09T12:39:08Z</time>
      </trkpt>
      <trkpt lat="45.888861771672964" lon="7.642949223518372">
        <ele>2042.46</ele>
        <time>2014-02-09T12:39:12Z</time>
      </trkpt>
      <trkpt lat="45.888771582394838" lon="7.643099008128047">
        <ele>2039.0899999999999</ele>
        <time>2014-02-09T12:39:24Z</time>
      </trkpt>
      <trkpt lat="45.888748364523053" lon="7.643243344500661">
        <ele>2037.1700000000001</ele>
        <time>2014-02-09T12:39:32Z</time>
      </trkpt>
      <trkpt lat="45.888730846345425" lon="7.643311908468604">
        <ele>2036.21</ele>
        <time>2014-02-09T12:39:36Z</time>
      </trkpt>
      <trkpt lat="45.88870326988399" lon="7.64354333281517">
        <ele>2032.8399999999999</ele>
        <time>2014-02-09T12:39:49Z</time>
      </trkpt>
      <trkpt lat="45.888660354539752" lon="7.643780456855893">
        <ele>2031.4000000000001</ele>
        <time>2014-02-09T12:40:03Z</time>
      </trkpt>
      <trkpt lat="45.888618780300021" lon="7.643831083551049">
        <ele>2031.4000000000001</ele>
        <time>2014-02-09T12:40:17Z</time>
      </trkpt>
      <trkpt lat="45.888604950159788" lon="7.643837621435523">
        <ele>2031.4000000000001</ele>
        <time>2014-02-09T12:40:40Z</time>
      </trkpt>
      <trkpt lat="45.888603357598186" lon="7.643847595900297">
        <ele>2031.8800000000001</ele>
        <time>2014-02-09T12:40:53Z</time>
      </trkpt>
      <trkpt lat="45.888608135282993" lon="7.64383745379746">
        <ele>2031.8800000000001</ele>
        <time>2014-02-09T12:41:13Z</time>
      </trkpt>
      <trkpt lat="45.888621043413877" lon="7.643865784630179">
        <ele>2032.3599999999999</ele>
        <time>2014-02-09T12:41:40Z</time>
      </trkpt>
      <trkpt lat="45.888603189960122" lon="7.643831502646208">
        <ele>2031.4000000000001</ele>
        <time>2014-02-09T12:42:10Z</time>
      </trkpt>
      <trkpt lat="45.888605117797852" lon="7.643810212612152">
        <ele>2031.8800000000001</ele>
        <time>2014-02-09T12:42:27Z</time>
      </trkpt>
      <trkpt lat="45.888605872169137" lon="7.64382379129529">
        <ele>2031.4000000000001</ele>
        <time>2014-02-09T12:42:46Z</time>
      </trkpt>
      <trkpt lat="45.888598160818219" lon="7.643832005560398">
        <ele>2031.8800000000001</ele>
        <time>2014-02-09T12:43:10Z</time>
      </trkpt>
      <trkpt lat="45.888601513579488" lon="7.643833681941032">
        <ele>2032.3599999999999</ele>
        <time>2014-02-09T12:43:28Z</time>
      </trkpt>
      <trkpt lat="45.888600591570139" lon="7.643859330564737">
        <ele>2030.4400000000001</ele>
        <time>2014-02-09T12:44:02Z</time>
      </trkpt>
      <trkpt lat="45.88859723880887" lon="7.643831418827176">
        <ele>2030.9200000000001</ele>
        <time>2014-02-09T12:44:26Z</time>
      </trkpt>
      <trkpt lat="45.888601010665298" lon="7.643810296431184">
        <ele>2030.9200000000001</ele>
        <time>2014-02-09T12:44:41Z</time>
      </trkpt>
      <trkpt lat="45.888608051463962" lon="7.643817588686943">
        <ele>2030.9200000000001</ele>
        <time>2014-02-09T12:45:03Z</time>
      </trkpt>
      <trkpt lat="45.888587767258286" lon="7.643778109923005">
        <ele>2030.4400000000001</ele>
        <time>2014-02-09T12:45:23Z</time>
      </trkpt>
      <trkpt lat="45.88858743198216" lon="7.643753131851554">
        <ele>2029.96</ele>
        <time>2014-02-09T12:45:25Z</time>
      </trkpt>
      <trkpt lat="45.888579888269305" lon="7.643595887348056">
        <ele>2025.6400000000001</ele>
        <time>2014-02-09T12:45:37Z</time>
      </trkpt>
      <trkpt lat="45.888534039258957" lon="7.643409473821521">
        <ele>2022.75</ele>
        <time>2014-02-09T12:45:50Z</time>
      </trkpt>
      <trkpt lat="45.888468828052282" lon="7.643230939283967">
        <ele>2020.3499999999999</ele>
        <time>2014-02-09T12:46:03Z</time>
      </trkpt>
      <trkpt lat="45.888389199972153" lon="7.643027259036899">
        <ele>2018.9100000000001</ele>
        <time>2014-02-09T12:46:18Z</time>
      </trkpt>
      <trkpt lat="45.888315103948116" lon="7.642816286534071">
        <ele>2016.5</ele>
        <time>2014-02-09T12:46:33Z</time>
      </trkpt>
      <trkpt lat="45.888243522495031" lon="7.64260464347899">
        <ele>2013.1400000000001</ele>
        <time>2014-02-09T12:46:48Z</time>
      </trkpt>
      <trkpt lat="45.888174204155803" lon="7.642394928261638">
        <ele>2010.25</ele>
        <time>2014-02-09T12:47:02Z</time>
      </trkpt>
      <trkpt lat="45.888117626309395" lon="7.642233828082681">
        <ele>2007.3699999999999</ele>
        <time>2014-02-09T12:47:13Z</time>
      </trkpt>
      <trkpt lat="45.888125505298376" lon="7.642016401514411">
        <ele>2006.4100000000001</ele>
        <time>2014-02-09T12:47:26Z</time>
      </trkpt>
      <trkpt lat="45.888127014040947" lon="7.641935516148806">
        <ele>2004.01</ele>
        <time>2014-02-09T12:47:31Z</time>
      </trkpt>
      <trkpt lat="45.888160541653633" lon="7.64188539236784">
        <ele>2003.04</ele>
        <time>2014-02-09T12:47:36Z</time>
      </trkpt>
      <trkpt lat="45.888195661827922" lon="7.64182579703629">
        <ele>2001.5999999999999</ele>
        <time>2014-02-09T12:47:42Z</time>
      </trkpt>
      <trkpt lat="45.888185184448957" lon="7.641808278858662">
        <ele>2000.6400000000001</ele>
        <time>2014-02-09T12:47:45Z</time>
      </trkpt>
      <trkpt lat="45.888075046241283" lon="7.641805009916425">
        <ele>1997.76</ele>
        <time>2014-02-09T12:47:55Z</time>
      </trkpt>
      <trkpt lat="45.88794831186533" lon="7.641837783157826">
        <ele>1994.3900000000001</ele>
        <time>2014-02-09T12:48:07Z</time>
      </trkpt>
      <trkpt lat="45.887862062081695" lon="7.641899641603231">
        <ele>1991.99</ele>
        <time>2014-02-09T12:48:19Z</time>
      </trkpt>
      <trkpt lat="45.887832976877689" lon="7.641922440379858">
        <ele>1991.03</ele>
        <time>2014-02-09T12:48:24Z</time>
      </trkpt>
      <trkpt lat="45.887765083462" lon="7.64189662411809">
        <ele>1988.1400000000001</ele>
        <time>2014-02-09T12:48:32Z</time>
      </trkpt>
      <trkpt lat="45.887756617739797" lon="7.64184046536684">
        <ele>1986.7</ele>
        <time>2014-02-09T12:48:36Z</time>
      </trkpt>
      <trkpt lat="45.88770498521626" lon="7.641742983832955">
        <ele>1983.8199999999999</ele>
        <time>2014-02-09T12:48:48Z</time>
      </trkpt>
      <trkpt lat="45.887684533372521" lon="7.641751449555159">
        <ele>1983.8199999999999</ele>
        <time>2014-02-09T12:48:51Z</time>
      </trkpt>
      <trkpt lat="45.887645641341805" lon="7.641921350732446">
        <ele>1980.45</ele>
        <time>2014-02-09T12:49:06Z</time>
      </trkpt>
      <trkpt lat="45.8876096829772" lon="7.642091335728765">
        <ele>1977.5699999999999</ele>
        <time>2014-02-09T12:49:19Z</time>
      </trkpt>
      <trkpt lat="45.887573976069689" lon="7.642259476706386">
        <ele>1976.1300000000001</ele>
        <time>2014-02-09T12:49:33Z</time>
      </trkpt>
      <trkpt lat="45.88752712123096" lon="7.642222009599209">
        <ele>1974.6900000000001</ele>
        <time>2014-02-09T12:49:39Z</time>
      </trkpt>
      <trkpt lat="45.887464676052332" lon="7.642060741782188">
        <ele>1970.8399999999999</ele>
        <time>2014-02-09T12:49:52Z</time>
      </trkpt>
      <trkpt lat="45.887432573363185" lon="7.641961583867669">
        <ele>1967.96</ele>
        <time>2014-02-09T12:50:00Z</time>
      </trkpt>
      <trkpt lat="45.887382784858346" lon="7.641777349635959">
        <ele>1965.55</ele>
        <time>2014-02-09T12:50:14Z</time>
      </trkpt>
      <trkpt lat="45.88732386007905" lon="7.641634605824947">
        <ele>1962.1900000000001</ele>
        <time>2014-02-09T12:50:27Z</time>
      </trkpt>
      <trkpt lat="45.887278681620955" lon="7.64148767106235">
        <ele>1959.3</ele>
        <time>2014-02-09T12:50:39Z</time>
      </trkpt>
      <trkpt lat="45.887278849259019" lon="7.641443163156509">
        <ele>1959.78</ele>
        <time>2014-02-09T12:50:55Z</time>
      </trkpt>
      <trkpt lat="45.887272311374545" lon="7.641407456248999">
        <ele>1958.8199999999999</ele>
        <time>2014-02-09T12:50:59Z</time>
      </trkpt>
      <trkpt lat="45.887233503162861" lon="7.6412433385849">
        <ele>1955.46</ele>
        <time>2014-02-09T12:51:12Z</time>
      </trkpt>
      <trkpt lat="45.887197377160192" lon="7.641115766018629">
        <ele>1952.5699999999999</ele>
        <time>2014-02-09T12:51:25Z</time>
      </trkpt>
      <trkpt lat="45.887179942801595" lon="7.641188437119126">
        <ele>1951.6099999999999</ele>
        <time>2014-02-09T12:51:39Z</time>
      </trkpt>
      <trkpt lat="45.8871796913445" lon="7.64119740575552">
        <ele>1951.6099999999999</ele>
        <time>2014-02-09T12:51:40Z</time>
      </trkpt>
      <trkpt lat="45.887146415188909" lon="7.641426734626293">
        <ele>1948.73</ele>
        <time>2014-02-09T12:51:55Z</time>
      </trkpt>
      <trkpt lat="45.88707709684968" lon="7.641572579741478">
        <ele>1947.29</ele>
        <time>2014-02-09T12:52:05Z</time>
      </trkpt>
      <trkpt lat="45.887049855664372" lon="7.641634605824947">
        <ele>1945.8499999999999</ele>
        <time>2014-02-09T12:52:09Z</time>
      </trkpt>
      <trkpt lat="45.887017752975225" lon="7.641798807308078">
        <ele>1943.4400000000001</ele>
        <time>2014-02-09T12:52:21Z</time>
      </trkpt>
      <trkpt lat="45.887030409649014" lon="7.641902323812246">
        <ele>1943.4400000000001</ele>
        <time>2014-02-09T12:52:28Z</time>
      </trkpt>
      <trkpt lat="45.887013142928481" lon="7.642021765932441">
        <ele>1941.04</ele>
        <time>2014-02-09T12:52:35Z</time>
      </trkpt>
      <trkpt lat="45.887004928663373" lon="7.642165767028928">
        <ele>1938.6400000000001</ele>
        <time>2014-02-09T12:52:44Z</time>
      </trkpt>
      <trkpt lat="45.886955643072724" lon="7.64212142676115">
        <ele>1936.23</ele>
        <time>2014-02-09T12:52:55Z</time>
      </trkpt>
      <trkpt lat="45.886954637244344" lon="7.642086558043957">
        <ele>1936.71</ele>
        <time>2014-02-09T12:53:05Z</time>
      </trkpt>
      <trkpt lat="45.886916918680072" lon="7.641900898888707">
        <ele>1934.3099999999999</ele>
        <time>2014-02-09T12:53:20Z</time>
      </trkpt>
      <trkpt lat="45.886903172358871" lon="7.641914058476687">
        <ele>1935.75</ele>
        <time>2014-02-09T12:53:30Z</time>
      </trkpt>
      <trkpt lat="45.886909794062376" lon="7.641922943294048">
        <ele>1936.71</ele>
        <time>2014-02-09T12:53:50Z</time>
      </trkpt>
      <trkpt lat="45.886934101581573" lon="7.641907772049308">
        <ele>1936.23</ele>
        <time>2014-02-09T12:54:17Z</time>
      </trkpt>
      <trkpt lat="45.886933095753193" lon="7.641896959394217">
        <ele>1936.23</ele>
        <time>2014-02-09T12:54:35Z</time>
      </trkpt>
      <trkpt lat="45.886912308633327" lon="7.64191766269505">
        <ele>1936.23</ele>
        <time>2014-02-09T12:54:53Z</time>
      </trkpt>
      <trkpt lat="45.886906776577234" lon="7.641920763999224">
        <ele>1935.75</ele>
        <time>2014-02-09T12:55:16Z</time>
      </trkpt>
      <trkpt lat="45.886917421594262" lon="7.641899976879358">
        <ele>1935.27</ele>
        <time>2014-02-09T12:55:34Z</time>
      </trkpt>
      <trkpt lat="45.886896550655365" lon="7.641871143132448">
        <ele>1934.79</ele>
        <time>2014-02-09T12:55:49Z</time>
      </trkpt>
      <trkpt lat="45.886905770748854" lon="7.641893187537789">
        <ele>1935.75</ele>
        <time>2014-02-09T12:56:10Z</time>
      </trkpt>
      <trkpt lat="45.886896131560206" lon="7.641933001577854">
        <ele>1935.75</ele>
        <time>2014-02-09T12:56:21Z</time>
      </trkpt>
      <trkpt lat="45.886890683323145" lon="7.641918919980526">
        <ele>1935.27</ele>
        <time>2014-02-09T12:56:37Z</time>
      </trkpt>
      <trkpt lat="45.886868219822645" lon="7.641840968281031">
        <ele>1935.27</ele>
        <time>2014-02-09T12:56:53Z</time>
      </trkpt>
      <trkpt lat="45.886800326406956" lon="7.641685316339135">
        <ele>1932.8699999999999</ele>
        <time>2014-02-09T12:57:08Z</time>
      </trkpt>
      <trkpt lat="45.886770067736506" lon="7.641589008271694">
        <ele>1930.95</ele>
        <time>2014-02-09T12:57:20Z</time>
      </trkpt>
      <trkpt lat="45.886755986139178" lon="7.641498064622283">
        <ele>1928.54</ele>
        <time>2014-02-09T12:57:29Z</time>
      </trkpt>
      <trkpt lat="45.886782389134169" lon="7.641336042433977">
        <ele>1924.7</ele>
        <time>2014-02-09T12:57:42Z</time>
      </trkpt>
      <trkpt lat="45.886786747723818" lon="7.641309890896082">
        <ele>1924.22</ele>
        <time>2014-02-09T12:57:44Z</time>
      </trkpt>
      <trkpt lat="45.886784316971898" lon="7.641191789880395">
        <ele>1921.8099999999999</ele>
        <time>2014-02-09T12:57:54Z</time>
      </trkpt>
      <trkpt lat="45.886777695268393" lon="7.64115390367806">
        <ele>1920.3699999999999</ele>
        <time>2014-02-09T12:57:57Z</time>
      </trkpt>
      <trkpt lat="45.886722123250365" lon="7.641018703579903">
        <ele>1917.49</ele>
        <time>2014-02-09T12:58:08Z</time>
      </trkpt>
      <trkpt lat="45.886652050539851" lon="7.640865230932832">
        <ele>1914.5999999999999</ele>
        <time>2014-02-09T12:58:22Z</time>
      </trkpt>
      <trkpt lat="45.88667057454586" lon="7.640740089118481">
        <ele>1912.2</ele>
        <time>2014-02-09T12:58:33Z</time>
      </trkpt>
      <trkpt lat="45.886685913428664" lon="7.640649564564228">
        <ele>1911.24</ele>
        <time>2014-02-09T12:58:39Z</time>
      </trkpt>
      <trkpt lat="45.886689685285091" lon="7.64058468863368">
        <ele>1909.8</ele>
        <time>2014-02-09T12:58:42Z</time>
      </trkpt>
      <trkpt lat="45.886733271181583" lon="7.640447476878762">
        <ele>1907.3900000000001</ele>
        <time>2014-02-09T12:58:58Z</time>
      </trkpt>
      <trkpt lat="45.886692618951201" lon="7.640485027804971">
        <ele>1906.9100000000001</ele>
        <time>2014-02-09T12:59:03Z</time>
      </trkpt>
      <trkpt lat="45.886575104668736" lon="7.640557950362563">
        <ele>1904.03</ele>
        <time>2014-02-09T12:59:16Z</time>
      </trkpt>
      <trkpt lat="45.886545768007636" lon="7.640594998374581">
        <ele>1903.0699999999999</ele>
        <time>2014-02-09T12:59:30Z</time>
      </trkpt>
      <trkpt lat="45.886532608419657" lon="7.640596171841025">
        <ele>1903.0699999999999</ele>
        <time>2014-02-09T12:59:51Z</time>
      </trkpt>
      <trkpt lat="45.886540906503797" lon="7.640567254275084">
        <ele>1903.0699999999999</ele>
        <time>2014-02-09T13:00:08Z</time>
      </trkpt>
      <trkpt lat="45.886546270921826" lon="7.640549903735519">
        <ele>1902.5899999999999</ele>
        <time>2014-02-09T13:00:26Z</time>
      </trkpt>
      <trkpt lat="45.886542918160558" lon="7.640547975897789">
        <ele>1902.5899999999999</ele>
        <time>2014-02-09T13:00:41Z</time>
      </trkpt>
      <trkpt lat="45.886527914553881" lon="7.640527440235019">
        <ele>1902.1099999999999</ele>
        <time>2014-02-09T13:00:43Z</time>
      </trkpt>
      <trkpt lat="45.886523639783263" lon="7.640490476042032">
        <ele>1901.6300000000001</ele>
        <time>2014-02-09T13:00:46Z</time>
      </trkpt>
      <trkpt lat="45.886526992544532" lon="7.640443202108145">
        <ele>1900.6600000000001</ele>
        <time>2014-02-09T13:00:50Z</time>
      </trkpt>
      <trkpt lat="45.886531602591276" lon="7.640297692269087">
        <ele>1897.3</ele>
        <time>2014-02-09T13:01:00Z</time>
      </trkpt>
      <trkpt lat="45.886526238173246" lon="7.640266343951225">
        <ele>1896.8199999999999</ele>
        <time>2014-02-09T13:01:02Z</time>
      </trkpt>
      <trkpt lat="45.886522969231009" lon="7.640191409736872">
        <ele>1895.8599999999999</ele>
        <time>2014-02-09T13:01:07Z</time>
      </trkpt>
      <trkpt lat="45.886506792157888" lon="7.640160648152232">
        <ele>1895.8599999999999</ele>
        <time>2014-02-09T13:01:10Z</time>
      </trkpt>
      <trkpt lat="45.886519197374582" lon="7.640118319541216">
        <ele>1892.01</ele>
        <time>2014-02-09T13:01:14Z</time>
      </trkpt>
      <trkpt lat="45.88661927729845" lon="7.640030309557915">
        <ele>1888.1700000000001</ele>
        <time>2014-02-09T13:01:26Z</time>
      </trkpt>
      <trkpt lat="45.886695887893438" lon="7.639926876872778">
        <ele>1886.72</ele>
        <time>2014-02-09T13:01:39Z</time>
      </trkpt>
      <trkpt lat="45.88674140162766" lon="7.639880608767271">
        <ele>1885.28</ele>
        <time>2014-02-09T13:01:46Z</time>
      </trkpt>
      <trkpt lat="45.886782221496105" lon="7.639835262671113">
        <ele>1884.3199999999999</ele>
        <time>2014-02-09T13:01:52Z</time>
      </trkpt>
      <trkpt lat="45.886844331398606" lon="7.639679862186313">
        <ele>1881.4400000000001</ele>
        <time>2014-02-09T13:02:06Z</time>
      </trkpt>
      <trkpt lat="45.886824047192931" lon="7.63966066762805">
        <ele>1880</ele>
        <time>2014-02-09T13:02:12Z</time>
      </trkpt>
      <trkpt lat="45.886802421882749" lon="7.639671731740236">
        <ele>1879.51</ele>
        <time>2014-02-09T13:02:14Z</time>
      </trkpt>
      <trkpt lat="45.886659007519484" lon="7.639768877997994">
        <ele>1877.1099999999999</ele>
        <time>2014-02-09T13:02:28Z</time>
      </trkpt>
      <trkpt lat="45.886588348075747" lon="7.639733254909515">
        <ele>1876.1500000000001</ele>
        <time>2014-02-09T13:02:36Z</time>
      </trkpt>
      <trkpt lat="45.886596646159887" lon="7.639680113643408">
        <ele>1876.1500000000001</ele>
        <time>2014-02-09T13:02:39Z</time>
      </trkpt>
      <trkpt lat="45.886689350008965" lon="7.639525467529893">
        <ele>1871.8199999999999</ele>
        <time>2014-02-09T13:02:52Z</time>
      </trkpt>
      <trkpt lat="45.886734277009964" lon="7.639417173340917">
        <ele>1870.3800000000001</ele>
        <time>2014-02-09T13:03:04Z</time>
      </trkpt>
      <trkpt lat="45.88677073828876" lon="7.639354979619384">
        <ele>1868.9400000000001</ele>
        <time>2014-02-09T13:03:12Z</time>
      </trkpt>
      <trkpt lat="45.88683276437223" lon="7.639246936887503">
        <ele>1865.5799999999999</ele>
        <time>2014-02-09T13:03:24Z</time>
      </trkpt>
      <trkpt lat="45.886886743828654" lon="7.63914224691689">
        <ele>1862.6900000000001</ele>
        <time>2014-02-09T13:03:37Z</time>
      </trkpt>
      <trkpt lat="45.886972574517131" lon="7.639014674350619">
        <ele>1859.3299999999999</ele>
        <time>2014-02-09T13:03:49Z</time>
      </trkpt>
      <trkpt lat="45.887002497911453" lon="7.638963125646114">
        <ele>1857.8900000000001</ele>
        <time>2014-02-09T13:03:53Z</time>
      </trkpt>
      <trkpt lat="45.88693686760962" lon="7.638936974108219">
        <ele>1856.9200000000001</ele>
        <time>2014-02-09T13:04:03Z</time>
      </trkpt>
      <trkpt lat="45.886835949495435" lon="7.638979554176331">
        <ele>1855</ele>
        <time>2014-02-09T13:04:17Z</time>
      </trkpt>
      <trkpt lat="45.88681080378592" lon="7.638963963836432">
        <ele>1854.52</ele>
        <time>2014-02-09T13:04:35Z</time>
      </trkpt>
      <trkpt lat="45.886817509308457" lon="7.638950468972325">
        <ele>1854.04</ele>
        <time>2014-02-09T13:04:52Z</time>
      </trkpt>
      <trkpt lat="45.886826645582914" lon="7.638943176716566">
        <ele>1855</ele>
        <time>2014-02-09T13:04:57Z</time>
      </trkpt>
      <trkpt lat="45.886808373034" lon="7.638953654095531">
        <ele>1855.48</ele>
        <time>2014-02-09T13:05:14Z</time>
      </trkpt>
      <trkpt lat="45.886797225102782" lon="7.638963209465146">
        <ele>1855.96</ele>
        <time>2014-02-09T13:05:24Z</time>
      </trkpt>
      <trkpt lat="45.886805858463049" lon="7.639002520591021">
        <ele>1855</ele>
        <time>2014-02-09T13:05:38Z</time>
      </trkpt>
      <trkpt lat="45.886785658076406" lon="7.639021212235093">
        <ele>1855.96</ele>
        <time>2014-02-09T13:05:50Z</time>
      </trkpt>
      <trkpt lat="45.88679370470345" lon="7.639005370438099">
        <ele>1856.4400000000001</ele>
        <time>2014-02-09T13:05:56Z</time>
      </trkpt>
      <trkpt lat="45.886761853471398" lon="7.639026660472155">
        <ele>1855.48</ele>
        <time>2014-02-09T13:06:14Z</time>
      </trkpt>
      <trkpt lat="45.886771995574236" lon="7.639001850038767">
        <ele>1854.52</ele>
        <time>2014-02-09T13:06:32Z</time>
      </trkpt>
      <trkpt lat="45.886753387749195" lon="7.639020876958966">
        <ele>1854.52</ele>
        <time>2014-02-09T13:06:53Z</time>
      </trkpt>
      <trkpt lat="45.886759422719479" lon="7.638987516984344">
        <ele>1854.04</ele>
        <time>2014-02-09T13:07:05Z</time>
      </trkpt>
      <trkpt lat="45.886763194575906" lon="7.638987600803375">
        <ele>1854.52</ele>
        <time>2014-02-09T13:07:35Z</time>
      </trkpt>
      <trkpt lat="45.886746933683753" lon="7.638996569439769">
        <ele>1854.52</ele>
        <time>2014-02-09T13:07:56Z</time>
      </trkpt>
      <trkpt lat="45.886783646419644" lon="7.638963041827083">
        <ele>1855</ele>
        <time>2014-02-09T13:08:16Z</time>
      </trkpt>
      <trkpt lat="45.88674726895988" lon="7.638957677409053">
        <ele>1854.52</ele>
        <time>2014-02-09T13:08:42Z</time>
      </trkpt>
      <trkpt lat="45.886642411351204" lon="7.63895264826715">
        <ele>1853.0799999999999</ele>
        <time>2014-02-09T13:08:57Z</time>
      </trkpt>
      <trkpt lat="45.886547863483429" lon="7.63897268101573">
        <ele>1851.6400000000001</ele>
        <time>2014-02-09T13:09:13Z</time>
      </trkpt>
      <trkpt lat="45.886433282867074" lon="7.639016769826412">
        <ele>1850.6800000000001</ele>
        <time>2014-02-09T13:09:28Z</time>
      </trkpt>
      <trkpt lat="45.886324318125844" lon="7.638953486457467">
        <ele>1848.27</ele>
        <time>2014-02-09T13:09:42Z</time>
      </trkpt>
      <trkpt lat="45.886273523792624" lon="7.638841671869159">
        <ele>1845.3900000000001</ele>
        <time>2014-02-09T13:09:56Z</time>
      </trkpt>
      <trkpt lat="45.886230692267418" lon="7.638772940263152">
        <ele>1842.02</ele>
        <time>2014-02-09T13:10:06Z</time>
      </trkpt>
      <trkpt lat="45.886221304535866" lon="7.638774951919913">
        <ele>1841.54</ele>
        <time>2014-02-09T13:10:07Z</time>
      </trkpt>
      <trkpt lat="45.886197499930859" lon="7.638768497854471">
        <ele>1841.54</ele>
        <time>2014-02-09T13:10:10Z</time>
      </trkpt>
      <trkpt lat="45.886120134964585" lon="7.638842845335603">
        <ele>1839.6199999999999</ele>
        <time>2014-02-09T13:10:19Z</time>
      </trkpt>
      <trkpt lat="45.886001363396645" lon="7.63896681368351">
        <ele>1836.74</ele>
        <time>2014-02-09T13:10:35Z</time>
      </trkpt>
      <trkpt lat="45.885950401425362" lon="7.638997575268149">
        <ele>1836.26</ele>
        <time>2014-02-09T13:10:47Z</time>
      </trkpt>
      <trkpt lat="45.885921148583293" lon="7.639021296054125">
        <ele>1835.29</ele>
        <time>2014-02-09T13:11:01Z</time>
      </trkpt>
      <trkpt lat="45.885892314836383" lon="7.639037389308214">
        <ele>1835.77</ele>
        <time>2014-02-09T13:11:17Z</time>
      </trkpt>
      <trkpt lat="45.885905222967267" lon="7.639054991304874">
        <ele>1834.8099999999999</ele>
        <time>2014-02-09T13:11:33Z</time>
      </trkpt>
      <trkpt lat="45.885885693132877" lon="7.63900394551456">
        <ele>1836.26</ele>
        <time>2014-02-09T13:12:04Z</time>
      </trkpt>
      <trkpt lat="45.885823331773281" lon="7.638985170051456">
        <ele>1835.29</ele>
        <time>2014-02-09T13:12:16Z</time>
      </trkpt>
      <trkpt lat="45.885782847180963" lon="7.638940075412393">
        <ele>1835.29</ele>
        <time>2014-02-09T13:12:34Z</time>
      </trkpt>
      <trkpt lat="45.885775554925203" lon="7.638938901945949">
        <ele>1835.29</ele>
        <time>2014-02-09T13:12:35Z</time>
      </trkpt>
      <trkpt lat="45.885754013434052" lon="7.638934627175331">
        <ele>1834.8099999999999</ele>
        <time>2014-02-09T13:12:37Z</time>
      </trkpt>
      <trkpt lat="45.885704392567277" lon="7.638888861984015">
        <ele>1835.29</ele>
        <time>2014-02-09T13:12:50Z</time>
      </trkpt>
      <trkpt lat="45.885663153603673" lon="7.638872433453798">
        <ele>1834.3299999999999</ele>
        <time>2014-02-09T13:12:54Z</time>
      </trkpt>
      <trkpt lat="45.885580005124211" lon="7.638742430135608">
        <ele>1832.4100000000001</ele>
        <time>2014-02-09T13:13:04Z</time>
      </trkpt>
      <trkpt lat="45.885547399520874" lon="7.6384371612221">
        <ele>1829.53</ele>
        <time>2014-02-09T13:13:21Z</time>
      </trkpt>
      <trkpt lat="45.885532731190324" lon="7.638346636667848">
        <ele>1829.53</ele>
        <time>2014-02-09T13:13:27Z</time>
      </trkpt>
      <trkpt lat="45.885515296831727" lon="7.638074476271868">
        <ele>1826.6400000000001</ele>
        <time>2014-02-09T13:13:43Z</time>
      </trkpt>
      <trkpt lat="45.885552261024714" lon="7.637799549847841">
        <ele>1825.6800000000001</ele>
        <time>2014-02-09T13:14:00Z</time>
      </trkpt>
      <trkpt lat="45.885601295158267" lon="7.637655297294259">
        <ele>1822.3199999999999</ele>
        <time>2014-02-09T13:14:09Z</time>
      </trkpt>
      <trkpt lat="45.885611940175295" lon="7.637484557926655">
        <ele>1819.4300000000001</ele>
        <time>2014-02-09T13:14:18Z</time>
      </trkpt>
      <trkpt lat="45.88560582138598" lon="7.637265119701624">
        <ele>1816.0699999999999</ele>
        <time>2014-02-09T13:14:30Z</time>
      </trkpt>
      <trkpt lat="45.885605569928885" lon="7.63710075058043">
        <ele>1812.7</ele>
        <time>2014-02-09T13:14:40Z</time>
      </trkpt>
      <trkpt lat="45.885574975982308" lon="7.636929592117667">
        <ele>1809.3399999999999</ele>
        <time>2014-02-09T13:14:50Z</time>
      </trkpt>
      <trkpt lat="45.885498952120543" lon="7.636786932125688">
        <ele>1806.45</ele>
        <time>2014-02-09T13:15:00Z</time>
      </trkpt>
      <trkpt lat="45.885346904397011" lon="7.636665981262922">
        <ele>1803.0899999999999</ele>
        <time>2014-02-09T13:15:14Z</time>
      </trkpt>
      <trkpt lat="45.885322093963623" lon="7.636654414236546">
        <ele>1802.6099999999999</ele>
        <time>2014-02-09T13:15:16Z</time>
      </trkpt>
      <trkpt lat="45.885280519723892" lon="7.63662239536643">
        <ele>1801.1700000000001</ele>
        <time>2014-02-09T13:15:20Z</time>
      </trkpt>
      <trkpt lat="45.885097961872816" lon="7.636559782549739">
        <ele>1797.8</ele>
        <time>2014-02-09T13:15:35Z</time>
      </trkpt>
      <trkpt lat="45.8849330060184" lon="7.636483255773783">
        <ele>1797.8</ele>
        <time>2014-02-09T13:15:48Z</time>
      </trkpt>
      <trkpt lat="45.884879613295197" lon="7.636414943262935">
        <ele>1794.9200000000001</ele>
        <time>2014-02-09T13:15:56Z</time>
      </trkpt>
      <trkpt lat="45.884864944964647" lon="7.636452242732048">
        <ele>1794.4400000000001</ele>
        <time>2014-02-09T13:16:13Z</time>
      </trkpt>
      <trkpt lat="45.884881122037768" lon="7.636430030688644">
        <ele>1794.4400000000001</ele>
        <time>2014-02-09T13:16:35Z</time>
      </trkpt>
      <trkpt lat="45.884869052097201" lon="7.636465737596154">
        <ele>1794.4400000000001</ele>
        <time>2014-02-09T13:16:57Z</time>
      </trkpt>
      <trkpt lat="45.884878104552627" lon="7.636458361521363">
        <ele>1794.4400000000001</ele>
        <time>2014-02-09T13:17:19Z</time>
      </trkpt>
      <trkpt lat="45.884880116209388" lon="7.636437742039561">
        <ele>1794.4400000000001</ele>
        <time>2014-02-09T13:17:38Z</time>
      </trkpt>
      <trkpt lat="45.884871650487185" lon="7.636428689584136">
        <ele>1794.4400000000001</ele>
        <time>2014-02-09T13:17:54Z</time>
      </trkpt>
      <trkpt lat="45.884833931922913" lon="7.636477639898658">
        <ele>1794.4400000000001</ele>
        <time>2014-02-09T13:18:12Z</time>
      </trkpt>
      <trkpt lat="45.884704431518912" lon="7.636506138369441">
        <ele>1792.03</ele>
        <time>2014-02-09T13:18:23Z</time>
      </trkpt>
      <trkpt lat="45.884648272767663" lon="7.636522147804499">
        <ele>1791.55</ele>
        <time>2014-02-09T13:18:28Z</time>
      </trkpt>
      <trkpt lat="45.884762266650796" lon="7.636319389566779">
        <ele>1790.5899999999999</ele>
        <time>2014-02-09T13:18:40Z</time>
      </trkpt>
      <trkpt lat="45.884896963834763" lon="7.636115374043584">
        <ele>1788.6700000000001</ele>
        <time>2014-02-09T13:18:56Z</time>
      </trkpt>
      <trkpt lat="45.884944153949618" lon="7.635889817029238">
        <ele>1787.71</ele>
        <time>2014-02-09T13:19:09Z</time>
      </trkpt>
      <trkpt lat="45.884856479242444" lon="7.635718155652285">
        <ele>1787.71</ele>
        <time>2014-02-09T13:19:23Z</time>
      </trkpt>
      <trkpt lat="45.884908782318234" lon="7.635708767920733">
        <ele>1786.75</ele>
        <time>2014-02-09T13:19:34Z</time>
      </trkpt>
      <trkpt lat="45.884902495890856" lon="7.635725783184171">
        <ele>1786.75</ele>
        <time>2014-02-09T13:19:50Z</time>
      </trkpt>
      <trkpt lat="45.884898388758302" lon="7.635702816769481">
        <ele>1786.75</ele>
        <time>2014-02-09T13:20:08Z</time>
      </trkpt>
      <trkpt lat="45.884873494505882" lon="7.63573014177382">
        <ele>1788.1900000000001</ele>
        <time>2014-02-09T13:20:22Z</time>
      </trkpt>
      <trkpt lat="45.884882463142276" lon="7.635709187015891">
        <ele>1787.71</ele>
        <time>2014-02-09T13:20:33Z</time>
      </trkpt>
      <trkpt lat="45.884915739297867" lon="7.63563341461122">
        <ele>1783.8599999999999</ele>
        <time>2014-02-09T13:20:41Z</time>
      </trkpt>
      <trkpt lat="45.884878356009722" lon="7.635513050481677">
        <ele>1780.5</ele>
        <time>2014-02-09T13:20:47Z</time>
      </trkpt>
      <trkpt lat="45.88487290777266" lon="7.635498214513063">
        <ele>1779.54</ele>
        <time>2014-02-09T13:20:48Z</time>
      </trkpt>
      <trkpt lat="45.884854886680841" lon="7.635462004691362">
        <ele>1778.0999999999999</ele>
        <time>2014-02-09T13:20:50Z</time>
      </trkpt>
      <trkpt lat="45.88483183644712" lon="7.635397212579846">
        <ele>1774.73</ele>
        <time>2014-02-09T13:20:53Z</time>
      </trkpt>
      <trkpt lat="45.884810881689191" lon="7.63535094447434">
        <ele>1772.8099999999999</ele>
        <time>2014-02-09T13:21:03Z</time>
      </trkpt>
      <trkpt lat="45.884772660210729" lon="7.635283218696713">
        <ele>1770.4100000000001</ele>
        <time>2014-02-09T13:21:08Z</time>
      </trkpt>
      <trkpt lat="45.884725218638778" lon="7.635149611160159">
        <ele>1766.5599999999999</ele>
        <time>2014-02-09T13:21:18Z</time>
      </trkpt>
      <trkpt lat="45.884727900847793" lon="7.635089093819261">
        <ele>1765.1199999999999</ele>
        <time>2014-02-09T13:21:22Z</time>
      </trkpt>
      <trkpt lat="45.884694289416075" lon="7.634952468797565">
        <ele>1761.75</ele>
        <time>2014-02-09T13:21:32Z</time>
      </trkpt>
      <trkpt lat="45.884691020473838" lon="7.634929837659001">
        <ele>1761.27</ele>
        <time>2014-02-09T13:21:34Z</time>
      </trkpt>
      <trkpt lat="45.884694289416075" lon="7.634835289791226">
        <ele>1760.79</ele>
        <time>2014-02-09T13:21:41Z</time>
      </trkpt>
      <trkpt lat="45.884653469547629" lon="7.634640913456678">
        <ele>1758.3900000000001</ele>
        <time>2014-02-09T13:21:56Z</time>
      </trkpt>
      <trkpt lat="45.884681213647127" lon="7.634638901799917">
        <ele>1756.95</ele>
        <time>2014-02-09T13:22:05Z</time>
      </trkpt>
      <trkpt lat="45.884832758456469" lon="7.63448660261929">
        <ele>1754.54</ele>
        <time>2014-02-09T13:22:14Z</time>
      </trkpt>
      <trkpt lat="45.884850108996034" lon="7.634483501315117">
        <ele>1754.0599999999999</ele>
        <time>2014-02-09T13:22:16Z</time>
      </trkpt>
      <trkpt lat="45.884898388758302" lon="7.634506719186902">
        <ele>1753.0999999999999</ele>
        <time>2014-02-09T13:22:30Z</time>
      </trkpt>
      <trkpt lat="45.884899059310555" lon="7.634523650631309">
        <ele>1753.5799999999999</ele>
        <time>2014-02-09T13:22:45Z</time>
      </trkpt>
      <trkpt lat="45.884958654642105" lon="7.634582240134478">
        <ele>1753.0999999999999</ele>
        <time>2014-02-09T13:22:58Z</time>
      </trkpt>
      <trkpt lat="45.884926216676831" lon="7.63457452878356">
        <ele>1752.6199999999999</ele>
        <time>2014-02-09T13:23:12Z</time>
      </trkpt>
      <trkpt lat="45.884936358779669" lon="7.634581318125129">
        <ele>1752.6199999999999</ele>
        <time>2014-02-09T13:23:25Z</time>
      </trkpt>
      <trkpt lat="45.884932419285178" lon="7.634571762755513">
        <ele>1753.0999999999999</ele>
        <time>2014-02-09T13:23:41Z</time>
      </trkpt>
      <trkpt lat="45.884937783703208" lon="7.634569918736816">
        <ele>1752.1400000000001</ele>
        <time>2014-02-09T13:23:57Z</time>
      </trkpt>
      <trkpt lat="45.884954128414392" lon="7.634555837139487">
        <ele>1753.0999999999999</ele>
        <time>2014-02-09T13:24:10Z</time>
      </trkpt>
      <trkpt lat="45.884961672127247" lon="7.63456866145134">
        <ele>1752.6199999999999</ele>
        <time>2014-02-09T13:24:21Z</time>
      </trkpt>
      <trkpt lat="45.884925294667482" lon="7.634555585682392">
        <ele>1752.6199999999999</ele>
        <time>2014-02-09T13:24:40Z</time>
      </trkpt>
      <trkpt lat="45.884939962998033" lon="7.634527254849672">
        <ele>1752.1400000000001</ele>
        <time>2014-02-09T13:24:51Z</time>
      </trkpt>
      <trkpt lat="45.884947003796697" lon="7.634527841582894">
        <ele>1751.1800000000001</ele>
        <time>2014-02-09T13:25:00Z</time>
      </trkpt>
      <trkpt lat="45.884935185313225" lon="7.634578971192241">
        <ele>1751.6600000000001</ele>
        <time>2014-02-09T13:25:25Z</time>
      </trkpt>
      <trkpt lat="45.884923283010721" lon="7.634553909301758">
        <ele>1751.6600000000001</ele>
        <time>2014-02-09T13:25:47Z</time>
      </trkpt>
      <trkpt lat="45.8849036693573" lon="7.634594142436981">
        <ele>1751.6600000000001</ele>
        <time>2014-02-09T13:26:10Z</time>
      </trkpt>
      <trkpt lat="45.88488757610321" lon="7.634626245126128">
        <ele>1752.1400000000001</ele>
        <time>2014-02-09T13:26:31Z</time>
      </trkpt>
      <trkpt lat="45.884859999641776" lon="7.63464979827404">
        <ele>1751.6600000000001</ele>
        <time>2014-02-09T13:26:54Z</time>
      </trkpt>
      <trkpt lat="45.884849354624748" lon="7.634676033630967">
        <ele>1752.1400000000001</ele>
        <time>2014-02-09T13:27:13Z</time>
      </trkpt>
      <trkpt lat="45.884844409301877" lon="7.63469229452312">
        <ele>1751.6600000000001</ele>
        <time>2014-02-09T13:27:28Z</time>
      </trkpt>
      <trkpt lat="45.88484943844378" lon="7.634677207097411">
        <ele>1752.1400000000001</ele>
        <time>2014-02-09T13:27:51Z</time>
      </trkpt>
      <trkpt lat="45.884866872802377" lon="7.634607050567865">
        <ele>1752.1400000000001</ele>
        <time>2014-02-09T13:28:17Z</time>
      </trkpt>
      <trkpt lat="45.884876260533929" lon="7.634625155478716">
        <ele>1752.6199999999999</ele>
        <time>2014-02-09T13:28:39Z</time>
      </trkpt>
      <trkpt lat="45.884887408465147" lon="7.634623479098082">
        <ele>1752.6199999999999</ele>
        <time>2014-02-09T13:28:56Z</time>
      </trkpt>
      <trkpt lat="45.884885899722576" lon="7.634631022810936">
        <ele>1753.0999999999999</ele>
        <time>2014-02-09T13:29:22Z</time>
      </trkpt>
      <trkpt lat="45.884889839217067" lon="7.634614929556847">
        <ele>1753.0999999999999</ele>
        <time>2014-02-09T13:29:42Z</time>
      </trkpt>
      <trkpt lat="45.884880283847451" lon="7.634601015597582">
        <ele>1753.0999999999999</ele>
        <time>2014-02-09T13:30:07Z</time>
      </trkpt>
      <trkpt lat="45.884865699335933" lon="7.634623060002923">
        <ele>1753.5799999999999</ele>
        <time>2014-02-09T13:30:29Z</time>
      </trkpt>
      <trkpt lat="45.884855724871159" lon="7.63461702503264">
        <ele>1754.0599999999999</ele>
        <time>2014-02-09T13:30:45Z</time>
      </trkpt>
      <trkpt lat="45.884848767891526" lon="7.634625323116779">
        <ele>1753.5799999999999</ele>
        <time>2014-02-09T13:31:07Z</time>
      </trkpt>
      <trkpt lat="45.884848600253463" lon="7.634643511846662">
        <ele>1754.0599999999999</ele>
        <time>2014-02-09T13:31:26Z</time>
      </trkpt>
      <trkpt lat="45.884853629395366" lon="7.634671591222286">
        <ele>1754.54</ele>
        <time>2014-02-09T13:31:52Z</time>
      </trkpt>
      <trkpt lat="45.884845331311226" lon="7.634668406099081">
        <ele>1754.0599999999999</ele>
        <time>2014-02-09T13:32:09Z</time>
      </trkpt>
      <trkpt lat="45.88484893552959" lon="7.634675782173872">
        <ele>1754.54</ele>
        <time>2014-02-09T13:32:38Z</time>
      </trkpt>
      <trkpt lat="45.884855892509222" lon="7.634658934548497">
        <ele>1755.02</ele>
        <time>2014-02-09T13:33:03Z</time>
      </trkpt>
      <trkpt lat="45.884847426787019" lon="7.634648289531469">
        <ele>1755.02</ele>
        <time>2014-02-09T13:33:31Z</time>
      </trkpt>
      <trkpt lat="45.88484407402575" lon="7.634647367522121">
        <ele>1755.02</ele>
        <time>2014-02-09T13:33:57Z</time>
      </trkpt>
      <trkpt lat="45.8848518691957" lon="7.634667651727796">
        <ele>1755.5</ele>
        <time>2014-02-09T13:34:17Z</time>
      </trkpt>
      <trkpt lat="45.884849019348621" lon="7.634671004489064">
        <ele>1755.5</ele>
        <time>2014-02-09T13:34:32Z</time>
      </trkpt>
      <trkpt lat="45.884849773719907" lon="7.634667484089732">
        <ele>1755.99</ele>
        <time>2014-02-09T13:34:54Z</time>
      </trkpt>
      <trkpt lat="45.884863017126918" lon="7.63464979827404">
        <ele>1755.5</ele>
        <time>2014-02-09T13:35:18Z</time>
      </trkpt>
      <trkpt lat="45.884855473414063" lon="7.634642506018281">
        <ele>1755.99</ele>
        <time>2014-02-09T13:35:47Z</time>
      </trkpt>
      <trkpt lat="45.884858658537269" lon="7.63465516269207">
        <ele>1755.5</ele>
        <time>2014-02-09T13:36:07Z</time>
      </trkpt>
      <trkpt lat="45.884844409301877" lon="7.634655497968197">
        <ele>1755.5</ele>
        <time>2014-02-09T13:36:35Z</time>
      </trkpt>
      <trkpt lat="45.884841727092862" lon="7.634647451341152">
        <ele>1755.5</ele>
        <time>2014-02-09T13:36:53Z</time>
      </trkpt>
      <trkpt lat="45.884843654930592" lon="7.634660275653005">
        <ele>1755.5</ele>
        <time>2014-02-09T13:37:16Z</time>
      </trkpt>
      <trkpt lat="45.884844409301877" lon="7.634675446897745">
        <ele>1755.02</ele>
        <time>2014-02-09T13:37:36Z</time>
      </trkpt>
      <trkpt lat="45.884827310219407" lon="7.634693803265691">
        <ele>1755.5</ele>
        <time>2014-02-09T13:37:54Z</time>
      </trkpt>
      <trkpt lat="45.884843403473496" lon="7.634650971740484">
        <ele>1755.99</ele>
        <time>2014-02-09T13:38:15Z</time>
      </trkpt>
      <trkpt lat="45.884840888902545" lon="7.63464979827404">
        <ele>1756.47</ele>
        <time>2014-02-09T13:38:33Z</time>
      </trkpt>
      <trkpt lat="45.884921355172992" lon="7.634524237364531">
        <ele>1756.47</ele>
        <time>2014-02-09T13:38:51Z</time>
      </trkpt>
      <trkpt lat="45.88493786752224" lon="7.634500097483397">
        <ele>1757.4300000000001</ele>
        <time>2014-02-09T13:39:26Z</time>
      </trkpt>
      <trkpt lat="45.884936191141605" lon="7.634515855461359">
        <ele>1757.4300000000001</ele>
        <time>2014-02-09T13:39:50Z</time>
      </trkpt>
      <trkpt lat="45.884940885007381" lon="7.634532200172544">
        <ele>1757.9100000000001</ele>
        <time>2014-02-09T13:40:21Z</time>
      </trkpt>
      <trkpt lat="45.884946836158633" lon="7.634548796340823">
        <ele>1757.4300000000001</ele>
        <time>2014-02-09T13:40:51Z</time>
      </trkpt>
      <trkpt lat="45.884941639378667" lon="7.634521806612611">
        <ele>1757.4300000000001</ele>
        <time>2014-02-09T13:41:23Z</time>
      </trkpt>
      <trkpt lat="45.884941387921572" lon="7.634519459679723">
        <ele>1757.4300000000001</ele>
        <time>2014-02-09T13:41:52Z</time>
      </trkpt>
      <trkpt lat="45.884942477568984" lon="7.634515939280391">
        <ele>1756.95</ele>
        <time>2014-02-09T13:42:19Z</time>
      </trkpt>
      <trkpt lat="45.884943148121238" lon="7.634522393345833">
        <ele>1756.95</ele>
        <time>2014-02-09T13:42:49Z</time>
      </trkpt>
      <trkpt lat="45.884935185313225" lon="7.63452373445034">
        <ele>1757.4300000000001</ele>
        <time>2014-02-09T13:43:11Z</time>
      </trkpt>
      <trkpt lat="45.884940046817064" lon="7.634536223486066">
        <ele>1756.95</ele>
        <time>2014-02-09T13:43:32Z</time>
      </trkpt>
      <trkpt lat="45.884938118979335" lon="7.634530356153846">
        <ele>1756.95</ele>
        <time>2014-02-09T13:44:05Z</time>
      </trkpt>
      <trkpt lat="45.884929653257132" lon="7.634536977857351">
        <ele>1756.95</ele>
        <time>2014-02-09T13:44:42Z</time>
      </trkpt>
      <trkpt lat="45.884930156171322" lon="7.634533373638988">
        <ele>1756.47</ele>
        <time>2014-02-09T13:45:12Z</time>
      </trkpt>
      <trkpt lat="45.884942729026079" lon="7.634538989514113">
        <ele>1756.47</ele>
        <time>2014-02-09T13:45:42Z</time>
      </trkpt>
      <trkpt lat="45.884940549731255" lon="7.634522141888738">
        <ele>1755.99</ele>
        <time>2014-02-09T13:46:11Z</time>
      </trkpt>
      <trkpt lat="45.884927557781339" lon="7.634507808834314">
        <ele>1755.5</ele>
        <time>2014-02-09T13:46:38Z</time>
      </trkpt>
      <trkpt lat="45.884934011846781" lon="7.634496660903096">
        <ele>1755.99</ele>
        <time>2014-02-09T13:47:12Z</time>
      </trkpt>
      <trkpt lat="45.884928312152624" lon="7.634501522406936">
        <ele>1755.5</ele>
        <time>2014-02-09T13:47:50Z</time>
      </trkpt>
      <trkpt lat="45.884948512539268" lon="7.634514514356852">
        <ele>1755.5</ele>
        <time>2014-02-09T13:48:12Z</time>
      </trkpt>
      <trkpt lat="45.884950859472156" lon="7.634518034756184">
        <ele>1755.99</ele>
        <time>2014-02-09T13:48:35Z</time>
      </trkpt>
      <trkpt lat="45.8849589060992" lon="7.634525829926133">
        <ele>1755.99</ele>
        <time>2014-02-09T13:48:59Z</time>
      </trkpt>
      <trkpt lat="45.884946836158633" lon="7.634521471336484">
        <ele>1756.47</ele>
        <time>2014-02-09T13:49:29Z</time>
      </trkpt>
      <trkpt lat="45.884957816451788" lon="7.634537816047669">
        <ele>1755.99</ele>
        <time>2014-02-09T13:49:55Z</time>
      </trkpt>
      <trkpt lat="45.884951027110219" lon="7.634534630924463">
        <ele>1756.47</ele>
        <time>2014-02-09T13:50:20Z</time>
      </trkpt>
      <trkpt lat="45.884944153949618" lon="7.63451250270009">
        <ele>1756.95</ele>
        <time>2014-02-09T13:50:45Z</time>
      </trkpt>
      <trkpt lat="45.884944489225745" lon="7.634515352547169">
        <ele>1756.95</ele>
        <time>2014-02-09T13:51:10Z</time>
      </trkpt>
      <trkpt lat="45.884948512539268" lon="7.634537983685732">
        <ele>1756.47</ele>
        <time>2014-02-09T13:51:28Z</time>
      </trkpt>
      <trkpt lat="45.884945830330253" lon="7.634528176859021">
        <ele>1756.95</ele>
        <time>2014-02-09T13:51:48Z</time>
      </trkpt>
      <trkpt lat="45.884950188919902" lon="7.634505713358522">
        <ele>1756.47</ele>
        <time>2014-02-09T13:52:11Z</time>
      </trkpt>
      <trkpt lat="45.88492470793426" lon="7.634539324790239">
        <ele>1755.99</ele>
        <time>2014-02-09T13:52:36Z</time>
      </trkpt>
      <trkpt lat="45.884921438992023" lon="7.63456673361361">
        <ele>1755.99</ele>
        <time>2014-02-09T13:52:57Z</time>
      </trkpt>
      <trkpt lat="45.884928395971656" lon="7.634550975635648">
        <ele>1755.99</ele>
        <time>2014-02-09T13:53:24Z</time>
      </trkpt>
      <trkpt lat="45.884932754561305" lon="7.634554663673043">
        <ele>1755.5</ele>
        <time>2014-02-09T13:53:42Z</time>
      </trkpt>
      <trkpt lat="45.884919175878167" lon="7.634573103860021">
        <ele>1755.5</ele>
        <time>2014-02-09T13:54:01Z</time>
      </trkpt>
      <trkpt lat="45.884906938299537" lon="7.634570170193911">
        <ele>1755.5</ele>
        <time>2014-02-09T13:54:24Z</time>
      </trkpt>
      <trkpt lat="45.884915990754962" lon="7.634546114131808">
        <ele>1755.5</ele>
        <time>2014-02-09T13:54:50Z</time>
      </trkpt>
      <trkpt lat="45.88494474068284" lon="7.634508647024632">
        <ele>1755.99</ele>
        <time>2014-02-09T13:55:16Z</time>
      </trkpt>
      <trkpt lat="45.884951781481504" lon="7.634519124403596">
        <ele>1755.99</ele>
        <time>2014-02-09T13:55:42Z</time>
      </trkpt>
      <trkpt lat="45.884960331022739" lon="7.634520381689072">
        <ele>1756.95</ele>
        <time>2014-02-09T13:56:06Z</time>
      </trkpt>
      <trkpt lat="45.884967623278499" lon="7.6345344632864">
        <ele>1755.99</ele>
        <time>2014-02-09T13:56:26Z</time>
      </trkpt>
      <trkpt lat="45.884962342679501" lon="7.634535972028971">
        <ele>1755.99</ele>
        <time>2014-02-09T13:56:46Z</time>
      </trkpt>
      <trkpt lat="45.884965276345611" lon="7.634522477164865">
        <ele>1755.5</ele>
        <time>2014-02-09T13:57:08Z</time>
      </trkpt>
      <trkpt lat="45.884965360164642" lon="7.634522141888738">
        <ele>1755.5</ele>
        <time>2014-02-09T13:57:33Z</time>
      </trkpt>
      <trkpt lat="45.884983381256461" lon="7.6345085632056">
        <ele>1755.99</ele>
        <time>2014-02-09T13:57:55Z</time>
      </trkpt>
      <trkpt lat="45.884996457025409" lon="7.634496074169874">
        <ele>1755.99</ele>
        <time>2014-02-09T13:58:19Z</time>
      </trkpt>
      <trkpt lat="45.884994193911552" lon="7.634492134675384">
        <ele>1756.95</ele>
        <time>2014-02-09T13:58:39Z</time>
      </trkpt>
      <trkpt lat="45.885005928575993" lon="7.634467910975218">
        <ele>1756.95</ele>
        <time>2014-02-09T13:58:54Z</time>
      </trkpt>
      <trkpt lat="45.884981621056795" lon="7.634470174089074">
        <ele>1756.95</ele>
        <time>2014-02-09T13:59:17Z</time>
      </trkpt>
      <trkpt lat="45.884979944676161" lon="7.634492302313447">
        <ele>1756.95</ele>
        <time>2014-02-09T13:59:33Z</time>
      </trkpt>
      <trkpt lat="45.884981704875827" lon="7.634495152160525">
        <ele>1756.95</ele>
        <time>2014-02-09T13:59:55Z</time>
      </trkpt>
      <trkpt lat="45.884969886392355" lon="7.63449783436954">
        <ele>1756.95</ele>
        <time>2014-02-09T14:00:23Z</time>
      </trkpt>
      <trkpt lat="45.884968712925911" lon="7.634505713358522">
        <ele>1756.47</ele>
        <time>2014-02-09T14:00:43Z</time>
      </trkpt>
      <trkpt lat="45.884972903877497" lon="7.634489117190242">
        <ele>1756.95</ele>
        <time>2014-02-09T14:01:00Z</time>
      </trkpt>
      <trkpt lat="45.884968964383006" lon="7.634494146332145">
        <ele>1756.47</ele>
        <time>2014-02-09T14:01:16Z</time>
      </trkpt>
      <trkpt lat="45.884974831715226" lon="7.634495738893747">
        <ele>1754.54</ele>
        <time>2014-02-09T14:01:37Z</time>
      </trkpt>
      <trkpt lat="45.884981201961637" lon="7.634516609832645">
        <ele>1757.4300000000001</ele>
        <time>2014-02-09T14:01:59Z</time>
      </trkpt>
      <trkpt lat="45.884940130636096" lon="7.634521052241325">
        <ele>1757.4300000000001</ele>
        <time>2014-02-09T14:02:12Z</time>
      </trkpt>
      <trkpt lat="45.88492663577199" lon="7.634546533226967">
        <ele>1757.9100000000001</ele>
        <time>2014-02-09T14:02:25Z</time>
      </trkpt>
      <trkpt lat="45.884888162836432" lon="7.634523063898087">
        <ele>1757.9100000000001</ele>
        <time>2014-02-09T14:02:35Z</time>
      </trkpt>
      <trkpt lat="45.884882966056466" lon="7.634491380304098">
        <ele>1757.9100000000001</ele>
        <time>2014-02-09T14:02:47Z</time>
      </trkpt>
      <trkpt lat="45.884878104552627" lon="7.634497582912445">
        <ele>1758.3900000000001</ele>
        <time>2014-02-09T14:03:01Z</time>
      </trkpt>
      <trkpt lat="45.884897466748953" lon="7.634489871561527">
        <ele>1757.9100000000001</ele>
        <time>2014-02-09T14:03:22Z</time>
      </trkpt>
      <trkpt lat="45.884894700720906" lon="7.634517028927803">
        <ele>1758.3900000000001</ele>
        <time>2014-02-09T14:03:40Z</time>
      </trkpt>
      <trkpt lat="45.884873243048787" lon="7.634520214051008">
        <ele>1757.4300000000001</ele>
        <time>2014-02-09T14:03:56Z</time>
      </trkpt>
      <trkpt lat="45.884892186149955" lon="7.634525075554848">
        <ele>1757.9100000000001</ele>
        <time>2014-02-09T14:04:16Z</time>
      </trkpt>
      <trkpt lat="45.884885480627418" lon="7.634521974250674">
        <ele>1757.9100000000001</ele>
        <time>2014-02-09T14:04:19Z</time>
      </trkpt>
      <trkpt lat="45.884879278019071" lon="7.634494230151177">
        <ele>1757.9100000000001</ele>
        <time>2014-02-09T14:04:21Z</time>
      </trkpt>
      <trkpt lat="45.884867962449789" lon="7.634445698931813">
        <ele>1757.9100000000001</ele>
        <time>2014-02-09T14:04:24Z</time>
      </trkpt>
      <trkpt lat="45.884842565283179" lon="7.63444016687572">
        <ele>1757.9100000000001</ele>
        <time>2014-02-09T14:04:27Z</time>
      </trkpt>
      <trkpt lat="45.884814569726586" lon="7.634441256523132">
        <ele>1758.3900000000001</ele>
        <time>2014-02-09T14:04:38Z</time>
      </trkpt>
      <trkpt lat="45.8848328422755" lon="7.63442893512547">
        <ele>1758.8699999999999</ele>
        <time>2014-02-09T14:04:58Z</time>
      </trkpt>
      <trkpt lat="45.884842900559306" lon="7.634456343948841">
        <ele>1759.3499999999999</ele>
        <time>2014-02-09T14:05:12Z</time>
      </trkpt>
      <trkpt lat="45.884846672415733" lon="7.634433377534151">
        <ele>1758.8699999999999</ele>
        <time>2014-02-09T14:05:37Z</time>
      </trkpt>
      <trkpt lat="45.884828986600041" lon="7.63440647162497">
        <ele>1759.3499999999999</ele>
        <time>2014-02-09T14:05:44Z</time>
      </trkpt>
      <trkpt lat="45.884830746799707" lon="7.634375793859363">
        <ele>1758.8699999999999</ele>
        <time>2014-02-09T14:05:46Z</time>
      </trkpt>
      <trkpt lat="45.884774001315236" lon="7.634228942915797">
        <ele>1757.9100000000001</ele>
        <time>2014-02-09T14:05:56Z</time>
      </trkpt>
      <trkpt lat="45.8847776055336" lon="7.634183848276734">
        <ele>1757.9100000000001</ele>
        <time>2014-02-09T14:05:59Z</time>
      </trkpt>
      <trkpt lat="45.8848259691149" lon="7.634030291810632">
        <ele>1754.54</ele>
        <time>2014-02-09T14:06:09Z</time>
      </trkpt>
      <trkpt lat="45.884872237220407" lon="7.633796939626336">
        <ele>1753.5799999999999</ele>
        <time>2014-02-09T14:06:24Z</time>
      </trkpt>
      <trkpt lat="45.884918086230755" lon="7.633583033457398">
        <ele>1751.6600000000001</ele>
        <time>2014-02-09T14:06:38Z</time>
      </trkpt>
      <trkpt lat="45.884943315759301" lon="7.633400727063417">
        <ele>1750.7</ele>
        <time>2014-02-09T14:06:51Z</time>
      </trkpt>
      <trkpt lat="45.884944489225745" lon="7.633388405665755">
        <ele>1750.22</ele>
        <time>2014-02-09T14:06:52Z</time>
      </trkpt>
      <trkpt lat="45.88492713868618" lon="7.633169051259756">
        <ele>1750.7</ele>
        <time>2014-02-09T14:07:08Z</time>
      </trkpt>
      <trkpt lat="45.884906686842442" lon="7.633072324097157">
        <ele>1751.1800000000001</ele>
        <time>2014-02-09T14:07:15Z</time>
      </trkpt>
      <trkpt lat="45.884898221120238" lon="7.633046926930547">
        <ele>1750.7</ele>
        <time>2014-02-09T14:07:17Z</time>
      </trkpt>
      <trkpt lat="45.884827226400375" lon="7.632862105965614">
        <ele>1751.6600000000001</ele>
        <time>2014-02-09T14:07:32Z</time>
      </trkpt>
      <trkpt lat="45.884726559743285" lon="7.632775269448757">
        <ele>1753.0999999999999</ele>
        <time>2014-02-09T14:07:43Z</time>
      </trkpt>
      <trkpt lat="45.884669981896877" lon="7.632744507864118">
        <ele>1753.5799999999999</ele>
        <time>2014-02-09T14:07:49Z</time>
      </trkpt>
      <trkpt lat="45.884532686322927" lon="7.632666723802686">
        <ele>1754.0599999999999</ele>
        <time>2014-02-09T14:08:05Z</time>
      </trkpt>
      <trkpt lat="45.884524388238788" lon="7.632659683004022">
        <ele>1754.54</ele>
        <time>2014-02-09T14:08:06Z</time>
      </trkpt>
      <trkpt lat="45.884366473183036" lon="7.632639901712537">
        <ele>1756.95</ele>
        <time>2014-02-09T14:08:22Z</time>
      </trkpt>
      <trkpt lat="45.884223729372025" lon="7.632617186754942">
        <ele>1756.95</ele>
        <time>2014-02-09T14:08:38Z</time>
      </trkpt>
      <trkpt lat="45.884200260043144" lon="7.632600925862789">
        <ele>1756.95</ele>
        <time>2014-02-09T14:08:52Z</time>
      </trkpt>
      <trkpt lat="45.884208809584379" lon="7.632600339129567">
        <ele>1757.4300000000001</ele>
        <time>2014-02-09T14:09:11Z</time>
      </trkpt>
      <trkpt lat="45.884204283356667" lon="7.632601764053106">
        <ele>1756.47</ele>
        <time>2014-02-09T14:09:28Z</time>
      </trkpt>
      <trkpt lat="45.884091379120946" lon="7.632564380764961">
        <ele>1757.4300000000001</ele>
        <time>2014-02-09T14:09:43Z</time>
      </trkpt>
      <trkpt lat="45.884102275595069" lon="7.63255599886179">
        <ele>1756.95</ele>
        <time>2014-02-09T14:10:05Z</time>
      </trkpt>
      <trkpt lat="45.884090205654502" lon="7.632557675242424">
        <ele>1756.95</ele>
        <time>2014-02-09T14:10:21Z</time>
      </trkpt>
      <trkpt lat="45.884079225361347" lon="7.632529092952609">
        <ele>1757.9100000000001</ele>
        <time>2014-02-09T14:10:34Z</time>
      </trkpt>
      <trkpt lat="45.88406078517437" lon="7.632509395480156">
        <ele>1756.95</ele>
        <time>2014-02-09T14:10:46Z</time>
      </trkpt>
      <trkpt lat="45.884064389392734" lon="7.632537810131908">
        <ele>1756.47</ele>
        <time>2014-02-09T14:11:00Z</time>
      </trkpt>
      <trkpt lat="45.884050978347659" lon="7.632544599473476">
        <ele>1756.95</ele>
        <time>2014-02-09T14:11:11Z</time>
      </trkpt>
      <trkpt lat="45.884066736325622" lon="7.632489111274481">
        <ele>1756.47</ele>
        <time>2014-02-09T14:11:27Z</time>
      </trkpt>
      <trkpt lat="45.884051648899913" lon="7.632453152909875">
        <ele>1756.47</ele>
        <time>2014-02-09T14:11:52Z</time>
      </trkpt>
      <trkpt lat="45.88406472466886" lon="7.632458768785">
        <ele>1754.0599999999999</ele>
        <time>2014-02-09T14:12:15Z</time>
      </trkpt>
      <trkpt lat="45.884056929498911" lon="7.632455164566636">
        <ele>1755.99</ele>
        <time>2014-02-09T14:12:20Z</time>
      </trkpt>
      <trkpt lat="45.884051648899913" lon="7.632460528984666">
        <ele>1760.79</ele>
        <time>2014-02-09T14:12:24Z</time>
      </trkpt>
      <trkpt lat="45.88404905050993" lon="7.632477963343263">
        <ele>1755.99</ele>
        <time>2014-02-09T14:12:25Z</time>
      </trkpt>
      <trkpt lat="45.884062042459846" lon="7.632467150688171">
        <ele>1755.5</ele>
        <time>2014-02-09T14:12:43Z</time>
      </trkpt>
      <trkpt lat="45.884069502353668" lon="7.63245340436697">
        <ele>1754.54</ele>
        <time>2014-02-09T14:12:48Z</time>
      </trkpt>
      <trkpt lat="45.884077381342649" lon="7.632368914783001">
        <ele>1751.6600000000001</ele>
        <time>2014-02-09T14:12:59Z</time>
      </trkpt>
      <trkpt lat="45.884075034409761" lon="7.632335051894188">
        <ele>1750.22</ele>
        <time>2014-02-09T14:13:02Z</time>
      </trkpt>
      <trkpt lat="45.88406472466886" lon="7.632270259782672">
        <ele>1749.26</ele>
        <time>2014-02-09T14:13:09Z</time>
      </trkpt>
      <trkpt lat="45.884066903963685" lon="7.632254166528583">
        <ele>1748.29</ele>
        <time>2014-02-09T14:13:23Z</time>
      </trkpt>
      <trkpt lat="45.884064389392734" lon="7.63224670663476">
        <ele>1748.29</ele>
        <time>2014-02-09T14:13:24Z</time>
      </trkpt>
      <trkpt lat="45.884059444069862" lon="7.632106225937605">
        <ele>1745.8900000000001</ele>
        <time>2014-02-09T14:13:37Z</time>
      </trkpt>
      <trkpt lat="45.884071011096239" lon="7.632049648091197">
        <ele>1744.45</ele>
        <time>2014-02-09T14:13:41Z</time>
      </trkpt>
      <trkpt lat="45.884070843458176" lon="7.632023580372334">
        <ele>1743.49</ele>
        <time>2014-02-09T14:13:43Z</time>
      </trkpt>
      <trkpt lat="45.884067825973034" lon="7.631802717223764">
        <ele>1740.1199999999999</ele>
        <time>2014-02-09T14:13:57Z</time>
      </trkpt>
      <trkpt lat="45.884092133492231" lon="7.631676150485873">
        <ele>1738.2</ele>
        <time>2014-02-09T14:14:05Z</time>
      </trkpt>
      <trkpt lat="45.884115938097239" lon="7.631527036428452">
        <ele>1736.28</ele>
        <time>2014-02-09T14:14:19Z</time>
      </trkpt>
      <trkpt lat="45.884101688861847" lon="7.631423017010093">
        <ele>1735.3199999999999</ele>
        <time>2014-02-09T14:14:31Z</time>
      </trkpt>
      <trkpt lat="45.884113591164351" lon="7.631316231563687">
        <ele>1733.8800000000001</ele>
        <time>2014-02-09T14:14:41Z</time>
      </trkpt>
      <trkpt lat="45.884108729660511" lon="7.631101990118623">
        <ele>1731.47</ele>
        <time>2014-02-09T14:14:57Z</time>
      </trkpt>
      <trkpt lat="45.884103197604418" lon="7.631042813882232">
        <ele>1730.51</ele>
        <time>2014-02-09T14:15:01Z</time>
      </trkpt>
      <trkpt lat="45.884134881198406" lon="7.631001491099596">
        <ele>1729.55</ele>
        <time>2014-02-09T14:15:06Z</time>
      </trkpt>
      <trkpt lat="45.884244181215763" lon="7.631025966256857">
        <ele>1728.5899999999999</ele>
        <time>2014-02-09T14:15:20Z</time>
      </trkpt>
      <trkpt lat="45.88428751565516" lon="7.630997216328979">
        <ele>1728.1099999999999</ele>
        <time>2014-02-09T14:15:25Z</time>
      </trkpt>
      <trkpt lat="45.884306794032454" lon="7.630878612399101">
        <ele>1724.26</ele>
        <time>2014-02-09T14:15:37Z</time>
      </trkpt>
      <trkpt lat="45.884326742962003" lon="7.630778783932328">
        <ele>1720.9000000000001</ele>
        <time>2014-02-09T14:15:47Z</time>
      </trkpt>
      <trkpt lat="45.884326323866844" lon="7.630772078409791">
        <ele>1720.9000000000001</ele>
        <time>2014-02-09T14:15:48Z</time>
      </trkpt>
      <trkpt lat="45.884325401857495" lon="7.630725055932999">
        <ele>1719.9400000000001</ele>
        <time>2014-02-09T14:15:52Z</time>
      </trkpt>
      <trkpt lat="45.884330682456493" lon="7.630664119496942">
        <ele>1718.01</ele>
        <time>2014-02-09T14:15:57Z</time>
      </trkpt>
      <trkpt lat="45.884351888671517" lon="7.630501929670572">
        <ele>1715.1300000000001</ele>
        <time>2014-02-09T14:16:10Z</time>
      </trkpt>
      <trkpt lat="45.884353900328279" lon="7.630335716530681">
        <ele>1712.25</ele>
        <time>2014-02-09T14:16:23Z</time>
      </trkpt>
      <trkpt lat="45.88433587923646" lon="7.630149303004146">
        <ele>1710.8</ele>
        <time>2014-02-09T14:16:37Z</time>
      </trkpt>
      <trkpt lat="45.884342836216092" lon="7.630089456215501">
        <ele>1709.8399999999999</ele>
        <time>2014-02-09T14:16:42Z</time>
      </trkpt>
      <trkpt lat="45.884329508990049" lon="7.62992961332202">
        <ele>1706.96</ele>
        <time>2014-02-09T14:16:53Z</time>
      </trkpt>
      <trkpt lat="45.884339986369014" lon="7.629754180088639">
        <ele>1703.5899999999999</ele>
        <time>2014-02-09T14:17:05Z</time>
      </trkpt>
      <trkpt lat="45.884318361058831" lon="7.629571706056595">
        <ele>1700.71</ele>
        <time>2014-02-09T14:17:18Z</time>
      </trkpt>
      <trkpt lat="45.884326407685876" lon="7.629510099068284">
        <ele>1699.75</ele>
        <time>2014-02-09T14:17:23Z</time>
      </trkpt>
      <trkpt lat="45.884344512596726" lon="7.629460813477635">
        <ele>1699.27</ele>
        <time>2014-02-09T14:17:39Z</time>
      </trkpt>
      <trkpt lat="45.884331604465842" lon="7.629427118226886">
        <ele>1698.79</ele>
        <time>2014-02-09T14:17:53Z</time>
      </trkpt>
      <trkpt lat="45.884292628616095" lon="7.629302479326725">
        <ele>1695.4200000000001</ele>
        <time>2014-02-09T14:18:04Z</time>
      </trkpt>
      <trkpt lat="45.884270835667849" lon="7.629218241199851">
        <ele>1692.0599999999999</ele>
        <time>2014-02-09T14:18:12Z</time>
      </trkpt>
      <trkpt lat="45.884271590039134" lon="7.629209272563458">
        <ele>1691.5799999999999</ele>
        <time>2014-02-09T14:18:13Z</time>
      </trkpt>
      <trkpt lat="45.884271170943975" lon="7.629171134904027">
        <ele>1690.1400000000001</ele>
        <time>2014-02-09T14:18:16Z</time>
      </trkpt>
      <trkpt lat="45.88424988090992" lon="7.629085388034582">
        <ele>1686.77</ele>
        <time>2014-02-09T14:18:24Z</time>
      </trkpt>
      <trkpt lat="45.884250048547983" lon="7.629068624228239">
        <ele>1686.29</ele>
        <time>2014-02-09T14:18:26Z</time>
      </trkpt>
      <trkpt lat="45.884240493178368" lon="7.629046412184835">
        <ele>1685.3299999999999</ele>
        <time>2014-02-09T14:18:28Z</time>
      </trkpt>
      <trkpt lat="45.884237308055162" lon="7.629034342244268">
        <ele>1683.8900000000001</ele>
        <time>2014-02-09T14:18:32Z</time>
      </trkpt>
      <trkpt lat="45.884242169559002" lon="7.629053452983499">
        <ele>1683.4100000000001</ele>
        <time>2014-02-09T14:18:55Z</time>
      </trkpt>
      <trkpt lat="45.884244935587049" lon="7.629059487953782">
        <ele>1683.8900000000001</ele>
        <time>2014-02-09T14:19:12Z</time>
      </trkpt>
      <trkpt lat="45.884223226457834" lon="7.629071222618222">
        <ele>1683.8900000000001</ele>
        <time>2014-02-09T14:19:43Z</time>
      </trkpt>
      <trkpt lat="45.884212413802743" lon="7.629041718319058">
        <ele>1683.8900000000001</ele>
        <time>2014-02-09T14:20:03Z</time>
      </trkpt>
      <trkpt lat="45.884138736873865" lon="7.628905260935426">
        <ele>1680.04</ele>
        <time>2014-02-09T14:20:15Z</time>
      </trkpt>
      <trkpt lat="45.884051648899913" lon="7.62879554182291">
        <ele>1680.04</ele>
        <time>2014-02-09T14:20:29Z</time>
      </trkpt>
      <trkpt lat="45.884033460170031" lon="7.628730330616236">
        <ele>1679.0799999999999</ele>
        <time>2014-02-09T14:20:40Z</time>
      </trkpt>
      <trkpt lat="45.884039746597409" lon="7.628744747489691">
        <ele>1678.5999999999999</ele>
        <time>2014-02-09T14:20:50Z</time>
      </trkpt>
      <trkpt lat="45.883993562310934" lon="7.628717254847288">
        <ele>1678.1199999999999</ele>
        <time>2014-02-09T14:20:58Z</time>
      </trkpt>
      <trkpt lat="45.883863978087902" lon="7.628553807735443">
        <ele>1674.75</ele>
        <time>2014-02-09T14:21:12Z</time>
      </trkpt>
      <trkpt lat="45.883850231766701" lon="7.628487842157483">
        <ele>1673.79</ele>
        <time>2014-02-09T14:21:16Z</time>
      </trkpt>
      <trkpt lat="45.883842520415783" lon="7.628402933478355">
        <ele>1671.3900000000001</ele>
        <time>2014-02-09T14:21:20Z</time>
      </trkpt>
      <trkpt lat="45.883837239816785" lon="7.628378793597221">
        <ele>1670.9100000000001</ele>
        <time>2014-02-09T14:21:22Z</time>
      </trkpt>
      <trkpt lat="45.883883507922292" lon="7.628179639577866">
        <ele>1668.02</ele>
        <time>2014-02-09T14:21:35Z</time>
      </trkpt>
      <trkpt lat="45.883946623653173" lon="7.628019964322448">
        <ele>1665.1400000000001</ele>
        <time>2014-02-09T14:21:47Z</time>
      </trkpt>
      <trkpt lat="45.883975876495242" lon="7.627966236323118">
        <ele>1663.7</ele>
        <time>2014-02-09T14:21:52Z</time>
      </trkpt>
      <trkpt lat="45.883998423814774" lon="7.627927428111434">
        <ele>1662.74</ele>
        <time>2014-02-09T14:21:56Z</time>
      </trkpt>
      <trkpt lat="45.884015187621117" lon="7.627824330702424">
        <ele>1661.3</ele>
        <time>2014-02-09T14:22:02Z</time>
      </trkpt>
      <trkpt lat="45.88402901776135" lon="7.627784684300423">
        <ele>1660.3299999999999</ele>
        <time>2014-02-09T14:22:05Z</time>
      </trkpt>
      <trkpt lat="45.884047206491232" lon="7.627738248556852">
        <ele>1658.8900000000001</ele>
        <time>2014-02-09T14:22:08Z</time>
      </trkpt>
      <trkpt lat="45.884079895913601" lon="7.627624170854688">
        <ele>1655.53</ele>
        <time>2014-02-09T14:22:16Z</time>
      </trkpt>
      <trkpt lat="45.884082578122616" lon="7.627611514180899">
        <ele>1655.05</ele>
        <time>2014-02-09T14:22:17Z</time>
      </trkpt>
      <trkpt lat="45.884138736873865" lon="7.627442367374897">
        <ele>1653.1199999999999</ele>
        <time>2014-02-09T14:22:29Z</time>
      </trkpt>
      <trkpt lat="45.884147873148322" lon="7.627358883619309">
        <ele>1651.6800000000001</ele>
        <time>2014-02-09T14:22:35Z</time>
      </trkpt>
      <trkpt lat="45.884153489023447" lon="7.627220079302788">
        <ele>1648.3199999999999</ele>
        <time>2014-02-09T14:22:47Z</time>
      </trkpt>
      <trkpt lat="45.884166648611426" lon="7.627133242785931">
        <ele>1645.9100000000001</ele>
        <time>2014-02-09T14:23:00Z</time>
      </trkpt>
      <trkpt lat="45.884171677753329" lon="7.627036515623331">
        <ele>1644.47</ele>
        <time>2014-02-09T14:23:15Z</time>
      </trkpt>
      <trkpt lat="45.88417612016201" lon="7.627031486481428">
        <ele>1643.99</ele>
        <time>2014-02-09T14:23:31Z</time>
      </trkpt>
      <trkpt lat="45.884162541478872" lon="7.626940794289112">
        <ele>1642.0699999999999</ele>
        <time>2014-02-09T14:23:50Z</time>
      </trkpt>
      <trkpt lat="45.884154830127954" lon="7.626902656629682">
        <ele>1640.6300000000001</ele>
        <time>2014-02-09T14:24:04Z</time>
      </trkpt>
      <trkpt lat="45.884159859269857" lon="7.626869631931186">
        <ele>1640.1500000000001</ele>
        <time>2014-02-09T14:24:20Z</time>
      </trkpt>
      <trkpt lat="45.884165558964014" lon="7.626861920580268">
        <ele>1640.1500000000001</ele>
        <time>2014-02-09T14:24:37Z</time>
      </trkpt>
      <trkpt lat="45.884169414639473" lon="7.626858400180936">
        <ele>1640.1500000000001</ele>
        <time>2014-02-09T14:24:51Z</time>
      </trkpt>
      <trkpt lat="45.884162373840809" lon="7.626826465129852">
        <ele>1639.6700000000001</ele>
        <time>2014-02-09T14:25:09Z</time>
      </trkpt>
      <trkpt lat="45.884169414639473" lon="7.626816239207983">
        <ele>1637.74</ele>
        <time>2014-02-09T14:25:23Z</time>
      </trkpt>
      <trkpt lat="45.884170336648822" lon="7.626866446807981">
        <ele>1638.7</ele>
        <time>2014-02-09T14:25:35Z</time>
      </trkpt>
      <trkpt lat="45.884195985272527" lon="7.626869129016995">
        <ele>1637.74</ele>
        <time>2014-02-09T14:25:48Z</time>
      </trkpt>
      <trkpt lat="45.884189112111926" lon="7.626888491213322">
        <ele>1637.74</ele>
        <time>2014-02-09T14:26:01Z</time>
      </trkpt>
      <trkpt lat="45.884182071313262" lon="7.62690500356257">
        <ele>1638.22</ele>
        <time>2014-02-09T14:26:23Z</time>
      </trkpt>
      <trkpt lat="45.884197494015098" lon="7.626898381859064">
        <ele>1638.22</ele>
        <time>2014-02-09T14:26:43Z</time>
      </trkpt>
      <trkpt lat="45.884188693016768" lon="7.626900309696794">
        <ele>1638.22</ele>
        <time>2014-02-09T14:27:04Z</time>
      </trkpt>
      <trkpt lat="45.884189698845148" lon="7.626909278333187">
        <ele>1637.74</ele>
        <time>2014-02-09T14:27:22Z</time>
      </trkpt>
      <trkpt lat="45.884176455438137" lon="7.626905841752887">
        <ele>1638.22</ele>
        <time>2014-02-09T14:27:41Z</time>
      </trkpt>
      <trkpt lat="45.884185172617435" lon="7.626892346888781">
        <ele>1638.22</ele>
        <time>2014-02-09T14:28:00Z</time>
      </trkpt>
      <trkpt lat="45.884182406589389" lon="7.626904584467411">
        <ele>1638.7</ele>
        <time>2014-02-09T14:28:13Z</time>
      </trkpt>
      <trkpt lat="45.884167151525617" lon="7.626890167593956">
        <ele>1638.7</ele>
        <time>2014-02-09T14:28:33Z</time>
      </trkpt>
      <trkpt lat="45.884179892018437" lon="7.62687616981566">
        <ele>1638.22</ele>
        <time>2014-02-09T14:28:49Z</time>
      </trkpt>
      <trkpt lat="45.884181903675199" lon="7.626809449866414">
        <ele>1638.22</ele>
        <time>2014-02-09T14:29:05Z</time>
      </trkpt>
      <trkpt lat="45.884177796542645" lon="7.626826465129852">
        <ele>1638.7</ele>
        <time>2014-02-09T14:29:20Z</time>
      </trkpt>
      <trkpt lat="45.88417268358171" lon="7.626809449866414">
        <ele>1638.22</ele>
        <time>2014-02-09T14:29:22Z</time>
      </trkpt>
      <trkpt lat="45.884162876754999" lon="7.62675404548645">
        <ele>1636.78</ele>
        <time>2014-02-09T14:29:37Z</time>
      </trkpt>
      <trkpt lat="45.884132366627455" lon="7.626620605587959">
        <ele>1636.78</ele>
        <time>2014-02-09T14:29:50Z</time>
      </trkpt>
      <trkpt lat="45.884128594771028" lon="7.626607865095139">
        <ele>1636.3</ele>
        <time>2014-02-09T14:29:51Z</time>
      </trkpt>
      <trkpt lat="45.884130271151662" lon="7.626559836789966">
        <ele>1635.3399999999999</ele>
        <time>2014-02-09T14:29:55Z</time>
      </trkpt>
      <trkpt lat="45.884139155969024" lon="7.626356156542897">
        <ele>1633.4200000000001</ele>
        <time>2014-02-09T14:30:10Z</time>
      </trkpt>
      <trkpt lat="45.884159272536635" lon="7.626248616725206">
        <ele>1632.46</ele>
        <time>2014-02-09T14:30:17Z</time>
      </trkpt>
      <trkpt lat="45.884181400761008" lon="7.626175861805677">
        <ele>1631.49</ele>
        <time>2014-02-09T14:30:30Z</time>
      </trkpt>
      <trkpt lat="45.884181065484881" lon="7.6261539850384">
        <ele>1631.49</ele>
        <time>2014-02-09T14:30:47Z</time>
      </trkpt>
      <trkpt lat="45.884175533428788" lon="7.62604258954525">
        <ele>1631.49</ele>
        <time>2014-02-09T14:30:59Z</time>
      </trkpt>
      <trkpt lat="45.8841766230762" lon="7.626082068309188">
        <ele>1631.49</ele>
        <time>2014-02-09T14:31:11Z</time>
      </trkpt>
      <trkpt lat="45.884196488186717" lon="7.626031022518873">
        <ele>1631.01</ele>
        <time>2014-02-09T14:31:30Z</time>
      </trkpt>
      <trkpt lat="45.884198499843478" lon="7.626024568453431">
        <ele>1631.01</ele>
        <time>2014-02-09T14:31:31Z</time>
      </trkpt>
      <trkpt lat="45.884225992485881" lon="7.625944605097175">
        <ele>1629.5699999999999</ele>
        <time>2014-02-09T14:31:36Z</time>
      </trkpt>
      <trkpt lat="45.88423621840775" lon="7.625888111069799">
        <ele>1628.1300000000001</ele>
        <time>2014-02-09T14:31:39Z</time>
      </trkpt>
      <trkpt lat="45.884228507056832" lon="7.625696919858456">
        <ele>1624.77</ele>
        <time>2014-02-09T14:31:46Z</time>
      </trkpt>
      <trkpt lat="45.884240996092558" lon="7.625546464696527">
        <ele>1620.9200000000001</ele>
        <time>2014-02-09T14:31:58Z</time>
      </trkpt>
      <trkpt lat="45.88422104716301" lon="7.625391315668821">
        <ele>1617.5599999999999</ele>
        <time>2014-02-09T14:32:09Z</time>
      </trkpt>
      <trkpt lat="45.884213838726282" lon="7.625338258221746">
        <ele>1616.5899999999999</ele>
        <time>2014-02-09T14:32:12Z</time>
      </trkpt>
      <trkpt lat="45.884214844554663" lon="7.625308586284518">
        <ele>1616.1099999999999</ele>
        <time>2014-02-09T14:32:14Z</time>
      </trkpt>
      <trkpt lat="45.884171929210424" lon="7.625123094767332">
        <ele>1612.75</ele>
        <time>2014-02-09T14:32:28Z</time>
      </trkpt>
      <trkpt lat="45.884166564792395" lon="7.625097194686532">
        <ele>1612.27</ele>
        <time>2014-02-09T14:32:30Z</time>
      </trkpt>
      <trkpt lat="45.884115938097239" lon="7.624907763674855">
        <ele>1608.9000000000001</ele>
        <time>2014-02-09T14:32:42Z</time>
      </trkpt>
      <trkpt lat="45.884061204269528" lon="7.624832829460502">
        <ele>1606.5</ele>
        <time>2014-02-09T14:32:48Z</time>
      </trkpt>
      <trkpt lat="45.88405835442245" lon="7.62481028214097">
        <ele>1606.02</ele>
        <time>2014-02-09T14:32:49Z</time>
      </trkpt>
      <trkpt lat="45.884098084643483" lon="7.624834589660168">
        <ele>1605.54</ele>
        <time>2014-02-09T14:33:02Z</time>
      </trkpt>
      <trkpt lat="45.884123984724283" lon="7.624820088967681">
        <ele>1605.0599999999999</ele>
        <time>2014-02-09T14:33:11Z</time>
      </trkpt>
      <trkpt lat="45.884112920612097" lon="7.624782202765346">
        <ele>1604.0999999999999</ele>
        <time>2014-02-09T14:33:13Z</time>
      </trkpt>
      <trkpt lat="45.884007224813104" lon="7.624706430360675">
        <ele>1600.73</ele>
        <time>2014-02-09T14:33:22Z</time>
      </trkpt>
      <trkpt lat="45.883923824876547" lon="7.624624958261848">
        <ele>1597.8499999999999</ele>
        <time>2014-02-09T14:33:29Z</time>
      </trkpt>
      <trkpt lat="45.883789798244834" lon="7.624510210007429">
        <ele>1594.48</ele>
        <time>2014-02-09T14:33:40Z</time>
      </trkpt>
      <trkpt lat="45.883692735806108" lon="7.624446004629135">
        <ele>1592.5599999999999</ele>
        <time>2014-02-09T14:33:52Z</time>
      </trkpt>
      <trkpt lat="45.883680414408445" lon="7.624441813677549">
        <ele>1591.5999999999999</ele>
        <time>2014-02-09T14:33:53Z</time>
      </trkpt>
      <trkpt lat="45.883593913167715" lon="7.624412560835481">
        <ele>1589.6800000000001</ele>
        <time>2014-02-09T14:34:00Z</time>
      </trkpt>
      <trkpt lat="45.883525600656867" lon="7.624391857534647">
        <ele>1586.79</ele>
        <time>2014-02-09T14:34:06Z</time>
      </trkpt>
      <trkpt lat="45.883443709462881" lon="7.624322455376387">
        <ele>1583.9100000000001</ele>
        <time>2014-02-09T14:34:14Z</time>
      </trkpt>
      <trkpt lat="45.88336106389761" lon="7.624284569174051">
        <ele>1581.51</ele>
        <time>2014-02-09T14:34:22Z</time>
      </trkpt>
      <trkpt lat="45.883341953158379" lon="7.624256741255522">
        <ele>1580.54</ele>
        <time>2014-02-09T14:34:25Z</time>
      </trkpt>
      <trkpt lat="45.883265761658549" lon="7.624265039339662">
        <ele>1579.0999999999999</ele>
        <time>2014-02-09T14:34:31Z</time>
      </trkpt>
      <trkpt lat="45.883251093327999" lon="7.624235115945339">
        <ele>1578.1400000000001</ele>
        <time>2014-02-09T14:34:43Z</time>
      </trkpt>
      <trkpt lat="45.88325897231698" lon="7.624228745698929">
        <ele>1578.1400000000001</ele>
        <time>2014-02-09T14:34:59Z</time>
      </trkpt>
      <trkpt lat="45.883250590413809" lon="7.624221118167043">
        <ele>1579.5799999999999</ele>
        <time>2014-02-09T14:35:19Z</time>
      </trkpt>
      <trkpt lat="45.883264001458883" lon="7.624229416251183">
        <ele>1579.5799999999999</ele>
        <time>2014-02-09T14:35:38Z</time>
      </trkpt>
      <trkpt lat="45.88328629732132" lon="7.624218016862869">
        <ele>1580.0599999999999</ele>
        <time>2014-02-09T14:35:53Z</time>
      </trkpt>
      <trkpt lat="45.883263079449534" lon="7.62422539293766">
        <ele>1580.0599999999999</ele>
        <time>2014-02-09T14:36:08Z</time>
      </trkpt>
      <trkpt lat="45.883259978145361" lon="7.624234026297927">
        <ele>1579.0999999999999</ele>
        <time>2014-02-09T14:36:34Z</time>
      </trkpt>
      <trkpt lat="45.883253691717982" lon="7.624223968014121">
        <ele>1579.5799999999999</ele>
        <time>2014-02-09T14:37:00Z</time>
      </trkpt>
      <trkpt lat="45.883260481059551" lon="7.624237043783069">
        <ele>1580.0599999999999</ele>
        <time>2014-02-09T14:37:27Z</time>
      </trkpt>
      <trkpt lat="45.883255368098617" lon="7.624189937487245">
        <ele>1580.0599999999999</ele>
        <time>2014-02-09T14:37:39Z</time>
      </trkpt>
      <trkpt lat="45.883341366425157" lon="7.62412816286087">
        <ele>1580.54</ele>
        <time>2014-02-09T14:37:48Z</time>
      </trkpt>
      <trkpt lat="45.883529959246516" lon="7.624195385724306">
        <ele>1581.99</ele>
        <time>2014-02-09T14:38:04Z</time>
      </trkpt>
      <trkpt lat="45.88371092453599" lon="7.624231427907944">
        <ele>1583.9100000000001</ele>
        <time>2014-02-09T14:38:20Z</time>
      </trkpt>
      <trkpt lat="45.883909408003092" lon="7.624275265261531">
        <ele>1584.8699999999999</ele>
        <time>2014-02-09T14:38:37Z</time>
      </trkpt>
      <trkpt lat="45.883921729400754" lon="7.62427618727088">
        <ele>1585.3499999999999</ele>
        <time>2014-02-09T14:38:38Z</time>
      </trkpt>
      <trkpt lat="45.884095570072532" lon="7.624299572780728">
        <ele>1586.3099999999999</ele>
        <time>2014-02-09T14:38:54Z</time>
      </trkpt>
      <trkpt lat="45.884260693565011" lon="7.62434802018106">
        <ele>1587.75</ele>
        <time>2014-02-09T14:39:08Z</time>
      </trkpt>
      <trkpt lat="45.884490357711911" lon="7.624371908605099">
        <ele>1589.6800000000001</ele>
        <time>2014-02-09T14:39:27Z</time>
      </trkpt>
      <trkpt lat="45.884570069611073" lon="7.624364029616118">
        <ele>1590.1600000000001</ele>
        <time>2014-02-09T14:39:33Z</time>
      </trkpt>
      <trkpt lat="45.884608207270503" lon="7.624330334365368">
        <ele>1591.1199999999999</ele>
        <time>2014-02-09T14:39:37Z</time>
      </trkpt>
      <trkpt lat="45.884680962190032" lon="7.624309882521629">
        <ele>1590.6400000000001</ele>
        <time>2014-02-09T14:39:44Z</time>
      </trkpt>
      <trkpt lat="45.884852455928922" lon="7.624202175065875">
        <ele>1590.1600000000001</ele>
        <time>2014-02-09T14:39:59Z</time>
      </trkpt>
      <trkpt lat="45.885038115084171" lon="7.624114165082574">
        <ele>1589.2</ele>
        <time>2014-02-09T14:40:14Z</time>
      </trkpt>
      <trkpt lat="45.885260654613376" lon="7.624087678268552">
        <ele>1587.27</ele>
        <time>2014-02-09T14:40:31Z</time>
      </trkpt>
      <trkpt lat="45.885343635454774" lon="7.624080469831824">
        <ele>1586.79</ele>
        <time>2014-02-09T14:40:37Z</time>
      </trkpt>
      <trkpt lat="45.885410523042083" lon="7.624070746824145">
        <ele>1586.3099999999999</ele>
        <time>2014-02-09T14:40:42Z</time>
      </trkpt>
      <trkpt lat="45.885524433106184" lon="7.624115003272891">
        <ele>1585.3499999999999</ele>
        <time>2014-02-09T14:40:52Z</time>
      </trkpt>
      <trkpt lat="45.885753594338894" lon="7.624207707121968">
        <ele>1582.47</ele>
        <time>2014-02-09T14:41:09Z</time>
      </trkpt>
      <trkpt lat="45.885794665664434" lon="7.624228661879897">
        <ele>1581.99</ele>
        <time>2014-02-09T14:41:12Z</time>
      </trkpt>
      <trkpt lat="45.885977139696479" lon="7.624329328536987">
        <ele>1580.0599999999999</ele>
        <time>2014-02-09T14:41:27Z</time>
      </trkpt>
      <trkpt lat="45.886197751387954" lon="7.62442035600543">
        <ele>1578.6199999999999</ele>
        <time>2014-02-09T14:41:43Z</time>
      </trkpt>
      <trkpt lat="45.886410987004638" lon="7.624450363218784">
        <ele>1576.22</ele>
        <time>2014-02-09T14:42:00Z</time>
      </trkpt>
      <trkpt lat="45.886567058041692" lon="7.624486824497581">
        <ele>1574.78</ele>
        <time>2014-02-09T14:42:13Z</time>
      </trkpt>
      <trkpt lat="45.886806277558208" lon="7.624487997964025">
        <ele>1573.3299999999999</ele>
        <time>2014-02-09T14:42:31Z</time>
      </trkpt>
      <trkpt lat="45.887012723833323" lon="7.624527392908931">
        <ele>1571.4100000000001</ele>
        <time>2014-02-09T14:42:46Z</time>
      </trkpt>
      <trkpt lat="45.887133255600929" lon="7.624516244977713">
        <ele>1570.45</ele>
        <time>2014-02-09T14:42:55Z</time>
      </trkpt>
      <trkpt lat="45.887359650805593" lon="7.624546587467194">
        <ele>1568.53</ele>
        <time>2014-02-09T14:43:12Z</time>
      </trkpt>
      <trkpt lat="45.88760138489306" lon="7.624559160321951">
        <ele>1566.6099999999999</ele>
        <time>2014-02-09T14:43:30Z</time>
      </trkpt>
      <trkpt lat="45.887656034901738" lon="7.62454004958272">
        <ele>1566.6099999999999</ele>
        <time>2014-02-09T14:43:34Z</time>
      </trkpt>
      <trkpt lat="45.887883938848972" lon="7.624555388465524">
        <ele>1564.2</ele>
        <time>2014-02-09T14:43:51Z</time>
      </trkpt>
      <trkpt lat="45.888110669329762" lon="7.624449441209436">
        <ele>1562.76</ele>
        <time>2014-02-09T14:44:09Z</time>
      </trkpt>
      <trkpt lat="45.888180490583181" lon="7.624412141740322">
        <ele>1562.76</ele>
        <time>2014-02-09T14:44:15Z</time>
      </trkpt>
      <trkpt lat="45.8882986754179" lon="7.624348606914282">
        <ele>1563.24</ele>
        <time>2014-02-09T14:44:25Z</time>
      </trkpt>
      <trkpt lat="45.888340165838599" lon="7.624311894178391">
        <ele>1563.24</ele>
        <time>2014-02-09T14:44:29Z</time>
      </trkpt>
      <trkpt lat="45.888436054810882" lon="7.624244084581733">
        <ele>1563.72</ele>
        <time>2014-02-09T14:44:38Z</time>
      </trkpt>
      <trkpt lat="45.888595310971141" lon="7.62406119145453">
        <ele>1563.72</ele>
        <time>2014-02-09T14:44:56Z</time>
      </trkpt>
      <trkpt lat="45.8886250667274" lon="7.624006625264883">
        <ele>1564.2</ele>
        <time>2014-02-09T14:45:00Z</time>
      </trkpt>
      <trkpt lat="45.888727074488997" lon="7.623874023556709">
        <ele>1563.72</ele>
        <time>2014-02-09T14:45:12Z</time>
      </trkpt>
      <trkpt lat="45.888740569353104" lon="7.623811829835177">
        <ele>1563.72</ele>
        <time>2014-02-09T14:45:16Z</time>
      </trkpt>
      <trkpt lat="45.888740569353104" lon="7.623758940026164">
        <ele>1564.2</ele>
        <time>2014-02-09T14:45:19Z</time>
      </trkpt>
      <trkpt lat="45.888775270432234" lon="7.623713593930006">
        <ele>1563.72</ele>
        <time>2014-02-09T14:45:25Z</time>
      </trkpt>
      <trkpt lat="45.888771330937743" lon="7.623709151521325">
        <ele>1563.72</ele>
        <time>2014-02-09T14:45:36Z</time>
      </trkpt>
      <trkpt lat="45.88875356130302" lon="7.62370546348393">
        <ele>1563.72</ele>
        <time>2014-02-09T14:45:48Z</time>
      </trkpt>
      <trkpt lat="45.888767642900348" lon="7.623702781274915">
        <ele>1563.72</ele>
        <time>2014-02-09T14:46:04Z</time>
      </trkpt>
      <trkpt lat="45.888782143592834" lon="7.623707391321659">
        <ele>1562.76</ele>
        <time>2014-02-09T14:46:22Z</time>
      </trkpt>
      <trkpt lat="45.888780131936073" lon="7.623692555353046">
        <ele>1563.24</ele>
        <time>2014-02-09T14:46:41Z</time>
      </trkpt>
      <trkpt lat="45.88878876529634" lon="7.623664978891611">
        <ele>1563.24</ele>
        <time>2014-02-09T14:46:56Z</time>
      </trkpt>
      <trkpt lat="45.888804774731398" lon="7.623683251440525">
        <ele>1563.24</ele>
        <time>2014-02-09T14:47:14Z</time>
      </trkpt>
      <trkpt lat="45.888791363686323" lon="7.623678892850876">
        <ele>1562.76</ele>
        <time>2014-02-09T14:47:27Z</time>
      </trkpt>
      <trkpt lat="45.888827154412866" lon="7.623683419078589">
        <ele>1563.24</ele>
        <time>2014-02-09T14:47:41Z</time>
      </trkpt>
    </trkseg>
  </trk>

</gpx>